<?xml version='1.0' encoding='UTF-8'?><gpx version="1.1" creator="JPX - https://github.com/jenetics/jpx" xmlns="http://www.topografix.com/GPX/1/1"><trk><trkseg><trkpt lat="42.53154539126944" lon="14.130873739532774"><ele>3.1666666666666665</ele><time>2026-05-01T18:09:37.999Z</time></trkpt><trkpt lat="42.53153505177884" lon="14.130688326906062"><ele>3.333333333333333</ele><time>2026-05-01T18:09:39.999Z</time></trkpt><trkpt lat="42.5315172039413" lon="14.130590014994102"><ele>3.5</ele><time>2026-05-01T18:09:40.998Z</time></trkpt><trkpt lat="42.531497502574055" lon="14.130504512350775"><ele>3.6666666666666665</ele><time>2026-05-01T18:09:41.998Z</time></trkpt><trkpt lat="42.531479600976226" lon="14.130418053074855"><ele>3.833333333333333</ele><time>2026-05-01T18:09:42.998Z</time></trkpt><trkpt lat="42.53145243791334" lon="14.130322946023462"><ele>4.0</ele><time>2026-05-01T18:09:43.998Z</time></trkpt><trkpt lat="42.531420907085824" lon="14.130214513044585"><ele>3.9999999999999996</ele><time>2026-05-01T18:09:45.998Z</time></trkpt><trkpt lat="42.53138568058243" lon="14.1301159631244"><ele>4.0</ele><time>2026-05-01T18:09:47.998Z</time></trkpt><trkpt lat="42.53135305209962" lon="14.13000641680474"><ele>4.0</ele><time>2026-05-01T18:09:49.998Z</time></trkpt><trkpt lat="42.531324282742695" lon="14.129921397800356"><ele>4.0</ele><time>2026-05-01T18:11:06Z</time></trkpt><trkpt lat="42.531306773778745" lon="14.12980983472332"><ele>3.9999999999999996</ele><time>2026-05-01T18:11:07Z</time></trkpt><trkpt lat="42.531261874925455" lon="14.129708250933527"><ele>4.0</ele><time>2026-05-01T18:11:08Z</time></trkpt><trkpt lat="42.531233824739694" lon="14.129584548191522"><ele>6.6</ele><time>2026-05-01T18:11:09Z</time></trkpt><trkpt lat="42.531197678242066" lon="14.129450218078025"><ele>9.2</ele><time>2026-05-01T18:11:10Z</time></trkpt><trkpt lat="42.531159964703264" lon="14.129312847694852"><ele>11.799999999999999</ele><time>2026-05-01T18:11:11Z</time></trkpt><trkpt lat="42.531116069587" lon="14.129168934438168"><ele>14.4</ele><time>2026-05-01T18:11:12Z</time></trkpt><trkpt lat="42.53107470533513" lon="14.129020394302712"><ele>17.0</ele><time>2026-05-01T18:11:13Z</time></trkpt><trkpt lat="42.5310340442655" lon="14.128862393073058"><ele>17.25</ele><time>2026-05-01T18:11:13.999Z</time></trkpt><trkpt lat="42.53099810748673" lon="14.128699371541545"><ele>17.5</ele><time>2026-05-01T18:11:14.999Z</time></trkpt><trkpt lat="42.530965125620455" lon="14.128530257812367"><ele>17.75</ele><time>2026-05-01T18:11:15.999Z</time></trkpt><trkpt lat="42.53093885635739" lon="14.128352397995775"><ele>18.0</ele><time>2026-05-01T18:11:16.999Z</time></trkpt><trkpt lat="42.530929118985675" lon="14.128168141719724"><ele>18.0</ele><time>2026-05-01T18:11:17.999Z</time></trkpt><trkpt lat="42.530923811584316" lon="14.127987026783593"><ele>18.0</ele><time>2026-05-01T18:11:18.999Z</time></trkpt><trkpt lat="42.5309367423315" lon="14.127807678189972"><ele>18.0</ele><time>2026-05-01T18:11:19.999Z</time></trkpt><trkpt lat="42.53095427572021" lon="14.127649966181297"><ele>18.0</ele><time>2026-05-01T18:11:20.999Z</time></trkpt><trkpt lat="42.530981242329666" lon="14.12752202266282"><ele>18.0</ele><time>2026-05-01T18:11:21.999Z</time></trkpt><trkpt lat="42.53100602929867" lon="14.127400341932468"><ele>18.0</ele><time>2026-05-01T18:11:22.999Z</time></trkpt><trkpt lat="42.53102996832855" lon="14.127269504956184"><ele>18.0</ele><time>2026-05-01T18:11:23.999Z</time></trkpt><trkpt lat="42.531057190181464" lon="14.127140216012828"><ele>18.0</ele><time>2026-05-01T18:11:24.999Z</time></trkpt><trkpt lat="42.531106747108126" lon="14.126999852323321"><ele>18.0</ele><time>2026-05-01T18:11:25.999Z</time></trkpt><trkpt lat="42.53116393973617" lon="14.126859452008963"><ele>19.25</ele><time>2026-05-01T18:11:26.999Z</time></trkpt><trkpt lat="42.53123006033166" lon="14.126717982028588"><ele>20.5</ele><time>2026-05-01T18:11:27.999Z</time></trkpt><trkpt lat="42.53130283191939" lon="14.126582227967448"><ele>21.75</ele><time>2026-05-01T18:11:28.999Z</time></trkpt><trkpt lat="42.531383514937" lon="14.126448442651743"><ele>23.0</ele><time>2026-05-01T18:11:29.999Z</time></trkpt><trkpt lat="42.531458488553426" lon="14.126328170264879"><ele>23.0</ele><time>2026-05-01T18:11:30.999Z</time></trkpt><trkpt lat="42.53151244978857" lon="14.126237172180335"><ele>23.0</ele><time>2026-05-01T18:11:31.999Z</time></trkpt><trkpt lat="42.5315587338325" lon="14.126155589592205"><ele>23.0</ele><time>2026-05-01T18:11:32.999Z</time></trkpt><trkpt lat="42.5316125750042" lon="14.126055672077957"><ele>23.0</ele><time>2026-05-01T18:11:33.999Z</time></trkpt><trkpt lat="42.531690266411886" lon="14.125921634930924"><ele>23.0</ele><time>2026-05-01T18:11:34.999Z</time></trkpt><trkpt lat="42.53177152240874" lon="14.125778174005076"><ele>23.0</ele><time>2026-05-01T18:11:35.999Z</time></trkpt><trkpt lat="42.531858856147444" lon="14.125618224976128"><ele>23.0</ele><time>2026-05-01T18:11:36.999Z</time></trkpt><trkpt lat="42.531944148360985" lon="14.125449330857757"><ele>23.0</ele><time>2026-05-01T18:11:37.999Z</time></trkpt><trkpt lat="42.5320245485929" lon="14.125265716801028"><ele>23.0</ele><time>2026-05-01T18:11:38.999Z</time></trkpt><trkpt lat="42.53211080315104" lon="14.125084398795158"><ele>23.0</ele><time>2026-05-01T18:11:39.999Z</time></trkpt><trkpt lat="42.532163117686984" lon="14.12488144243102"><ele>23.0</ele><time>2026-05-01T18:11:40.999Z</time></trkpt><trkpt lat="42.532224484956345" lon="14.124687226796421"><ele>23.0</ele><time>2026-05-01T18:11:41.999Z</time></trkpt><trkpt lat="42.532275148117826" lon="14.124487580614291"><ele>23.0</ele><time>2026-05-01T18:11:42.999Z</time></trkpt><trkpt lat="42.532313593451306" lon="14.124281140394316"><ele>23.0</ele><time>2026-05-01T18:11:43.999Z</time></trkpt><trkpt lat="42.53236686455185" lon="14.124073713003327"><ele>23.0</ele><time>2026-05-01T18:11:44.999Z</time></trkpt><trkpt lat="42.53241145584029" lon="14.123856410312701"><ele>23.0</ele><time>2026-05-01T18:11:45.999Z</time></trkpt><trkpt lat="42.53245641882854" lon="14.123638394383134"><ele>23.0</ele><time>2026-05-01T18:11:46.999Z</time></trkpt><trkpt lat="42.53250367395184" lon="14.123414173645509"><ele>23.0</ele><time>2026-05-01T18:11:47.999Z</time></trkpt><trkpt lat="42.53255164522054" lon="14.123186554870838"><ele>23.0</ele><time>2026-05-01T18:11:48.999Z</time></trkpt><trkpt lat="42.53258570716151" lon="14.122949136240766"><ele>23.0</ele><time>2026-05-01T18:11:49.999Z</time></trkpt><trkpt lat="42.53263532740758" lon="14.122717774198883"><ele>23.0</ele><time>2026-05-01T18:11:50.999Z</time></trkpt><trkpt lat="42.53268352682849" lon="14.12248008961309"><ele>23.0</ele><time>2026-05-01T18:11:51.999Z</time></trkpt><trkpt lat="42.532731390620185" lon="14.122240914765708"><ele>23.0</ele><time>2026-05-01T18:11:52.999Z</time></trkpt><trkpt lat="42.53279658569691" lon="14.122004370739953"><ele>23.333333333333336</ele><time>2026-05-01T18:11:53.999Z</time></trkpt><trkpt lat="42.532847116119406" lon="14.121759362720685"><ele>23.666666666666668</ele><time>2026-05-01T18:11:54.999Z</time></trkpt><trkpt lat="42.53289909053254" lon="14.12151538236393"><ele>24.0</ele><time>2026-05-01T18:11:55.999Z</time></trkpt><trkpt lat="42.53295564659225" lon="14.121269626296876"><ele>24.0</ele><time>2026-05-01T18:11:56.999Z</time></trkpt><trkpt lat="42.53301589395944" lon="14.121026198441811"><ele>24.0</ele><time>2026-05-01T18:11:57.999Z</time></trkpt><trkpt lat="42.533079821066565" lon="14.12078393028234"><ele>24.0</ele><time>2026-05-01T18:11:58.999Z</time></trkpt><trkpt lat="42.533135930284395" lon="14.120536923669967"><ele>24.333333333333336</ele><time>2026-05-01T18:11:59.999Z</time></trkpt><trkpt lat="42.53323285102129" lon="14.120323985144742"><ele>24.666666666666668</ele><time>2026-05-01T18:12:00.999Z</time></trkpt><trkpt lat="42.53332569384359" lon="14.12011554143774"><ele>25.0</ele><time>2026-05-01T18:12:01.999Z</time></trkpt><trkpt lat="42.53341635856061" lon="14.119899181504415"><ele>25.0</ele><time>2026-05-01T18:12:02.999Z</time></trkpt><trkpt lat="42.53350653820821" lon="14.119681037994225"><ele>25.0</ele><time>2026-05-01T18:12:03.999Z</time></trkpt><trkpt lat="42.53359615339646" lon="14.11946425990168"><ele>25.0</ele><time>2026-05-01T18:12:04.998Z</time></trkpt><trkpt lat="42.53368770002965" lon="14.119242809698804"><ele>26.666666666666668</ele><time>2026-05-01T18:12:05.998Z</time></trkpt><trkpt lat="42.533781167035116" lon="14.119023703602954"><ele>28.333333333333336</ele><time>2026-05-01T18:12:06.998Z</time></trkpt><trkpt lat="42.533875259624324" lon="14.118801473442605"><ele>30.0</ele><time>2026-05-01T18:12:07.998Z</time></trkpt><trkpt lat="42.53396947463944" lon="14.118578954134378"><ele>30.0</ele><time>2026-05-01T18:12:08.998Z</time></trkpt><trkpt lat="42.534059930982885" lon="14.118356143897682"><ele>30.0</ele><time>2026-05-01T18:12:09.998Z</time></trkpt><trkpt lat="42.534149535839944" lon="14.118139257068378"><ele>30.0</ele><time>2026-05-01T18:12:10.998Z</time></trkpt><trkpt lat="42.53423861810124" lon="14.117926602911893"><ele>30.0</ele><time>2026-05-01T18:12:11.998Z</time></trkpt><trkpt lat="42.534311053996056" lon="14.117707036809138"><ele>30.0</ele><time>2026-05-01T18:12:12.998Z</time></trkpt><trkpt lat="42.534382093140145" lon="14.117531039742733"><ele>30.0</ele><time>2026-05-01T18:12:13.998Z</time></trkpt><trkpt lat="42.53443567537512" lon="14.117376416919157"><ele>30.0</ele><time>2026-05-01T18:12:14.998Z</time></trkpt><trkpt lat="42.53446317473616" lon="14.117232159826825"><ele>30.0</ele><time>2026-05-01T18:12:15.998Z</time></trkpt><trkpt lat="42.534455502611735" lon="14.117103372975608"><ele>30.0</ele><time>2026-05-01T18:12:16.998Z</time></trkpt><trkpt lat="42.53441237049716" lon="14.116974606848371"><ele>30.0</ele><time>2026-05-01T18:12:17.998Z</time></trkpt><trkpt lat="42.534340527441735" lon="14.116836020319262"><ele>30.0</ele><time>2026-05-01T18:12:18.998Z</time></trkpt><trkpt lat="42.534272857927604" lon="14.11666249764221"><ele>31.0</ele><time>2026-05-01T18:12:19.998Z</time></trkpt><trkpt lat="42.53419265691874" lon="14.116494641098317"><ele>32.0</ele><time>2026-05-01T18:12:20.998Z</time></trkpt><trkpt lat="42.534112488229276" lon="14.11631350145253"><ele>33.0</ele><time>2026-05-01T18:12:21.998Z</time></trkpt><trkpt lat="42.534040962789305" lon="14.116125729827523"><ele>33.0</ele><time>2026-05-01T18:12:22.998Z</time></trkpt><trkpt lat="42.53398295576054" lon="14.115929777292747"><ele>33.0</ele><time>2026-05-01T18:12:23.998Z</time></trkpt><trkpt lat="42.53394000205492" lon="14.11571989461249"><ele>33.0</ele><time>2026-05-01T18:12:24.998Z</time></trkpt><trkpt lat="42.53391792897455" lon="14.115488501217584"><ele>33.0</ele><time>2026-05-01T18:12:25.998Z</time></trkpt><trkpt lat="42.53390414933909" lon="14.115244444865933"><ele>33.0</ele><time>2026-05-01T18:12:26.998Z</time></trkpt><trkpt lat="42.53388505742249" lon="14.114986760770137"><ele>33.0</ele><time>2026-05-01T18:12:27.998Z</time></trkpt><trkpt lat="42.5338845163713" lon="14.114718911833187"><ele>34.666666666666664</ele><time>2026-05-01T18:12:28.998Z</time></trkpt><trkpt lat="42.53389525401707" lon="14.11445363226103"><ele>36.33333333333333</ele><time>2026-05-01T18:12:29.998Z</time></trkpt><trkpt lat="42.53389081960614" lon="14.114178970100978"><ele>38.0</ele><time>2026-05-01T18:12:30.998Z</time></trkpt><trkpt lat="42.533898786321565" lon="14.113935238717511"><ele>39.0</ele><time>2026-05-01T18:12:31.998Z</time></trkpt><trkpt lat="42.533913771860895" lon="14.113697435216139"><ele>40.0</ele><time>2026-05-01T18:12:32.998Z</time></trkpt><trkpt lat="42.53393360718453" lon="14.113451840443226"><ele>41.0</ele><time>2026-05-01T18:12:34Z</time></trkpt><trkpt lat="42.53395116008477" lon="14.113209683474444"><ele>41.666666666666664</ele><time>2026-05-01T18:12:35Z</time></trkpt><trkpt lat="42.53395966031415" lon="14.112968945263434"><ele>42.333333333333336</ele><time>2026-05-01T18:12:36Z</time></trkpt><trkpt lat="42.53397295012643" lon="14.112731406646637"><ele>43.0</ele><time>2026-05-01T18:12:37Z</time></trkpt><trkpt lat="42.53398390497693" lon="14.112496945257169"><ele>42.333333333333336</ele><time>2026-05-01T18:12:38Z</time></trkpt><trkpt lat="42.53399193911565" lon="14.11226178911123"><ele>41.666666666666664</ele><time>2026-05-01T18:12:39Z</time></trkpt><trkpt lat="42.5340206479289" lon="14.112025860892167"><ele>41.0</ele><time>2026-05-01T18:12:40Z</time></trkpt><trkpt lat="42.53403886088801" lon="14.11179545639009"><ele>40.0</ele><time>2026-05-01T18:12:41Z</time></trkpt><trkpt lat="42.53407695220289" lon="14.111571805771824"><ele>39.0</ele><time>2026-05-01T18:12:42Z</time></trkpt><trkpt lat="42.53413236223631" lon="14.111345069117005"><ele>38.0</ele><time>2026-05-01T18:12:43Z</time></trkpt><trkpt lat="42.53419791037278" lon="14.111109809565969"><ele>38.0</ele><time>2026-05-01T18:12:44Z</time></trkpt><trkpt lat="42.53425240494321" lon="14.110863647604145"><ele>38.0</ele><time>2026-05-01T18:12:45Z</time></trkpt><trkpt lat="42.53432100395449" lon="14.110619124207862"><ele>38.0</ele><time>2026-05-01T18:12:46Z</time></trkpt><trkpt lat="42.53439937754666" lon="14.11038108899965"><ele>36.666666666666664</ele><time>2026-05-01T18:12:47Z</time></trkpt><trkpt lat="42.534462732151525" lon="14.110143225198426"><ele>35.333333333333336</ele><time>2026-05-01T18:12:48Z</time></trkpt><trkpt lat="42.534527112180996" lon="14.109926288955977"><ele>34.0</ele><time>2026-05-01T18:12:49Z</time></trkpt><trkpt lat="42.5346063175917" lon="14.109726152915137"><ele>37.333333333333336</ele><time>2026-05-01T18:12:50Z</time></trkpt><trkpt lat="42.53470446762474" lon="14.10954035231541"><ele>40.666666666666664</ele><time>2026-05-01T18:12:51Z</time></trkpt><trkpt lat="42.53480532759912" lon="14.10935919280086"><ele>44.0</ele><time>2026-05-01T18:12:52Z</time></trkpt><trkpt lat="42.53488023007041" lon="14.109168548476747"><ele>42.75</ele><time>2026-05-01T18:12:53Z</time></trkpt><trkpt lat="42.53493183369149" lon="14.10898778600819"><ele>41.5</ele><time>2026-05-01T18:12:54Z</time></trkpt><trkpt lat="42.534947308275925" lon="14.108806627353555"><ele>40.25</ele><time>2026-05-01T18:12:55Z</time></trkpt><trkpt lat="42.53495183050835" lon="14.108625937132164"><ele>39.0</ele><time>2026-05-01T18:12:56Z</time></trkpt><trkpt lat="42.53499785124805" lon="14.108464600854333"><ele>39.0</ele><time>2026-05-01T18:12:57Z</time></trkpt><trkpt lat="42.53505358620035" lon="14.108355122296949"><ele>39.0</ele><time>2026-05-01T18:12:58Z</time></trkpt><trkpt lat="42.535148122302886" lon="14.108273731707357"><ele>39.0</ele><time>2026-05-01T18:12:59Z</time></trkpt><trkpt lat="42.535274434670896" lon="14.108202421906077"><ele>39.0</ele><time>2026-05-01T18:13:00Z</time></trkpt><trkpt lat="42.53542808652676" lon="14.10813924754576"><ele>40.5</ele><time>2026-05-01T18:13:01Z</time></trkpt><trkpt lat="42.53558544960324" lon="14.10805621464409"><ele>42.0</ele><time>2026-05-01T18:13:02Z</time></trkpt><trkpt lat="42.53571345208433" lon="14.107977401452056"><ele>43.5</ele><time>2026-05-01T18:13:03Z</time></trkpt><trkpt lat="42.53578512141952" lon="14.107876593844505"><ele>45.0</ele><time>2026-05-01T18:13:04Z</time></trkpt><trkpt lat="42.535828125511664" lon="14.107764028850616"><ele>45.0</ele><time>2026-05-01T18:13:05Z</time></trkpt><trkpt lat="42.53580650127846" lon="14.107597247503016"><ele>45.0</ele><time>2026-05-01T18:13:06Z</time></trkpt><trkpt lat="42.53579558370013" lon="14.107410661477097"><ele>45.0</ele><time>2026-05-01T18:13:07Z</time></trkpt><trkpt lat="42.53584458240855" lon="14.10724402193867"><ele>45.0</ele><time>2026-05-01T18:13:08Z</time></trkpt><trkpt lat="42.53590857971748" lon="14.107125300661323"><ele>45.0</ele><time>2026-05-01T18:13:09Z</time></trkpt><trkpt lat="42.535987792705086" lon="14.107002257331953"><ele>45.0</ele><time>2026-05-01T18:13:10Z</time></trkpt><trkpt lat="42.53602929458458" lon="14.106858556880658"><ele>45.0</ele><time>2026-05-01T18:13:11Z</time></trkpt><trkpt lat="42.53602326086242" lon="14.106727397948083"><ele>45.0</ele><time>2026-05-01T18:13:12Z</time></trkpt><trkpt lat="42.53596585303653" lon="14.106614648020827"><ele>45.0</ele><time>2026-05-01T18:13:13Z</time></trkpt><trkpt lat="42.53588200925965" lon="14.106518570885461"><ele>46.25</ele><time>2026-05-01T18:13:14Z</time></trkpt><trkpt lat="42.535762142036845" lon="14.106430727499324"><ele>47.5</ele><time>2026-05-01T18:13:15Z</time></trkpt><trkpt lat="42.53563586293598" lon="14.106339949820347"><ele>48.75</ele><time>2026-05-01T18:13:16Z</time></trkpt><trkpt lat="42.53553482606691" lon="14.106221246523313"><ele>50.0</ele><time>2026-05-01T18:13:17Z</time></trkpt><trkpt lat="42.53546762333575" lon="14.106071292141324"><ele>50.0</ele><time>2026-05-01T18:13:18Z</time></trkpt><trkpt lat="42.53543156759651" lon="14.105891038597214"><ele>50.0</ele><time>2026-05-01T18:13:19Z</time></trkpt><trkpt lat="42.53540093474765" lon="14.105688825549343"><ele>50.0</ele><time>2026-05-01T18:13:20Z</time></trkpt><trkpt lat="42.53536607292313" lon="14.105471163629515"><ele>45.0</ele><time>2026-05-01T18:13:20.999Z</time></trkpt><trkpt lat="42.535326598939974" lon="14.105254212096348"><ele>40.0</ele><time>2026-05-01T18:13:21.999Z</time></trkpt><trkpt lat="42.53528990855199" lon="14.105033796069543"><ele>35.0</ele><time>2026-05-01T18:13:22.999Z</time></trkpt><trkpt lat="42.53527068795682" lon="14.10485941028896"><ele>34.8</ele><time>2026-05-01T18:13:23.999Z</time></trkpt><trkpt lat="42.53529112495595" lon="14.104731034945464"><ele>34.6</ele><time>2026-05-01T18:13:24.999Z</time></trkpt><trkpt lat="42.53534534274346" lon="14.104590915463778"><ele>34.4</ele><time>2026-05-01T18:13:25.999Z</time></trkpt><trkpt lat="42.53542574584875" lon="14.104483267454356"><ele>34.2</ele><time>2026-05-01T18:13:26.999Z</time></trkpt><trkpt lat="42.53553693991272" lon="14.104441904656243"><ele>34.0</ele><time>2026-05-01T18:13:27.999Z</time></trkpt><trkpt lat="42.53566092217249" lon="14.10438085180465"><ele>36.75</ele><time>2026-05-01T18:13:28.999Z</time></trkpt><trkpt lat="42.53577740571412" lon="14.104337436197495"><ele>39.5</ele><time>2026-05-01T18:13:29.999Z</time></trkpt><trkpt lat="42.53590596515849" lon="14.104276797445642"><ele>42.25</ele><time>2026-05-01T18:13:30.999Z</time></trkpt><trkpt lat="42.53599463870808" lon="14.104199146457118"><ele>45.0</ele><time>2026-05-01T18:13:31.999Z</time></trkpt><trkpt lat="42.53604434492875" lon="14.104100519077033"><ele>45.0</ele><time>2026-05-01T18:13:32.999Z</time></trkpt><trkpt lat="42.53606566832872" lon="14.103976413743007"><ele>45.0</ele><time>2026-05-01T18:13:33.999Z</time></trkpt><trkpt lat="42.53610153010698" lon="14.103835550782652"><ele>45.0</ele><time>2026-05-01T18:13:34.999Z</time></trkpt><trkpt lat="42.5361542011462" lon="14.103686344077783"><ele>45.0</ele><time>2026-05-01T18:13:35.999Z</time></trkpt><trkpt lat="42.53619256725397" lon="14.103548161117839"><ele>45.0</ele><time>2026-05-01T18:13:36.999Z</time></trkpt><trkpt lat="42.53619871377048" lon="14.103359333383194"><ele>47.0</ele><time>2026-05-01T18:13:37.999Z</time></trkpt><trkpt lat="42.536183124867485" lon="14.103164534224591"><ele>49.0</ele><time>2026-05-01T18:13:38.999Z</time></trkpt><trkpt lat="42.536161590920536" lon="14.102975120163721"><ele>51.0</ele><time>2026-05-01T18:13:39.999Z</time></trkpt><trkpt lat="42.53615235514132" lon="14.102801843474074"><ele>53.0</ele><time>2026-05-01T18:13:40.999Z</time></trkpt><trkpt lat="42.536142807036846" lon="14.102667993404339"><ele>53.0</ele><time>2026-05-01T18:13:41.999Z</time></trkpt><trkpt lat="42.53614383279021" lon="14.102546533357392"><ele>53.0</ele><time>2026-05-01T18:13:42.999Z</time></trkpt><trkpt lat="42.53613804128683" lon="14.10240158359033"><ele>53.0</ele><time>2026-05-01T18:13:43.999Z</time></trkpt><trkpt lat="42.536125401014566" lon="14.102249820038182"><ele>53.0</ele><time>2026-05-01T18:13:44.999Z</time></trkpt><trkpt lat="42.536130323879114" lon="14.102087646769407"><ele>53.0</ele><time>2026-05-01T18:13:45.999Z</time></trkpt><trkpt lat="42.536132760700156" lon="14.101925160590813"><ele>52.8</ele><time>2026-05-01T18:13:46.999Z</time></trkpt><trkpt lat="42.53614934938944" lon="14.101761726790919"><ele>52.599999999999994</ele><time>2026-05-01T18:13:47.999Z</time></trkpt><trkpt lat="42.536168952817384" lon="14.101606723882803"><ele>52.400000000000006</ele><time>2026-05-01T18:13:48.999Z</time></trkpt><trkpt lat="42.53621745956565" lon="14.101505168631286"><ele>52.2</ele><time>2026-05-01T18:13:49.999Z</time></trkpt><trkpt lat="42.536270199244825" lon="14.101407431854403"><ele>52.0</ele><time>2026-05-01T18:13:50.999Z</time></trkpt><trkpt lat="42.536294849673325" lon="14.101271280692764"><ele>54.400000000000006</ele><time>2026-05-01T18:13:51.999Z</time></trkpt><trkpt lat="42.536368665088894" lon="14.101192754911311"><ele>56.800000000000004</ele><time>2026-05-01T18:13:52.999Z</time></trkpt><trkpt lat="42.536451767847794" lon="14.101123691369787"><ele>59.2</ele><time>2026-05-01T18:13:53.999Z</time></trkpt><trkpt lat="42.53654112898718" lon="14.101069298081228"><ele>61.6</ele><time>2026-05-01T18:13:54.999Z</time></trkpt><trkpt lat="42.53664320816316" lon="14.101041664766628"><ele>64.0</ele><time>2026-05-01T18:13:55.999Z</time></trkpt><trkpt lat="42.53674409877869" lon="14.100961256475417"><ele>64.0</ele><time>2026-05-01T18:13:56.999Z</time></trkpt><trkpt lat="42.536847829600276" lon="14.100874905747707"><ele>64.0</ele><time>2026-05-01T18:13:57.999Z</time></trkpt><trkpt lat="42.53695608153772" lon="14.100775484170358"><ele>64.0</ele><time>2026-05-01T18:13:58.999Z</time></trkpt><trkpt lat="42.53705591590497" lon="14.1006615440446"><ele>64.0</ele><time>2026-05-01T18:13:59.999Z</time></trkpt><trkpt lat="42.53715491708668" lon="14.100547488571358"><ele>65.5</ele><time>2026-05-01T18:14:00.999Z</time></trkpt><trkpt lat="42.53725565969358" lon="14.100434003456657"><ele>67.0</ele><time>2026-05-01T18:14:01.999Z</time></trkpt><trkpt lat="42.5373561163821" lon="14.100327002014538"><ele>68.5</ele><time>2026-05-01T18:14:02.999Z</time></trkpt><trkpt lat="42.5374722468764" lon="14.100233152755836"><ele>70.0</ele><time>2026-05-01T18:14:03.999Z</time></trkpt><trkpt lat="42.53758360822978" lon="14.100158008690086"><ele>70.0</ele><time>2026-05-01T18:14:04.999Z</time></trkpt><trkpt lat="42.53770071543341" lon="14.100083705953299"><ele>70.0</ele><time>2026-05-01T18:14:05.999Z</time></trkpt><trkpt lat="42.537818868780995" lon="14.10001487609561"><ele>70.0</ele><time>2026-05-01T18:14:06.999Z</time></trkpt><trkpt lat="42.53793444811537" lon="14.099959313058912"><ele>70.0</ele><time>2026-05-01T18:14:07.999Z</time></trkpt><trkpt lat="42.53804910117737" lon="14.099930376453838"><ele>72.0</ele><time>2026-05-01T18:14:08.999Z</time></trkpt><trkpt lat="42.53816670876749" lon="14.099919455897389"><ele>74.0</ele><time>2026-05-01T18:14:09.999Z</time></trkpt><trkpt lat="42.53827932841824" lon="14.099918200529018"><ele>76.0</ele><time>2026-05-01T18:14:10.998Z</time></trkpt><trkpt lat="42.53837497451784" lon="14.099931178293499"><ele>78.0</ele><time>2026-05-01T18:14:11.998Z</time></trkpt><trkpt lat="42.53848363299317" lon="14.099988657494167"><ele>80.0</ele><time>2026-05-01T18:14:13.998Z</time></trkpt><trkpt lat="42.538543907566584" lon="14.100060503576412"><ele>80.0</ele><time>2026-05-01T18:14:14.998Z</time></trkpt><trkpt lat="42.53861600599275" lon="14.100150758169635"><ele>80.0</ele><time>2026-05-01T18:14:15.998Z</time></trkpt><trkpt lat="42.53869922557572" lon="14.100231171868105"><ele>80.0</ele><time>2026-05-01T18:14:16.998Z</time></trkpt><trkpt lat="42.538775631627786" lon="14.100308415764143"><ele>80.0</ele><time>2026-05-01T18:14:17.998Z</time></trkpt><trkpt lat="42.53883752702802" lon="14.100413032581027"><ele>80.0</ele><time>2026-05-01T18:14:18.998Z</time></trkpt><trkpt lat="42.538902684170615" lon="14.100508430772674"><ele>81.6</ele><time>2026-05-01T18:14:19.998Z</time></trkpt><trkpt lat="42.53897005784916" lon="14.10060831130822"><ele>83.2</ele><time>2026-05-01T18:14:20.998Z</time></trkpt><trkpt lat="42.53903486923733" lon="14.100705003049821"><ele>84.80000000000001</ele><time>2026-05-01T18:14:21.998Z</time></trkpt><trkpt lat="42.539104729065905" lon="14.100785075819223"><ele>86.4</ele><time>2026-05-01T18:14:22.998Z</time></trkpt><trkpt lat="42.539156744452555" lon="14.100868181896908"><ele>88.0</ele><time>2026-05-01T18:14:23.998Z</time></trkpt><trkpt lat="42.539208039609406" lon="14.10095841649607"><ele>89.16666666666666</ele><time>2026-05-01T18:14:24.998Z</time></trkpt><trkpt lat="42.539254183386234" lon="14.10105580124296"><ele>90.33333333333333</ele><time>2026-05-01T18:14:25.998Z</time></trkpt><trkpt lat="42.53929175154101" lon="14.10114094596453"><ele>91.5</ele><time>2026-05-01T18:14:26.998Z</time></trkpt><trkpt lat="42.539329179581316" lon="14.101215587328449"><ele>92.66666666666667</ele><time>2026-05-01T18:14:27.998Z</time></trkpt><trkpt lat="42.53938512924421" lon="14.101293453071499"><ele>93.83333333333334</ele><time>2026-05-01T18:14:28.998Z</time></trkpt><trkpt lat="42.539456073069566" lon="14.10137657604383"><ele>95.0</ele><time>2026-05-01T18:14:29.998Z</time></trkpt><trkpt lat="42.53953675892405" lon="14.101446955003402"><ele>95.6</ele><time>2026-05-01T18:14:30.998Z</time></trkpt><trkpt lat="42.53961200092145" lon="14.101522629136907"><ele>96.2</ele><time>2026-05-01T18:14:31.998Z</time></trkpt><trkpt lat="42.53968279762308" lon="14.101601631979428"><ele>96.80000000000001</ele><time>2026-05-01T18:14:32.998Z</time></trkpt><trkpt lat="42.5397596679579" lon="14.101682001523061"><ele>97.4</ele><time>2026-05-01T18:14:33.998Z</time></trkpt><trkpt lat="42.53983791386432" lon="14.10176260464366"><ele>98.0</ele><time>2026-05-01T18:14:34.998Z</time></trkpt><trkpt lat="42.539907527247365" lon="14.101848998203172"><ele>100.5</ele><time>2026-05-01T18:14:35.998Z</time></trkpt><trkpt lat="42.53997294335604" lon="14.101953324951502"><ele>103.0</ele><time>2026-05-01T18:14:36.998Z</time></trkpt><trkpt lat="42.540040021239236" lon="14.10206974418373"><ele>105.5</ele><time>2026-05-01T18:14:37.998Z</time></trkpt><trkpt lat="42.54011669402763" lon="14.102201253676084"><ele>108.0</ele><time>2026-05-01T18:14:39Z</time></trkpt><trkpt lat="42.5402057725205" lon="14.102321111735161"><ele>108.0</ele><time>2026-05-01T18:14:40Z</time></trkpt><trkpt lat="42.54030120941397" lon="14.10245080238945"><ele>108.0</ele><time>2026-05-01T18:14:41Z</time></trkpt><trkpt lat="42.54039822428725" lon="14.102583248418696"><ele>108.0</ele><time>2026-05-01T18:14:42Z</time></trkpt><trkpt lat="42.54049108951349" lon="14.102696754582059"><ele>108.0</ele><time>2026-05-01T18:14:43Z</time></trkpt><trkpt lat="42.54057581556812" lon="14.102783911386327"><ele>108.4</ele><time>2026-05-01T18:14:44Z</time></trkpt><trkpt lat="42.54065404575764" lon="14.102862074081218"><ele>108.80000000000001</ele><time>2026-05-01T18:14:45Z</time></trkpt><trkpt lat="42.54072961947405" lon="14.102958091165492"><ele>109.2</ele><time>2026-05-01T18:14:46Z</time></trkpt><trkpt lat="42.54080200285602" lon="14.103072576110575"><ele>109.6</ele><time>2026-05-01T18:14:47Z</time></trkpt><trkpt lat="42.540877852109645" lon="14.103198516305238"><ele>110.0</ele><time>2026-05-01T18:14:48Z</time></trkpt><trkpt lat="42.54096326267118" lon="14.103320372832894"><ele>110.0</ele><time>2026-05-01T18:14:49Z</time></trkpt><trkpt lat="42.5410501481742" lon="14.103446248394306"><ele>110.0</ele><time>2026-05-01T18:14:50Z</time></trkpt><trkpt lat="42.5411427774288" lon="14.103577307546196"><ele>110.0</ele><time>2026-05-01T18:14:51Z</time></trkpt><trkpt lat="42.54123805540761" lon="14.10371886992565"><ele>110.0</ele><time>2026-05-01T18:14:52Z</time></trkpt><trkpt lat="42.54134608189218" lon="14.10385833608065"><ele>110.75</ele><time>2026-05-01T18:14:53Z</time></trkpt><trkpt lat="42.54144721439912" lon="14.103995965665904"><ele>111.5</ele><time>2026-05-01T18:14:54Z</time></trkpt><trkpt lat="42.5415452174777" lon="14.104130104160223"><ele>112.25</ele><time>2026-05-01T18:14:55Z</time></trkpt><trkpt lat="42.541644163426184" lon="14.104261884843568"><ele>113.0</ele><time>2026-05-01T18:14:56Z</time></trkpt><trkpt lat="42.54171050677917" lon="14.104389687339353"><ele>113.0</ele><time>2026-05-01T18:14:57Z</time></trkpt><trkpt lat="42.54176356108043" lon="14.104497899840771"><ele>113.0</ele><time>2026-05-01T18:14:58Z</time></trkpt><trkpt lat="42.541817475795796" lon="14.104620198994871"><ele>113.0</ele><time>2026-05-01T18:14:59Z</time></trkpt><trkpt lat="42.54185953603874" lon="14.10478388506984"><ele>113.0</ele><time>2026-05-01T18:15:00Z</time></trkpt><trkpt lat="42.54194409987017" lon="14.104952673487293"><ele>112.66666666666666</ele><time>2026-05-01T18:15:01Z</time></trkpt><trkpt lat="42.542028727296874" lon="14.105148648377284"><ele>112.33333333333334</ele><time>2026-05-01T18:15:02Z</time></trkpt><trkpt lat="42.542108755856944" lon="14.105334259215633"><ele>112.0</ele><time>2026-05-01T18:15:03Z</time></trkpt><trkpt lat="42.5421793198605" lon="14.105505404427838"><ele>112.0</ele><time>2026-05-01T18:15:04Z</time></trkpt><trkpt lat="42.542244381021305" lon="14.105669532537307"><ele>112.0</ele><time>2026-05-01T18:15:05Z</time></trkpt><trkpt lat="42.54230676253557" lon="14.105821210990129"><ele>112.0</ele><time>2026-05-01T18:15:06Z</time></trkpt><trkpt lat="42.54236980340466" lon="14.105959022505928"><ele>112.0</ele><time>2026-05-01T18:15:07Z</time></trkpt><trkpt lat="42.54243157335412" lon="14.106094685079707"><ele>113.6</ele><time>2026-05-01T18:15:08Z</time></trkpt><trkpt lat="42.5424889983492" lon="14.10621167598951"><ele>115.19999999999999</ele><time>2026-05-01T18:15:09Z</time></trkpt><trkpt lat="42.54254363976884" lon="14.106312520586876"><ele>116.8</ele><time>2026-05-01T18:15:10Z</time></trkpt><trkpt lat="42.54260078661379" lon="14.10640814666655"><ele>118.4</ele><time>2026-05-01T18:15:11Z</time></trkpt><trkpt lat="42.54267140748698" lon="14.106521278327197"><ele>120.0</ele><time>2026-05-01T18:15:12Z</time></trkpt><trkpt lat="42.54272448033144" lon="14.106647401615882"><ele>120.8</ele><time>2026-05-01T18:15:13Z</time></trkpt><trkpt lat="42.542772637430744" lon="14.106742150072371"><ele>121.6</ele><time>2026-05-01T18:15:14Z</time></trkpt><trkpt lat="42.542864743293386" lon="14.10684966434924"><ele>122.4</ele><time>2026-05-01T18:15:16Z</time></trkpt><trkpt lat="42.54294881881479" lon="14.106842114398122"><ele>123.2</ele><time>2026-05-01T18:15:17Z</time></trkpt><trkpt lat="42.54303454915966" lon="14.106859579554841"><ele>124.0</ele><time>2026-05-01T18:15:18Z</time></trkpt><trkpt lat="42.543135877908746" lon="14.106871076032222"><ele>122.2</ele><time>2026-05-01T18:15:19Z</time></trkpt><trkpt lat="42.54323442365921" lon="14.106921683039763"><ele>120.4</ele><time>2026-05-01T18:15:20Z</time></trkpt><trkpt lat="42.54331992854363" lon="14.106989244918587"><ele>118.6</ele><time>2026-05-01T18:15:21Z</time></trkpt><trkpt lat="42.54345413345917" lon="14.1069258336816"><ele>116.8</ele><time>2026-05-01T18:15:22Z</time></trkpt><trkpt lat="42.54354436780796" lon="14.106931270875917"><ele>115.0</ele><time>2026-05-01T18:15:23Z</time></trkpt><trkpt lat="42.54361284037968" lon="14.106927708817937"><ele>115.0</ele><time>2026-05-01T18:15:24Z</time></trkpt><trkpt lat="42.54373967160074" lon="14.106913195796974"><ele>115.0</ele><time>2026-05-01T18:15:26Z</time></trkpt><trkpt lat="42.54380534167314" lon="14.106890208445641"><ele>115.0</ele><time>2026-05-01T18:15:27Z</time></trkpt><trkpt lat="42.54375708302767" lon="14.10694801124495"><ele>115.0</ele><time>2026-05-01T18:15:31.999Z</time></trkpt><trkpt lat="42.5436417699641" lon="14.106836662152947"><ele>115.0</ele><time>2026-05-01T18:15:32.999Z</time></trkpt><trkpt lat="42.5435728627161" lon="14.106796692465633"><ele>115.0</ele><time>2026-05-01T18:15:34.999Z</time></trkpt><trkpt lat="42.54355781549617" lon="14.106668986803628"><ele>115.0</ele><time>2026-05-01T18:15:36.999Z</time></trkpt><trkpt lat="42.54355215211138" lon="14.10649719537973"><ele>115.0</ele><time>2026-05-01T18:15:38.999Z</time></trkpt><trkpt lat="42.543533121632606" lon="14.106339505100085"><ele>115.0</ele><time>2026-05-01T18:15:40.999Z</time></trkpt><trkpt lat="42.54352218026964" lon="14.106192812261739"><ele>115.0</ele><time>2026-05-01T18:15:42.999Z</time></trkpt><trkpt lat="42.54351257509867" lon="14.106105593096023"><ele>113.57142857142856</ele><time>2026-05-01T18:15:43.999Z</time></trkpt><trkpt lat="42.54350170804913" lon="14.106013347769212"><ele>112.14285714285714</ele><time>2026-05-01T18:15:44.999Z</time></trkpt><trkpt lat="42.543493654434755" lon="14.10590957379995"><ele>110.71428571428571</ele><time>2026-05-01T18:15:45.999Z</time></trkpt><trkpt lat="42.54348565299396" lon="14.105807802960541"><ele>109.28571428571428</ele><time>2026-05-01T18:15:46.999Z</time></trkpt><trkpt lat="42.54347656286332" lon="14.105707437795115"><ele>107.85714285714286</ele><time>2026-05-01T18:15:47.999Z</time></trkpt><trkpt lat="42.54346783772312" lon="14.10561766717588"><ele>106.42857142857143</ele><time>2026-05-01T18:15:48.999Z</time></trkpt><trkpt lat="42.54345694773877" lon="14.10552716323026"><ele>105.0</ele><time>2026-05-01T18:15:49.999Z</time></trkpt><trkpt lat="42.54344576133571" lon="14.105427250390727"><ele>103.33333333333333</ele><time>2026-05-01T18:15:50.999Z</time></trkpt><trkpt lat="42.54343323944979" lon="14.105325294625398"><ele>101.66666666666667</ele><time>2026-05-01T18:15:51.999Z</time></trkpt><trkpt lat="42.543418428369534" lon="14.10519371293113"><ele>100.0</ele><time>2026-05-01T18:15:53.999Z</time></trkpt><trkpt lat="42.543405883931" lon="14.105103140599871"><ele>98.33333333333334</ele><time>2026-05-01T18:15:54.999Z</time></trkpt><trkpt lat="42.54339656665665" lon="14.105002539022705"><ele>96.66666666666667</ele><time>2026-05-01T18:15:55.999Z</time></trkpt><trkpt lat="42.54338708164661" lon="14.10486457072352"><ele>95.0</ele><time>2026-05-01T18:15:57.999Z</time></trkpt><trkpt lat="42.54338048335844" lon="14.10476322236638"><ele>93.0</ele><time>2026-05-01T18:15:59.999Z</time></trkpt><trkpt lat="42.5433695519489" lon="14.104631692196223"><ele>91.0</ele><time>2026-05-01T18:16:01.999Z</time></trkpt><trkpt lat="42.54336463764141" lon="14.10447865624994"><ele>89.0</ele><time>2026-05-01T18:16:03.999Z</time></trkpt><trkpt lat="42.543356569656396" lon="14.10433134107735"><ele>87.0</ele><time>2026-05-01T18:16:05.999Z</time></trkpt><trkpt lat="42.5433471768473" lon="14.104207734920077"><ele>85.0</ele><time>2026-05-01T18:16:07.999Z</time></trkpt><trkpt lat="42.54332643949014" lon="14.104102301490272"><ele>83.6</ele><time>2026-05-01T18:16:09.999Z</time></trkpt><trkpt lat="42.54327162779382" lon="14.103997866376147"><ele>82.2</ele><time>2026-05-01T18:16:11.999Z</time></trkpt><trkpt lat="42.54321485572954" lon="14.103867357902015"><ele>80.8</ele><time>2026-05-01T18:16:13.999Z</time></trkpt><trkpt lat="42.543182970439496" lon="14.103791011753964"><ele>79.4</ele><time>2026-05-01T18:16:14.999Z</time></trkpt><trkpt lat="42.54314028153266" lon="14.103658037582525"><ele>78.0</ele><time>2026-05-01T18:16:16.999Z</time></trkpt><trkpt lat="42.543153402386224" lon="14.103510935123573"><ele>78.0</ele><time>2026-05-01T18:16:18.998Z</time></trkpt><trkpt lat="42.54318411446655" lon="14.103435246703214"><ele>78.0</ele><time>2026-05-01T18:16:19.998Z</time></trkpt><trkpt lat="42.5432145264373" lon="14.103359633213426"><ele>78.0</ele><time>2026-05-01T18:16:20.998Z</time></trkpt><trkpt lat="42.54324692177566" lon="14.103229433440747"><ele>78.0</ele><time>2026-05-01T18:16:22.998Z</time></trkpt><trkpt lat="42.54326109709888" lon="14.10311713377441"><ele>78.0</ele><time>2026-05-01T18:16:24.998Z</time></trkpt><trkpt lat="42.54327158488569" lon="14.103000921561955"><ele>78.0</ele><time>2026-05-01T18:16:26.998Z</time></trkpt><trkpt lat="42.54328038021238" lon="14.102883898137337"><ele>76.2</ele><time>2026-05-01T18:16:28.998Z</time></trkpt><trkpt lat="42.54327538625295" lon="14.102768334418597"><ele>74.4</ele><time>2026-05-01T18:16:30.998Z</time></trkpt><trkpt lat="42.54326476879387" lon="14.102649816215868"><ele>72.60000000000001</ele><time>2026-05-01T18:16:32.998Z</time></trkpt><trkpt lat="42.543253902217685" lon="14.102535769781618"><ele>70.8</ele><time>2026-05-01T18:16:34.998Z</time></trkpt><trkpt lat="42.54323787399888" lon="14.102423346055401"><ele>69.0</ele><time>2026-05-01T18:16:36.998Z</time></trkpt><trkpt lat="42.54321205586694" lon="14.102269943895068"><ele>67.8</ele><time>2026-05-01T18:16:38.998Z</time></trkpt><trkpt lat="42.54317839862662" lon="14.102135561352078"><ele>66.60000000000001</ele><time>2026-05-01T18:16:40.998Z</time></trkpt><trkpt lat="42.543141137478095" lon="14.102016459117326"><ele>65.4</ele><time>2026-05-01T18:16:42.998Z</time></trkpt><trkpt lat="42.54310183155151" lon="14.101895170148255"><ele>64.2</ele><time>2026-05-01T18:16:45Z</time></trkpt><trkpt lat="42.54306500855926" lon="14.101801514662194"><ele>63.0</ele><time>2026-05-01T18:16:47Z</time></trkpt><trkpt lat="42.54302145512779" lon="14.10168531467856"><ele>63.166666666666664</ele><time>2026-05-01T18:16:49Z</time></trkpt><trkpt lat="42.54296115591257" lon="14.101577371258267"><ele>63.33333333333333</ele><time>2026-05-01T18:16:51Z</time></trkpt><trkpt lat="42.54290755835858" lon="14.101494852902997"><ele>63.5</ele><time>2026-05-01T18:16:53Z</time></trkpt><trkpt lat="42.54285276889934" lon="14.101426027306525"><ele>63.666666666666664</ele><time>2026-05-01T18:16:55Z</time></trkpt><trkpt lat="42.54280025411923" lon="14.101375426456807"><ele>63.83333333333333</ele><time>2026-05-01T18:16:57Z</time></trkpt><trkpt lat="42.54274568440566" lon="14.101320569797933"><ele>64.0</ele><time>2026-05-01T18:17:00Z</time></trkpt><trkpt lat="42.54269165890562" lon="14.101237740252763"><ele>62.83333333333333</ele><time>2026-05-01T18:17:03Z</time></trkpt><trkpt lat="42.54265560153727" lon="14.101162944020098"><ele>61.666666666666664</ele><time>2026-05-01T18:17:05Z</time></trkpt><trkpt lat="42.54262926188235" lon="14.101044812661337"><ele>60.5</ele><time>2026-05-01T18:17:08Z</time></trkpt><trkpt lat="42.5426186463093" lon="14.100943213410208"><ele>59.33333333333333</ele><time>2026-05-01T18:17:10Z</time></trkpt><trkpt lat="42.542607490223766" lon="14.100839188669987"><ele>58.166666666666664</ele><time>2026-05-01T18:17:12Z</time></trkpt><trkpt lat="42.542592585730986" lon="14.100738292747566"><ele>57.0</ele><time>2026-05-01T18:17:14Z</time></trkpt><trkpt lat="42.542578288859595" lon="14.100650898778285"><ele>56.166666666666664</ele><time>2026-05-01T18:17:16Z</time></trkpt><trkpt lat="42.5425646016111" lon="14.100535961110582"><ele>55.33333333333333</ele><time>2026-05-01T18:17:20Z</time></trkpt><trkpt lat="42.54252413863526" lon="14.100421968289716"><ele>54.5</ele><time>2026-05-01T18:17:23Z</time></trkpt><trkpt lat="42.54249327107329" lon="14.10033623727593"><ele>53.666666666666664</ele><time>2026-05-01T18:17:25Z</time></trkpt><trkpt lat="42.54246098916114" lon="14.100242063000577"><ele>52.83333333333333</ele><time>2026-05-01T18:17:39.999Z</time></trkpt><trkpt lat="42.54242945115381" lon="14.100143909215332"><ele>52.0</ele><time>2026-05-01T18:17:43.999Z</time></trkpt><trkpt lat="42.5423877199041" lon="14.100057438856297"><ele>51.99999999999999</ele><time>2026-05-01T18:17:47.999Z</time></trkpt><trkpt lat="42.54236085098109" lon="14.099960849851744"><ele>52.0</ele><time>2026-05-01T18:17:50.999Z</time></trkpt><trkpt lat="42.54233074413181" lon="14.099840053535676"><ele>52.0</ele><time>2026-05-01T18:17:53.999Z</time></trkpt><trkpt lat="42.54230479395467" lon="14.09972608003217"><ele>52.0</ele><time>2026-05-01T18:17:56.999Z</time></trkpt><trkpt lat="42.54227420827978" lon="14.099604277860264"><ele>51.99999999999999</ele><time>2026-05-01T18:17:59.999Z</time></trkpt><trkpt lat="42.54226193466698" lon="14.099513273971423"><ele>52.0</ele><time>2026-05-01T18:18:01.999Z</time></trkpt><trkpt lat="42.542242734606425" lon="14.099413701106666"><ele>51.857142857142854</ele><time>2026-05-01T18:18:04.999Z</time></trkpt><trkpt lat="42.54222814047802" lon="14.09932981360775"><ele>51.714285714285715</ele><time>2026-05-01T18:18:06.999Z</time></trkpt><trkpt lat="42.54221649830905" lon="14.099235181415375"><ele>51.57142857142857</ele><time>2026-05-01T18:18:08.999Z</time></trkpt><trkpt lat="42.54220240043193" lon="14.099126821801155"><ele>51.42857142857143</ele><time>2026-05-01T18:18:11.999Z</time></trkpt><trkpt lat="42.542192520629456" lon="14.09903788404584"><ele>51.28571428571429</ele><time>2026-05-01T18:18:14.999Z</time></trkpt><trkpt lat="42.54217677128317" lon="14.098945414460964"><ele>51.142857142857146</ele><time>2026-05-01T18:18:30.998Z</time></trkpt><trkpt lat="42.54217374850603" lon="14.09884910211184"><ele>51.0</ele><time>2026-05-01T18:18:35.998Z</time></trkpt><trkpt lat="42.54220985053191" lon="14.098764200044348"><ele>51.333333333333336</ele><time>2026-05-01T18:18:49.998Z</time></trkpt><trkpt lat="42.54226967878494" lon="14.09867063915838"><ele>51.66666666666667</ele><time>2026-05-01T18:18:58Z</time></trkpt><trkpt lat="42.54227098626358" lon="14.09857268286614"><ele>52.0</ele><time>2026-05-01T18:19:00Z</time></trkpt><trkpt lat="42.54222927511816" lon="14.09847342815393"><ele>52.333333333333336</ele><time>2026-05-01T18:19:02Z</time></trkpt><trkpt lat="42.54219340860326" lon="14.098370798715097"><ele>52.66666666666667</ele><time>2026-05-01T18:19:04Z</time></trkpt><trkpt lat="42.542150936400844" lon="14.098258447879239"><ele>53.0</ele><time>2026-05-01T18:19:06Z</time></trkpt><trkpt lat="42.54210714235393" lon="14.098147727053988"><ele>53.4</ele><time>2026-05-01T18:19:08Z</time></trkpt><trkpt lat="42.54206245949197" lon="14.0980440680935"><ele>53.8</ele><time>2026-05-01T18:19:10Z</time></trkpt><trkpt lat="42.54202407551891" lon="14.097937398212444"><ele>54.2</ele><time>2026-05-01T18:19:12Z</time></trkpt><trkpt lat="42.541989985869186" lon="14.09784336549105"><ele>54.6</ele><time>2026-05-01T18:19:14Z</time></trkpt><trkpt lat="42.541929708228025" lon="14.097729854963356"><ele>55.0</ele><time>2026-05-01T18:19:16Z</time></trkpt><trkpt lat="42.54185632229566" lon="14.097609174032362"><ele>51.8</ele><time>2026-05-01T18:19:18Z</time></trkpt><trkpt lat="42.541785618841416" lon="14.097497205227128"><ele>48.6</ele><time>2026-05-01T18:19:20Z</time></trkpt><trkpt lat="42.541714918076664" lon="14.097377766176937"><ele>45.4</ele><time>2026-05-01T18:19:22Z</time></trkpt><trkpt lat="42.54164355850391" lon="14.097247359674633"><ele>42.2</ele><time>2026-05-01T18:19:24Z</time></trkpt><trkpt lat="42.541588303585876" lon="14.097154161738956"><ele>39.0</ele><time>2026-05-01T18:19:26Z</time></trkpt><trkpt lat="42.54154887776421" lon="14.097077888962938"><ele>38.833333333333336</ele><time>2026-05-01T18:19:30Z</time></trkpt><trkpt lat="42.54148134887918" lon="14.097040121627552"><ele>38.666666666666664</ele><time>2026-05-01T18:19:39Z</time></trkpt><trkpt lat="42.54144397268828" lon="14.096953270763525"><ele>38.5</ele><time>2026-05-01T18:19:42Z</time></trkpt><trkpt lat="42.541397956369785" lon="14.096856132217894"><ele>38.33333333333333</ele><time>2026-05-01T18:19:45Z</time></trkpt><trkpt lat="42.54133826216916" lon="14.096755401493416"><ele>38.166666666666664</ele><time>2026-05-01T18:19:48Z</time></trkpt><trkpt lat="42.54129104207765" lon="14.096671248412772"><ele>38.0</ele><time>2026-05-01T18:19:50Z</time></trkpt><trkpt lat="42.54123851125955" lon="14.096589376901221"><ele>37.0</ele><time>2026-05-01T18:19:52Z</time></trkpt><trkpt lat="42.54117623574045" lon="14.096486756097313"><ele>36.0</ele><time>2026-05-01T18:19:54Z</time></trkpt><trkpt lat="42.54114030544471" lon="14.096383929453168"><ele>35.0</ele><time>2026-05-01T18:19:55.999Z</time></trkpt><trkpt lat="42.54115292238444" lon="14.096264647477936"><ele>34.0</ele><time>2026-05-01T18:19:58.999Z</time></trkpt><trkpt lat="42.54118390780755" lon="14.096176067314238"><ele>33.0</ele><time>2026-05-01T18:20:00.999Z</time></trkpt><trkpt lat="42.54119648343982" lon="14.096083304675213"><ele>32.0</ele><time>2026-05-01T18:20:02.999Z</time></trkpt><trkpt lat="42.54118324088347" lon="14.095960537594417"><ele>31.999999999999996</ele><time>2026-05-01T18:20:05.999Z</time></trkpt><trkpt lat="42.541160872365246" lon="14.095849615967085"><ele>32.0</ele><time>2026-05-01T18:20:08.999Z</time></trkpt><trkpt lat="42.5411602071253" lon="14.095754798226613"><ele>32.0</ele><time>2026-05-01T18:20:10.999Z</time></trkpt><trkpt lat="42.5411922188511" lon="14.095643241361596"><ele>32.0</ele><time>2026-05-01T18:20:13.999Z</time></trkpt><trkpt lat="42.541231163057006" lon="14.0955292856701"><ele>31.999999999999996</ele><time>2026-05-01T18:20:15.999Z</time></trkpt><trkpt lat="42.54127478225623" lon="14.095428741674851"><ele>32.0</ele><time>2026-05-01T18:20:17.999Z</time></trkpt><trkpt lat="42.54132378725369" lon="14.095345884318018"><ele>32.33333333333333</ele><time>2026-05-01T18:20:19.999Z</time></trkpt><trkpt lat="42.541380603730076" lon="14.095254342859947"><ele>32.666666666666664</ele><time>2026-05-01T18:20:21.999Z</time></trkpt><trkpt lat="42.54144905075276" lon="14.095231407305581"><ele>33.0</ele><time>2026-05-01T18:20:23.999Z</time></trkpt><trkpt lat="42.54153282005125" lon="14.095201266312685"><ele>33.333333333333336</ele><time>2026-05-01T18:20:25.999Z</time></trkpt><trkpt lat="42.54163570133157" lon="14.095121235353954"><ele>33.66666666666667</ele><time>2026-05-01T18:20:27.999Z</time></trkpt><trkpt lat="42.54169256499738" lon="14.09507023117665"><ele>34.0</ele><time>2026-05-01T18:20:28.999Z</time></trkpt><trkpt lat="42.54175589200755" lon="14.095022671856835"><ele>34.0</ele><time>2026-05-01T18:20:29.999Z</time></trkpt><trkpt lat="42.5418157278877" lon="14.094992851010929"><ele>34.0</ele><time>2026-05-01T18:20:30.999Z</time></trkpt><trkpt lat="42.54192094803186" lon="14.095004258072489"><ele>34.0</ele><time>2026-05-01T18:20:32.999Z</time></trkpt><trkpt lat="42.54203652276693" lon="14.095100576890822"><ele>34.0</ele><time>2026-05-01T18:20:34.999Z</time></trkpt><trkpt lat="42.54210109114524" lon="14.095156002713424"><ele>34.0</ele><time>2026-05-01T18:20:35.999Z</time></trkpt><trkpt lat="42.54216818133601" lon="14.095203329944042"><ele>35.0</ele><time>2026-05-01T18:20:36.999Z</time></trkpt><trkpt lat="42.54223250795187" lon="14.095229907274891"><ele>36.0</ele><time>2026-05-01T18:20:37.999Z</time></trkpt><trkpt lat="42.54229659019199" lon="14.09523526652326"><ele>37.0</ele><time>2026-05-01T18:20:38.999Z</time></trkpt><trkpt lat="42.54237162687015" lon="14.095226508607544"><ele>38.0</ele><time>2026-05-01T18:20:39.999Z</time></trkpt><trkpt lat="42.54246018931267" lon="14.095207239242294"><ele>39.0</ele><time>2026-05-01T18:20:40.999Z</time></trkpt><trkpt lat="42.542552193625" lon="14.09517019019379"><ele>40.0</ele><time>2026-05-01T18:20:41.999Z</time></trkpt><trkpt lat="42.542640938542675" lon="14.095117563989762"><ele>40.0</ele><time>2026-05-01T18:20:42.999Z</time></trkpt><trkpt lat="42.5427308077573" lon="14.095058410928122"><ele>40.0</ele><time>2026-05-01T18:20:43.999Z</time></trkpt><trkpt lat="42.54282201689506" lon="14.094996566106717"><ele>40.0</ele><time>2026-05-01T18:20:44.998Z</time></trkpt><trkpt lat="42.542911231918914" lon="14.09492995637687"><ele>40.0</ele><time>2026-05-01T18:20:45.998Z</time></trkpt><trkpt lat="42.54298697580408" lon="14.094863052489341"><ele>40.0</ele><time>2026-05-01T18:20:46.998Z</time></trkpt><trkpt lat="42.543057299426366" lon="14.094787842805625"><ele>40.2</ele><time>2026-05-01T18:20:47.998Z</time></trkpt><trkpt lat="42.54312695530793" lon="14.094698149565584"><ele>40.4</ele><time>2026-05-01T18:20:48.998Z</time></trkpt><trkpt lat="42.54320873263916" lon="14.094611931937747"><ele>40.599999999999994</ele><time>2026-05-01T18:20:49.998Z</time></trkpt><trkpt lat="42.54328317117197" lon="14.094499546072479"><ele>40.8</ele><time>2026-05-01T18:20:50.998Z</time></trkpt><trkpt lat="42.54335341874374" lon="14.094379718992396"><ele>41.0</ele><time>2026-05-01T18:20:51.998Z</time></trkpt><trkpt lat="42.54342553445185" lon="14.094253985267384"><ele>41.0</ele><time>2026-05-01T18:20:52.998Z</time></trkpt><trkpt lat="42.54350017964468" lon="14.094122258622571"><ele>41.0</ele><time>2026-05-01T18:20:53.998Z</time></trkpt><trkpt lat="42.543570705249486" lon="14.093997054587252"><ele>41.0</ele><time>2026-05-01T18:20:54.998Z</time></trkpt><trkpt lat="42.54363509028452" lon="14.093882751980926"><ele>41.0</ele><time>2026-05-01T18:20:55.998Z</time></trkpt><trkpt lat="42.543700375382286" lon="14.093772935641784"><ele>41.0</ele><time>2026-05-01T18:20:57.001Z</time></trkpt><trkpt lat="42.54375980588039" lon="14.093666866390985"><ele>41.8</ele><time>2026-05-01T18:20:58.001Z</time></trkpt><trkpt lat="42.54381346765465" lon="14.093561265618094"><ele>42.599999999999994</ele><time>2026-05-01T18:20:59.001Z</time></trkpt><trkpt lat="42.543864769105355" lon="14.093446995965635"><ele>43.4</ele><time>2026-05-01T18:21:00.001Z</time></trkpt><trkpt lat="42.54391241283624" lon="14.093320171855583"><ele>44.2</ele><time>2026-05-01T18:21:01.001Z</time></trkpt><trkpt lat="42.54392689998741" lon="14.09316824861868"><ele>45.0</ele><time>2026-05-01T18:21:02.001Z</time></trkpt><trkpt lat="42.54396365623745" lon="14.093027691527936"><ele>45.0</ele><time>2026-05-01T18:21:03.001Z</time></trkpt><trkpt lat="42.544022256153156" lon="14.092902788827555"><ele>45.0</ele><time>2026-05-01T18:21:04.001Z</time></trkpt><trkpt lat="42.54406725467014" lon="14.092777476745278"><ele>45.0</ele><time>2026-05-01T18:21:05.001Z</time></trkpt><trkpt lat="42.54411688012237" lon="14.09265293124275"><ele>45.0</ele><time>2026-05-01T18:21:06.001Z</time></trkpt><trkpt lat="42.544169835571246" lon="14.092536641756231"><ele>45.0</ele><time>2026-05-01T18:21:07.001Z</time></trkpt><trkpt lat="42.54423057831254" lon="14.09245044301799"><ele>44.8</ele><time>2026-05-01T18:21:08.001Z</time></trkpt><trkpt lat="42.544287208884" lon="14.092353633499874"><ele>44.6</ele><time>2026-05-01T18:21:09Z</time></trkpt><trkpt lat="42.54436944432727" lon="14.09227308597588"><ele>44.400000000000006</ele><time>2026-05-01T18:21:10Z</time></trkpt><trkpt lat="42.544459504503585" lon="14.092195905369"><ele>44.2</ele><time>2026-05-01T18:21:11Z</time></trkpt><trkpt lat="42.54455279548642" lon="14.09212693062092"><ele>44.0</ele><time>2026-05-01T18:21:12Z</time></trkpt><trkpt lat="42.54464911702632" lon="14.092060097921925"><ele>44.0</ele><time>2026-05-01T18:21:13Z</time></trkpt><trkpt lat="42.544748156214816" lon="14.09199664070998"><ele>44.0</ele><time>2026-05-01T18:21:14Z</time></trkpt><trkpt lat="42.544846855042714" lon="14.091937073209662"><ele>44.0</ele><time>2026-05-01T18:21:15Z</time></trkpt><trkpt lat="42.54493438467247" lon="14.091883247959805"><ele>44.0</ele><time>2026-05-01T18:21:16Z</time></trkpt><trkpt lat="42.54500403260757" lon="14.091830077878837"><ele>44.0</ele><time>2026-05-01T18:21:17Z</time></trkpt><trkpt lat="42.54506067495235" lon="14.091761582829074"><ele>44.0</ele><time>2026-05-01T18:21:18Z</time></trkpt><trkpt lat="42.54512476590577" lon="14.091699021364004"><ele>44.0</ele><time>2026-05-01T18:21:19Z</time></trkpt><trkpt lat="42.545179869497034" lon="14.091618914169072"><ele>44.0</ele><time>2026-05-01T18:21:20Z</time></trkpt><trkpt lat="42.54522724309414" lon="14.091521226172402"><ele>44.0</ele><time>2026-05-01T18:21:21Z</time></trkpt><trkpt lat="42.54527885104593" lon="14.091440843418496"><ele>44.0</ele><time>2026-05-01T18:21:22Z</time></trkpt><trkpt lat="42.545316309028195" lon="14.091348483752586"><ele>44.0</ele><time>2026-05-01T18:21:23Z</time></trkpt><trkpt lat="42.54537542126486" lon="14.091258586572176"><ele>45.0</ele><time>2026-05-01T18:21:24Z</time></trkpt><trkpt lat="42.54542522281622" lon="14.091153308674823"><ele>46.0</ele><time>2026-05-01T18:21:25Z</time></trkpt><trkpt lat="42.54548222990952" lon="14.091039125906892"><ele>47.0</ele><time>2026-05-01T18:21:26Z</time></trkpt><trkpt lat="42.54553869243171" lon="14.090918514821253"><ele>48.0</ele><time>2026-05-01T18:21:27Z</time></trkpt><trkpt lat="42.54559328232371" lon="14.090796061509215"><ele>49.0</ele><time>2026-05-01T18:21:28Z</time></trkpt><trkpt lat="42.545646894394544" lon="14.090675801793807"><ele>49.0</ele><time>2026-05-01T18:21:29Z</time></trkpt><trkpt lat="42.54570334148025" lon="14.090561444668705"><ele>49.0</ele><time>2026-05-01T18:21:30Z</time></trkpt><trkpt lat="42.54575990127627" lon="14.090447675597886"><ele>49.0</ele><time>2026-05-01T18:21:31Z</time></trkpt><trkpt lat="42.545818914676055" lon="14.090324901678096"><ele>49.0</ele><time>2026-05-01T18:21:32Z</time></trkpt><trkpt lat="42.54587126281477" lon="14.090204630293064"><ele>49.0</ele><time>2026-05-01T18:21:33Z</time></trkpt><trkpt lat="42.54592160952547" lon="14.090086357230497"><ele>49.0</ele><time>2026-05-01T18:21:34Z</time></trkpt><trkpt lat="42.54597281490483" lon="14.089968978652834"><ele>49.0</ele><time>2026-05-01T18:21:35Z</time></trkpt><trkpt lat="42.546023894267876" lon="14.08985466875666"><ele>49.0</ele><time>2026-05-01T18:21:36Z</time></trkpt><trkpt lat="42.546073121737045" lon="14.089745030814349"><ele>49.0</ele><time>2026-05-01T18:21:37Z</time></trkpt><trkpt lat="42.54612117182023" lon="14.089638252819896"><ele>49.0</ele><time>2026-05-01T18:21:38Z</time></trkpt><trkpt lat="42.54616931903649" lon="14.08953896589896"><ele>49.0</ele><time>2026-05-01T18:21:39Z</time></trkpt><trkpt lat="42.54622384653946" lon="14.089441400385741"><ele>49.0</ele><time>2026-05-01T18:21:40Z</time></trkpt><trkpt lat="42.54628767738747" lon="14.089348244859483"><ele>49.0</ele><time>2026-05-01T18:21:41Z</time></trkpt><trkpt lat="42.54634906918034" lon="14.08924139701086"><ele>49.0</ele><time>2026-05-01T18:21:42Z</time></trkpt><trkpt lat="42.54643048317409" lon="14.089152833642588"><ele>49.0</ele><time>2026-05-01T18:21:43Z</time></trkpt><trkpt lat="42.54651569221563" lon="14.089078069671578"><ele>49.0</ele><time>2026-05-01T18:21:44Z</time></trkpt><trkpt lat="42.54658559053529" lon="14.088985726542623"><ele>49.0</ele><time>2026-05-01T18:21:45Z</time></trkpt><trkpt lat="42.54665319947969" lon="14.088873480005542"><ele>49.0</ele><time>2026-05-01T18:21:46Z</time></trkpt><trkpt lat="42.546707111594536" lon="14.088745367548702"><ele>49.0</ele><time>2026-05-01T18:21:47Z</time></trkpt><trkpt lat="42.54672967960698" lon="14.088597414718128"><ele>49.0</ele><time>2026-05-01T18:21:48Z</time></trkpt><trkpt lat="42.546735496441116" lon="14.088458072101124"><ele>49.0</ele><time>2026-05-01T18:21:49Z</time></trkpt><trkpt lat="42.54674081250004" lon="14.088307785146617"><ele>49.0</ele><time>2026-05-01T18:21:50Z</time></trkpt><trkpt lat="42.54674725642001" lon="14.088152294239073"><ele>49.0</ele><time>2026-05-01T18:21:51Z</time></trkpt><trkpt lat="42.5467462665137" lon="14.087996469252015"><ele>49.0</ele><time>2026-05-01T18:21:52Z</time></trkpt><trkpt lat="42.54678412245117" lon="14.087872048404071"><ele>49.0</ele><time>2026-05-01T18:21:53Z</time></trkpt><trkpt lat="42.54681553665694" lon="14.087748056000429"><ele>48.400000000000006</ele><time>2026-05-01T18:21:54Z</time></trkpt><trkpt lat="42.54684921576111" lon="14.08764348380236"><ele>47.8</ele><time>2026-05-01T18:21:55Z</time></trkpt><trkpt lat="42.54687725015185" lon="14.087549414883435"><ele>47.2</ele><time>2026-05-01T18:21:56Z</time></trkpt><trkpt lat="42.54688972032983" lon="14.087435949885778"><ele>46.599999999999994</ele><time>2026-05-01T18:21:57Z</time></trkpt><trkpt lat="42.546929938373744" lon="14.087299671345695"><ele>46.0</ele><time>2026-05-01T18:21:58Z</time></trkpt><trkpt lat="42.546984990794606" lon="14.087148863884243"><ele>46.0</ele><time>2026-05-01T18:21:59Z</time></trkpt><trkpt lat="42.54703757265844" lon="14.087019181933004"><ele>46.0</ele><time>2026-05-01T18:22:00Z</time></trkpt><trkpt lat="42.54709464044065" lon="14.086873298571817"><ele>46.0</ele><time>2026-05-01T18:22:00.999Z</time></trkpt><trkpt lat="42.54713968814886" lon="14.08670663671621"><ele>46.0</ele><time>2026-05-01T18:22:01.999Z</time></trkpt><trkpt lat="42.54719913630631" lon="14.086573890637052"><ele>47.4</ele><time>2026-05-01T18:22:02.999Z</time></trkpt><trkpt lat="42.547255162809236" lon="14.086468976882072"><ele>48.8</ele><time>2026-05-01T18:22:03.999Z</time></trkpt><trkpt lat="42.54730561522796" lon="14.086366157375846"><ele>50.199999999999996</ele><time>2026-05-01T18:22:04.999Z</time></trkpt><trkpt lat="42.547362188052546" lon="14.086259127824942"><ele>51.599999999999994</ele><time>2026-05-01T18:22:05.999Z</time></trkpt><trkpt lat="42.54741041181722" lon="14.086179487942598"><ele>53.0</ele><time>2026-05-01T18:22:06.999Z</time></trkpt><trkpt lat="42.54749336825801" lon="14.086098297174393"><ele>53.00000000000001</ele><time>2026-05-01T18:22:08.999Z</time></trkpt><trkpt lat="42.5476162201899" lon="14.086026464486766"><ele>53.0</ele><time>2026-05-01T18:22:10.999Z</time></trkpt><trkpt lat="42.54768737308559" lon="14.086017929870982"><ele>53.0</ele><time>2026-05-01T18:22:11.999Z</time></trkpt><trkpt lat="42.54775734693277" lon="14.085996223203974"><ele>53.0</ele><time>2026-05-01T18:22:12.999Z</time></trkpt><trkpt lat="42.54783353823951" lon="14.085978542780298"><ele>53.00000000000001</ele><time>2026-05-01T18:22:13.999Z</time></trkpt><trkpt lat="42.54790082291707" lon="14.085977322704734"><ele>53.0</ele><time>2026-05-01T18:22:14.999Z</time></trkpt><trkpt lat="42.54799945208266" lon="14.085966825632864"><ele>54.50000000000001</ele><time>2026-05-01T18:22:16.999Z</time></trkpt><trkpt lat="42.548097091556116" lon="14.085882117261137"><ele>56.0</ele><time>2026-05-01T18:22:18.999Z</time></trkpt><trkpt lat="42.5481554344005" lon="14.085808976246255"><ele>57.5</ele><time>2026-05-01T18:22:19.999Z</time></trkpt><trkpt lat="42.54823004179117" lon="14.085750076419062"><ele>59.0</ele><time>2026-05-01T18:22:20.999Z</time></trkpt><trkpt lat="42.54830928999457" lon="14.085714919340552"><ele>60.50000000000001</ele><time>2026-05-01T18:22:21.999Z</time></trkpt><trkpt lat="42.54837065545558" lon="14.085648644830181"><ele>62.0</ele><time>2026-05-01T18:22:22.999Z</time></trkpt><trkpt lat="42.54843830064345" lon="14.085602216915948"><ele>62.00000000000001</ele><time>2026-05-01T18:22:23.999Z</time></trkpt><trkpt lat="42.54854707723481" lon="14.085568866755805"><ele>62.0</ele><time>2026-05-01T18:22:25.999Z</time></trkpt><trkpt lat="42.54861402773373" lon="14.085671769218028"><ele>62.0</ele><time>2026-05-01T18:22:27.999Z</time></trkpt><trkpt lat="42.548608097119875" lon="14.085770752006413"><ele>62.0</ele><time>2026-05-01T18:22:28.999Z</time></trkpt><trkpt lat="42.54863667657111" lon="14.085856658744776"><ele>62.00000000000001</ele><time>2026-05-01T18:22:29.999Z</time></trkpt><trkpt lat="42.548639877359065" lon="14.085952682538556"><ele>62.0</ele><time>2026-05-01T18:22:30.999Z</time></trkpt><trkpt lat="42.54866718048643" lon="14.086053928743942"><ele>63.833333333333336</ele><time>2026-05-01T18:22:31.999Z</time></trkpt><trkpt lat="42.54870397501324" lon="14.086150756516675"><ele>65.66666666666667</ele><time>2026-05-01T18:22:32.999Z</time></trkpt><trkpt lat="42.54875107153916" lon="14.086261081826741"><ele>67.5</ele><time>2026-05-01T18:22:34.999Z</time></trkpt><trkpt lat="42.54882007752056" lon="14.086234154459492"><ele>69.33333333333333</ele><time>2026-05-01T18:22:36.999Z</time></trkpt><trkpt lat="42.54888894926351" lon="14.08612431158449"><ele>71.16666666666666</ele><time>2026-05-01T18:22:38.999Z</time></trkpt><trkpt lat="42.54893829934586" lon="14.086069932450652"><ele>73.0</ele><time>2026-05-01T18:22:39.999Z</time></trkpt><trkpt lat="42.548984090101115" lon="14.085998713569893"><ele>73.66666666666666</ele><time>2026-05-01T18:22:40.999Z</time></trkpt><trkpt lat="42.549031751948206" lon="14.085925863201183"><ele>74.33333333333333</ele><time>2026-05-01T18:22:41.999Z</time></trkpt><trkpt lat="42.5490858196522" lon="14.085861153032559"><ele>75.0</ele><time>2026-05-01T18:22:42.999Z</time></trkpt><trkpt lat="42.54915050257796" lon="14.085800058855984"><ele>75.66666666666667</ele><time>2026-05-01T18:22:43.999Z</time></trkpt><trkpt lat="42.54922121952502" lon="14.085744303889971"><ele>76.33333333333334</ele><time>2026-05-01T18:22:44.999Z</time></trkpt><trkpt lat="42.549293931208595" lon="14.085694826891853"><ele>77.0</ele><time>2026-05-01T18:22:45.999Z</time></trkpt><trkpt lat="42.54937260189296" lon="14.085654798262702"><ele>77.0</ele><time>2026-05-01T18:22:46.999Z</time></trkpt><trkpt lat="42.549448385918566" lon="14.085622774711318"><ele>77.0</ele><time>2026-05-01T18:22:47.999Z</time></trkpt><trkpt lat="42.549533219263246" lon="14.085590035822104"><ele>77.0</ele><time>2026-05-01T18:22:48.999Z</time></trkpt><trkpt lat="42.54961398043493" lon="14.085560312972257"><ele>77.0</ele><time>2026-05-01T18:22:49.999Z</time></trkpt><trkpt lat="42.54968705770117" lon="14.0855136453736"><ele>77.0</ele><time>2026-05-01T18:22:50.999Z</time></trkpt><trkpt lat="42.54975204539718" lon="14.085516706296701"><ele>77.0</ele><time>2026-05-01T18:22:51.998Z</time></trkpt><trkpt lat="42.54982701338739" lon="14.085516713975213"><ele>79.0</ele><time>2026-05-01T18:22:53.998Z</time></trkpt><trkpt lat="42.5498483234383" lon="14.085599521095846"><ele>81.0</ele><time>2026-05-01T18:22:55.998Z</time></trkpt><trkpt lat="42.54979817445639" lon="14.08568098640606"><ele>83.0</ele><time>2026-05-01T18:22:56.998Z</time></trkpt><trkpt lat="42.54978849777346" lon="14.085793132766916"><ele>85.0</ele><time>2026-05-01T18:22:57.998Z</time></trkpt><trkpt lat="42.54979293939769" lon="14.085891711917302"><ele>87.0</ele><time>2026-05-01T18:22:58.998Z</time></trkpt><trkpt lat="42.549835475752936" lon="14.08597932720971"><ele>89.0</ele><time>2026-05-01T18:22:59.998Z</time></trkpt><trkpt lat="42.549857544137694" lon="14.08606981871183"><ele>91.0</ele><time>2026-05-01T18:23:00.998Z</time></trkpt><trkpt lat="42.549883904107126" lon="14.086161862131837"><ele>94.0</ele><time>2026-05-01T18:23:02.001Z</time></trkpt><trkpt lat="42.549922112668" lon="14.086248338678951"><ele>97.0</ele><time>2026-05-01T18:23:03.001Z</time></trkpt><trkpt lat="42.54996071688932" lon="14.086342185979458"><ele>100.0</ele><time>2026-05-01T18:23:04.001Z</time></trkpt><trkpt lat="42.54998286687063" lon="14.086446603099036"><ele>103.0</ele><time>2026-05-01T18:23:05.001Z</time></trkpt><trkpt lat="42.54999649610243" lon="14.086554334273389"><ele>106.00000000000001</ele><time>2026-05-01T18:23:06.001Z</time></trkpt><trkpt lat="42.55000694670299" lon="14.086668674904143"><ele>109.0</ele><time>2026-05-01T18:23:07.001Z</time></trkpt><trkpt lat="42.550020499511014" lon="14.086788784938431"><ele>109.50000000000001</ele><time>2026-05-01T18:23:08.001Z</time></trkpt><trkpt lat="42.5500362585055" lon="14.086910268950538"><ele>110.0</ele><time>2026-05-01T18:23:09.001Z</time></trkpt><trkpt lat="42.550047616696105" lon="14.08700769411521"><ele>110.5</ele><time>2026-05-01T18:23:10.001Z</time></trkpt><trkpt lat="42.55005827114417" lon="14.087103946907613"><ele>111.0</ele><time>2026-05-01T18:23:11.001Z</time></trkpt><trkpt lat="42.550069188082006" lon="14.08720046808862"><ele>111.50000000000001</ele><time>2026-05-01T18:23:12.001Z</time></trkpt><trkpt lat="42.55008601711103" lon="14.087303536707216"><ele>112.0</ele><time>2026-05-01T18:23:13.001Z</time></trkpt><trkpt lat="42.55011684161747" lon="14.087393594879218"><ele>112.33333333333334</ele><time>2026-05-01T18:23:14.001Z</time></trkpt><trkpt lat="42.55015835394671" lon="14.087464405654078"><ele>112.66666666666667</ele><time>2026-05-01T18:23:15.001Z</time></trkpt><trkpt lat="42.5502124370641" lon="14.087527842495842"><ele>113.0</ele><time>2026-05-01T18:23:16.001Z</time></trkpt><trkpt lat="42.55027948986074" lon="14.087599176415043"><ele>113.33333333333334</ele><time>2026-05-01T18:23:17.001Z</time></trkpt><trkpt lat="42.550352702289324" lon="14.087670187485514"><ele>113.66666666666667</ele><time>2026-05-01T18:23:18Z</time></trkpt><trkpt lat="42.55042083476696" lon="14.087721969331303"><ele>114.0</ele><time>2026-05-01T18:23:19Z</time></trkpt><trkpt lat="42.55054238454707" lon="14.087731806732132"><ele>117.6</ele><time>2026-05-01T18:23:21Z</time></trkpt><trkpt lat="42.55065726098498" lon="14.087662127412335"><ele>121.2</ele><time>2026-05-01T18:23:23Z</time></trkpt><trkpt lat="42.55071793091279" lon="14.087594588592557"><ele>124.79999999999998</ele><time>2026-05-01T18:23:24Z</time></trkpt><trkpt lat="42.550784922867834" lon="14.087522889301143"><ele>128.4</ele><time>2026-05-01T18:23:25Z</time></trkpt><trkpt lat="42.55085665304726" lon="14.087445122382684"><ele>132.0</ele><time>2026-05-01T18:23:26Z</time></trkpt><trkpt lat="42.55093021270419" lon="14.08737050055508"><ele>132.0</ele><time>2026-05-01T18:23:27Z</time></trkpt><trkpt lat="42.55100394701455" lon="14.087299268011598"><ele>132.0</ele><time>2026-05-01T18:23:28Z</time></trkpt><trkpt lat="42.55108528715531" lon="14.08722247764609"><ele>132.0</ele><time>2026-05-01T18:23:29Z</time></trkpt><trkpt lat="42.55116617834736" lon="14.087148841943197"><ele>132.0</ele><time>2026-05-01T18:23:30Z</time></trkpt><trkpt lat="42.55124400138676" lon="14.087078652394531"><ele>132.0</ele><time>2026-05-01T18:23:31Z</time></trkpt><trkpt lat="42.55132423253128" lon="14.087008692394365"><ele>136.2</ele><time>2026-05-01T18:23:32Z</time></trkpt><trkpt lat="42.551401529180545" lon="14.086941565261577"><ele>140.39999999999998</ele><time>2026-05-01T18:23:33Z</time></trkpt><trkpt lat="42.55148162133651" lon="14.086872587122139"><ele>144.60000000000002</ele><time>2026-05-01T18:23:34Z</time></trkpt><trkpt lat="42.55155568616069" lon="14.086808799958318"><ele>148.8</ele><time>2026-05-01T18:23:35Z</time></trkpt><trkpt lat="42.5516314598751" lon="14.08674123836829"><ele>153.0</ele><time>2026-05-01T18:23:36Z</time></trkpt><trkpt lat="42.55170537013721" lon="14.086674364524459"><ele>153.0</ele><time>2026-05-01T18:23:37Z</time></trkpt><trkpt lat="42.5517822638699" lon="14.086602185072323"><ele>153.0</ele><time>2026-05-01T18:23:38Z</time></trkpt><trkpt lat="42.551853402739525" lon="14.086535169166101"><ele>153.0</ele><time>2026-05-01T18:23:39Z</time></trkpt><trkpt lat="42.55193175114035" lon="14.086460704452735"><ele>153.0</ele><time>2026-05-01T18:23:40Z</time></trkpt><trkpt lat="42.552004054910796" lon="14.086389544042289"><ele>153.0</ele><time>2026-05-01T18:23:41Z</time></trkpt><trkpt lat="42.552082903210604" lon="14.08631281133582"><ele>156.4</ele><time>2026-05-01T18:23:42Z</time></trkpt><trkpt lat="42.55214884183201" lon="14.086227578372048"><ele>159.8</ele><time>2026-05-01T18:23:43Z</time></trkpt><trkpt lat="42.55223269260066" lon="14.086164354717514"><ele>163.2</ele><time>2026-05-01T18:23:44Z</time></trkpt><trkpt lat="42.55230760580563" lon="14.086094923231526"><ele>166.6</ele><time>2026-05-01T18:23:45Z</time></trkpt><trkpt lat="42.55240121853165" lon="14.086025993713859"><ele>170.0</ele><time>2026-05-01T18:23:46Z</time></trkpt><trkpt lat="42.552478783135676" lon="14.085960134613732"><ele>170.0</ele><time>2026-05-01T18:23:47Z</time></trkpt><trkpt lat="42.552567325069255" lon="14.085917704853015"><ele>170.0</ele><time>2026-05-01T18:23:49Z</time></trkpt><trkpt lat="42.55263787124666" lon="14.085996504308776"><ele>170.0</ele><time>2026-05-01T18:23:52Z</time></trkpt><trkpt lat="42.552609704282936" lon="14.086074769850978"><ele>170.0</ele><time>2026-05-01T18:23:53Z</time></trkpt><trkpt lat="42.55257856461588" lon="14.08615010646249"><ele>170.0</ele><time>2026-05-01T18:23:54Z</time></trkpt><trkpt lat="42.55256287709897" lon="14.086242038681199"><ele>170.0</ele><time>2026-05-01T18:23:55Z</time></trkpt><trkpt lat="42.552575575897755" lon="14.08635239206307"><ele>170.0</ele><time>2026-05-01T18:23:57Z</time></trkpt><trkpt lat="42.552652955714656" lon="14.086371594435368"><ele>170.0</ele><time>2026-05-01T18:23:59Z</time></trkpt><trkpt lat="42.552692922667646" lon="14.08629923809401"><ele>170.0</ele><time>2026-05-01T18:24:00Z</time></trkpt><trkpt lat="42.55273568893101" lon="14.08621977618637"><ele>170.0</ele><time>2026-05-01T18:24:01Z</time></trkpt><trkpt lat="42.552802806755246" lon="14.086150103773102"><ele>170.0</ele><time>2026-05-01T18:24:02Z</time></trkpt><trkpt lat="42.55286571782245" lon="14.086080287634681"><ele>170.0</ele><time>2026-05-01T18:24:03Z</time></trkpt><trkpt lat="42.55293319498668" lon="14.085986286142361"><ele>175.16666666666666</ele><time>2026-05-01T18:24:04Z</time></trkpt><trkpt lat="42.55301576827449" lon="14.085911370762297"><ele>180.33333333333331</ele><time>2026-05-01T18:24:05Z</time></trkpt><trkpt lat="42.55309293365273" lon="14.085841751460585"><ele>185.5</ele><time>2026-05-01T18:24:05.999Z</time></trkpt><trkpt lat="42.553149297553354" lon="14.085799749533331"><ele>190.66666666666666</ele><time>2026-05-01T18:24:06.999Z</time></trkpt><trkpt lat="42.55321929446048" lon="14.085795700115268"><ele>195.83333333333334</ele><time>2026-05-01T18:24:08.999Z</time></trkpt><trkpt lat="42.553255507392464" lon="14.085893206976763"><ele>201.0</ele><time>2026-05-01T18:24:10.999Z</time></trkpt><trkpt lat="42.5532360995868" lon="14.085974629621207"><ele>201.0</ele><time>2026-05-01T18:24:11.999Z</time></trkpt><trkpt lat="42.55327696668206" lon="14.086073567640264"><ele>201.0</ele><time>2026-05-01T18:24:13.999Z</time></trkpt><trkpt lat="42.55332618136547" lon="14.085959726448959"><ele>201.0</ele><time>2026-05-01T18:24:19.999Z</time></trkpt><trkpt lat="42.55332548660814" lon="14.085862749777482"><ele>201.0</ele><time>2026-05-01T18:24:20.999Z</time></trkpt><trkpt lat="42.5533670234199" lon="14.085774590358197"><ele>201.0</ele><time>2026-05-01T18:24:21.999Z</time></trkpt><trkpt lat="42.55339965584905" lon="14.085679427601535"><ele>201.0</ele><time>2026-05-01T18:24:22.999Z</time></trkpt><trkpt lat="42.553443529983774" lon="14.085592611008911"><ele>198.83333333333334</ele><time>2026-05-01T18:24:23.999Z</time></trkpt><trkpt lat="42.55347401818885" lon="14.0854986403518"><ele>196.66666666666666</ele><time>2026-05-01T18:24:24.999Z</time></trkpt><trkpt lat="42.553509339769874" lon="14.08541447056954"><ele>194.5</ele><time>2026-05-01T18:24:25.999Z</time></trkpt><trkpt lat="42.55353768013951" lon="14.085328795412208"><ele>192.33333333333331</ele><time>2026-05-01T18:24:26.999Z</time></trkpt><trkpt lat="42.55356206545595" lon="14.085223559377038"><ele>190.16666666666666</ele><time>2026-05-01T18:24:27.999Z</time></trkpt><trkpt lat="42.55358610513838" lon="14.085103410921098"><ele>188.0</ele><time>2026-05-01T18:24:28.999Z</time></trkpt><trkpt lat="42.55360550163776" lon="14.084987034713437"><ele>186.16666666666666</ele><time>2026-05-01T18:24:29.999Z</time></trkpt><trkpt lat="42.55362121302783" lon="14.084874305001362"><ele>184.33333333333331</ele><time>2026-05-01T18:24:30.999Z</time></trkpt><trkpt lat="42.553635171167315" lon="14.08476035115537"><ele>182.5</ele><time>2026-05-01T18:24:31.999Z</time></trkpt><trkpt lat="42.553652109520144" lon="14.084641558017257"><ele>180.66666666666666</ele><time>2026-05-01T18:24:32.999Z</time></trkpt><trkpt lat="42.55367065358964" lon="14.084523628530809"><ele>178.83333333333334</ele><time>2026-05-01T18:24:33.999Z</time></trkpt><trkpt lat="42.55369024508901" lon="14.084394002585874"><ele>177.0</ele><time>2026-05-01T18:24:34.999Z</time></trkpt><trkpt lat="42.553695575746524" lon="14.084246285242976"><ele>182.6</ele><time>2026-05-01T18:24:35.999Z</time></trkpt><trkpt lat="42.55370923686671" lon="14.08408908636984"><ele>188.2</ele><time>2026-05-01T18:24:36.999Z</time></trkpt><trkpt lat="42.55370788616231" lon="14.083929635166676"><ele>193.8</ele><time>2026-05-01T18:24:37.999Z</time></trkpt><trkpt lat="42.553706503710124" lon="14.08378122168603"><ele>199.4</ele><time>2026-05-01T18:24:38.999Z</time></trkpt><trkpt lat="42.55370597330608" lon="14.083644486352187"><ele>205.0</ele><time>2026-05-01T18:24:39.999Z</time></trkpt><trkpt lat="42.55370731914797" lon="14.0835217457053"><ele>204.99999999999997</ele><time>2026-05-01T18:24:40.999Z</time></trkpt><trkpt lat="42.55370956963357" lon="14.083393736909567"><ele>205.0</ele><time>2026-05-01T18:24:41.998Z</time></trkpt><trkpt lat="42.55371854426794" lon="14.083281302301856"><ele>205.0</ele><time>2026-05-01T18:24:42.998Z</time></trkpt><trkpt lat="42.553737442036606" lon="14.08316576761167"><ele>205.0</ele><time>2026-05-01T18:24:43.998Z</time></trkpt><trkpt lat="42.553767646368016" lon="14.083058135664157"><ele>204.99999999999997</ele><time>2026-05-01T18:24:44.998Z</time></trkpt><trkpt lat="42.55381184198467" lon="14.082959598370696"><ele>205.0</ele><time>2026-05-01T18:24:45.998Z</time></trkpt><trkpt lat="42.55386966970846" lon="14.082873957323153"><ele>201.0</ele><time>2026-05-01T18:24:46.998Z</time></trkpt><trkpt lat="42.55393190078447" lon="14.082791785037037"><ele>197.0</ele><time>2026-05-01T18:24:47.998Z</time></trkpt><trkpt lat="42.55399520374961" lon="14.08270170512094"><ele>193.0</ele><time>2026-05-01T18:24:48.998Z</time></trkpt><trkpt lat="42.554081577151884" lon="14.08262866049213"><ele>189.0</ele><time>2026-05-01T18:24:49.998Z</time></trkpt><trkpt lat="42.554196206063544" lon="14.082572481723197"><ele>185.0</ele><time>2026-05-01T18:24:50.998Z</time></trkpt><trkpt lat="42.554292104126475" lon="14.082469889374932"><ele>186.8</ele><time>2026-05-01T18:24:51.998Z</time></trkpt><trkpt lat="42.554395125215734" lon="14.082387033116664"><ele>188.6</ele><time>2026-05-01T18:24:52.998Z</time></trkpt><trkpt lat="42.554487153532804" lon="14.08229520562298"><ele>190.39999999999998</ele><time>2026-05-01T18:24:53.998Z</time></trkpt><trkpt lat="42.554575286450934" lon="14.082203778116206"><ele>192.2</ele><time>2026-05-01T18:24:54.997Z</time></trkpt><trkpt lat="42.554659581740694" lon="14.082130665794903"><ele>194.0</ele><time>2026-05-01T18:24:55.997Z</time></trkpt><trkpt lat="42.55473792527361" lon="14.082083962613762"><ele>194.00000000000003</ele><time>2026-05-01T18:24:56.997Z</time></trkpt><trkpt lat="42.554814972121235" lon="14.082040126781974"><ele>194.0</ele><time>2026-05-01T18:24:57.997Z</time></trkpt><trkpt lat="42.55488078931062" lon="14.081978117111499"><ele>194.0</ele><time>2026-05-01T18:24:58.997Z</time></trkpt><trkpt lat="42.55495575338276" lon="14.081925798022498"><ele>194.0</ele><time>2026-05-01T18:24:59.997Z</time></trkpt><trkpt lat="42.555013961781995" lon="14.08184336463297"><ele>194.00000000000003</ele><time>2026-05-01T18:25:00.997Z</time></trkpt><trkpt lat="42.55505572093163" lon="14.081751977027979"><ele>194.0</ele><time>2026-05-01T18:25:01.997Z</time></trkpt><trkpt lat="42.555082672241596" lon="14.081645703982135"><ele>192.79999999999998</ele><time>2026-05-01T18:25:02.997Z</time></trkpt><trkpt lat="42.55509386074695" lon="14.081532745825486"><ele>191.6</ele><time>2026-05-01T18:25:03.997Z</time></trkpt><trkpt lat="42.555058125113135" lon="14.081401269775613"><ele>190.4</ele><time>2026-05-01T18:25:04.997Z</time></trkpt><trkpt lat="42.55501087062865" lon="14.08129556989144"><ele>189.2</ele><time>2026-05-01T18:25:05.997Z</time></trkpt><trkpt lat="42.55497721501901" lon="14.081173105019035"><ele>188.0</ele><time>2026-05-01T18:25:06.997Z</time></trkpt><trkpt lat="42.5549527799078" lon="14.081048290476739"><ele>188.0</ele><time>2026-05-01T18:25:08Z</time></trkpt><trkpt lat="42.55495892081202" lon="14.080915990655594"><ele>188.0</ele><time>2026-05-01T18:25:09Z</time></trkpt><trkpt lat="42.55495214204368" lon="14.080791801918698"><ele>188.0</ele><time>2026-05-01T18:25:10Z</time></trkpt><trkpt lat="42.55492400251698" lon="14.08067717459989"><ele>188.0</ele><time>2026-05-01T18:25:11Z</time></trkpt><trkpt lat="42.55491336181036" lon="14.08055942567661"><ele>188.0</ele><time>2026-05-01T18:25:12Z</time></trkpt><trkpt lat="42.55485602158087" lon="14.08043797212046"><ele>188.25</ele><time>2026-05-01T18:25:13Z</time></trkpt><trkpt lat="42.55478674802636" lon="14.08030833605156"><ele>188.5</ele><time>2026-05-01T18:25:14Z</time></trkpt><trkpt lat="42.55471480650333" lon="14.080181211218981"><ele>188.75</ele><time>2026-05-01T18:25:15Z</time></trkpt><trkpt lat="42.55464373314554" lon="14.08006240254131"><ele>189.0</ele><time>2026-05-01T18:25:16Z</time></trkpt><trkpt lat="42.55457350760609" lon="14.079946347635968"><ele>185.39999999999998</ele><time>2026-05-01T18:25:17Z</time></trkpt><trkpt lat="42.554501852039735" lon="14.07983101055523"><ele>181.8</ele><time>2026-05-01T18:25:18Z</time></trkpt><trkpt lat="42.55444133299109" lon="14.07971974598035"><ele>178.2</ele><time>2026-05-01T18:25:19Z</time></trkpt><trkpt lat="42.55438778909834" lon="14.079602555427359"><ele>174.60000000000002</ele><time>2026-05-01T18:25:20Z</time></trkpt><trkpt lat="42.5543395325546" lon="14.07948218457997"><ele>171.0</ele><time>2026-05-01T18:25:21Z</time></trkpt><trkpt lat="42.55427278069657" lon="14.079380415225392"><ele>171.0</ele><time>2026-05-01T18:25:22Z</time></trkpt><trkpt lat="42.55424680229641" lon="14.079258103454064"><ele>171.0</ele><time>2026-05-01T18:25:23Z</time></trkpt><trkpt lat="42.554234214074725" lon="14.079130586404546"><ele>171.0</ele><time>2026-05-01T18:25:23.999Z</time></trkpt><trkpt lat="42.55423231417097" lon="14.079000756064374"><ele>171.0</ele><time>2026-05-01T18:25:24.999Z</time></trkpt><trkpt lat="42.55427132858289" lon="14.078871566795097"><ele>171.0</ele><time>2026-05-01T18:25:25.999Z</time></trkpt><trkpt lat="42.55428448967945" lon="14.078745037621216"><ele>169.8</ele><time>2026-05-01T18:25:26.999Z</time></trkpt><trkpt lat="42.554303418803" lon="14.07862897898749"><ele>168.60000000000002</ele><time>2026-05-01T18:25:27.999Z</time></trkpt><trkpt lat="42.55432483263606" lon="14.07851264914627"><ele>167.4</ele><time>2026-05-01T18:25:28.999Z</time></trkpt><trkpt lat="42.55433955152839" lon="14.078381947310582"><ele>166.2</ele><time>2026-05-01T18:25:29.999Z</time></trkpt><trkpt lat="42.554348886366746" lon="14.078226417037168"><ele>165.0</ele><time>2026-05-01T18:25:30.999Z</time></trkpt><trkpt lat="42.55434887919158" lon="14.078040820764473"><ele>163.5</ele><time>2026-05-01T18:25:31.999Z</time></trkpt><trkpt lat="42.554338401108886" lon="14.077844477836068"><ele>162.0</ele><time>2026-05-01T18:25:32.999Z</time></trkpt><trkpt lat="42.554320003676025" lon="14.077663394241542"><ele>160.5</ele><time>2026-05-01T18:25:33.999Z</time></trkpt><trkpt lat="42.5542951543262" lon="14.077493381026793"><ele>159.0</ele><time>2026-05-01T18:25:34.999Z</time></trkpt><trkpt lat="42.55427362635918" lon="14.07734444919925"><ele>159.0</ele><time>2026-05-01T18:25:35.999Z</time></trkpt><trkpt lat="42.554253946706616" lon="14.077190993623818"><ele>159.0</ele><time>2026-05-01T18:25:36.999Z</time></trkpt><trkpt lat="42.55423916271931" lon="14.077040631577763"><ele>159.0</ele><time>2026-05-01T18:25:37.999Z</time></trkpt><trkpt lat="42.55421990278533" lon="14.076879781932469"><ele>159.0</ele><time>2026-05-01T18:25:38.999Z</time></trkpt><trkpt lat="42.55418192470769" lon="14.076706866692446"><ele>159.75</ele><time>2026-05-01T18:25:39.999Z</time></trkpt><trkpt lat="42.55414226949024" lon="14.076534814505548"><ele>160.5</ele><time>2026-05-01T18:25:40.999Z</time></trkpt><trkpt lat="42.55410455654776" lon="14.07636905620506"><ele>161.25</ele><time>2026-05-01T18:25:41.999Z</time></trkpt><trkpt lat="42.554051976084054" lon="14.076229126073173"><ele>162.0</ele><time>2026-05-01T18:25:42.999Z</time></trkpt><trkpt lat="42.55401759516673" lon="14.076074903324308"><ele>162.0</ele><time>2026-05-01T18:25:43.999Z</time></trkpt><trkpt lat="42.55398767972234" lon="14.075924458129169"><ele>162.0</ele><time>2026-05-01T18:25:44.999Z</time></trkpt><trkpt lat="42.55397974450211" lon="14.075782809463607"><ele>162.0</ele><time>2026-05-01T18:25:45.999Z</time></trkpt><trkpt lat="42.55393542249472" lon="14.075670106261061"><ele>162.0</ele><time>2026-05-01T18:25:46.999Z</time></trkpt><trkpt lat="42.553893001059286" lon="14.07557406978794"><ele>162.0</ele><time>2026-05-01T18:25:47.999Z</time></trkpt><trkpt lat="42.55385491830178" lon="14.075483275480975"><ele>162.42857142857144</ele><time>2026-05-01T18:25:48.999Z</time></trkpt><trkpt lat="42.55379443098042" lon="14.075425222054754"><ele>162.85714285714286</ele><time>2026-05-01T18:25:49.999Z</time></trkpt><trkpt lat="42.55373163018184" lon="14.075393185843573"><ele>163.28571428571428</ele><time>2026-05-01T18:25:50.999Z</time></trkpt><trkpt lat="42.55366326379851" lon="14.075413754904623"><ele>163.71428571428572</ele><time>2026-05-01T18:25:51.999Z</time></trkpt><trkpt lat="42.55360079033284" lon="14.075465291815403"><ele>164.14285714285714</ele><time>2026-05-01T18:25:52.999Z</time></trkpt><trkpt lat="42.5535461499223" lon="14.075543581216422"><ele>164.57142857142858</ele><time>2026-05-01T18:25:53.999Z</time></trkpt><trkpt lat="42.553495205461935" lon="14.07561659684914"><ele>165.0</ele><time>2026-05-01T18:25:54.999Z</time></trkpt><trkpt lat="42.553455541055655" lon="14.075710658096721"><ele>161.0</ele><time>2026-05-01T18:25:55.999Z</time></trkpt><trkpt lat="42.55341711082744" lon="14.075792285650195"><ele>157.0</ele><time>2026-05-01T18:25:56.999Z</time></trkpt><trkpt lat="42.55337946650364" lon="14.075872242541285"><ele>153.0</ele><time>2026-05-01T18:25:57.999Z</time></trkpt><trkpt lat="42.55330409943609" lon="14.075893924308444"><ele>149.0</ele><time>2026-05-01T18:25:59.999Z</time></trkpt><trkpt lat="42.55325882975223" lon="14.075828591533858"><ele>145.0</ele><time>2026-05-01T18:26:01.999Z</time></trkpt><trkpt lat="42.55324912238331" lon="14.075699571190624"><ele>141.0</ele><time>2026-05-01T18:26:03.999Z</time></trkpt><trkpt lat="42.553257147310966" lon="14.075601560939248"><ele>141.0</ele><time>2026-05-01T18:26:04.999Z</time></trkpt><trkpt lat="42.553272753285974" lon="14.075501164326441"><ele>141.0</ele><time>2026-05-01T18:26:05.999Z</time></trkpt><trkpt lat="42.55329000927894" lon="14.075402445100401"><ele>141.0</ele><time>2026-05-01T18:26:06.999Z</time></trkpt><trkpt lat="42.553311338716824" lon="14.07524771736756"><ele>141.0</ele><time>2026-05-01T18:26:08.999Z</time></trkpt><trkpt lat="42.55327783303828" lon="14.075054618885314"><ele>141.0</ele><time>2026-05-01T18:26:10.999Z</time></trkpt><trkpt lat="42.55317556188485" lon="14.074999678373285"><ele>141.4</ele><time>2026-05-01T18:26:11.999Z</time></trkpt><trkpt lat="42.55310535432582" lon="14.074911128181874"><ele>141.8</ele><time>2026-05-01T18:26:12.999Z</time></trkpt><trkpt lat="42.553027826191794" lon="14.074829816476218"><ele>142.20000000000002</ele><time>2026-05-01T18:26:13.998Z</time></trkpt><trkpt lat="42.5529597211792" lon="14.074756818267149"><ele>142.6</ele><time>2026-05-01T18:26:14.998Z</time></trkpt><trkpt lat="42.55289517457332" lon="14.074715355408635"><ele>143.0</ele><time>2026-05-01T18:26:15.998Z</time></trkpt><trkpt lat="42.55281248234685" lon="14.074627260248468"><ele>139.16666666666666</ele><time>2026-05-01T18:26:17.998Z</time></trkpt><trkpt lat="42.55274743258915" lon="14.07461459303367"><ele>135.33333333333331</ele><time>2026-05-01T18:26:18.998Z</time></trkpt><trkpt lat="42.55268440090543" lon="14.07466929271198"><ele>131.5</ele><time>2026-05-01T18:26:19.998Z</time></trkpt><trkpt lat="42.55265436619286" lon="14.074751621979859"><ele>127.66666666666666</ele><time>2026-05-01T18:26:20.998Z</time></trkpt><trkpt lat="42.55266252044807" lon="14.074842898035254"><ele>123.83333333333333</ele><time>2026-05-01T18:26:21.998Z</time></trkpt><trkpt lat="42.552686886258186" lon="14.074993019476778"><ele>120.0</ele><time>2026-05-01T18:26:23.998Z</time></trkpt><trkpt lat="42.55271960296646" lon="14.075151002675296"><ele>119.6</ele><time>2026-05-01T18:26:25.998Z</time></trkpt><trkpt lat="42.55266653013933" lon="14.075273473558765"><ele>119.2</ele><time>2026-05-01T18:26:27.998Z</time></trkpt><trkpt lat="42.55259821867586" lon="14.075275661377981"><ele>118.80000000000001</ele><time>2026-05-01T18:26:28.998Z</time></trkpt><trkpt lat="42.55248021560224" lon="14.075266475822872"><ele>118.4</ele><time>2026-05-01T18:26:30.998Z</time></trkpt><trkpt lat="42.552377882451594" lon="14.075206066374001"><ele>118.0</ele><time>2026-05-01T18:26:32.998Z</time></trkpt><trkpt lat="42.55232888287418" lon="14.075141231134916"><ele>118.00000000000001</ele><time>2026-05-01T18:26:33.998Z</time></trkpt><trkpt lat="42.55227771657234" lon="14.075074889666688"><ele>118.0</ele><time>2026-05-01T18:26:34.998Z</time></trkpt><trkpt lat="42.55222879603053" lon="14.075011526754178"><ele>118.0</ele><time>2026-05-01T18:26:35.998Z</time></trkpt><trkpt lat="42.55216753614782" lon="14.074937263661853"><ele>118.0</ele><time>2026-05-01T18:26:37.998Z</time></trkpt><trkpt lat="42.5521868805213" lon="14.074796449307112"><ele>118.00000000000001</ele><time>2026-05-01T18:26:39.998Z</time></trkpt><trkpt lat="42.552240710669196" lon="14.07470409065733"><ele>118.0</ele><time>2026-05-01T18:26:40.998Z</time></trkpt><trkpt lat="42.55226260364396" lon="14.07457454100194"><ele>118.33333333333334</ele><time>2026-05-01T18:26:41.998Z</time></trkpt><trkpt lat="42.552260107942026" lon="14.074432456142386"><ele>118.66666666666667</ele><time>2026-05-01T18:26:42.998Z</time></trkpt><trkpt lat="42.55228641982756" lon="14.074314131482678"><ele>119.0</ele><time>2026-05-01T18:26:43.998Z</time></trkpt><trkpt lat="42.55229628340768" lon="14.074211552020124"><ele>119.33333333333334</ele><time>2026-05-01T18:26:44.998Z</time></trkpt><trkpt lat="42.55227828324796" lon="14.074115262577475"><ele>119.66666666666667</ele><time>2026-05-01T18:26:45.998Z</time></trkpt><trkpt lat="42.55223487856498" lon="14.07402521343779"><ele>120.0</ele><time>2026-05-01T18:26:46.998Z</time></trkpt><trkpt lat="42.55216420459223" lon="14.073955930719443"><ele>121.2</ele><time>2026-05-01T18:26:47.998Z</time></trkpt><trkpt lat="42.55210540182632" lon="14.073852707186218"><ele>122.4</ele><time>2026-05-01T18:26:48.998Z</time></trkpt><trkpt lat="42.55202947354997" lon="14.073743399336472"><ele>123.6</ele><time>2026-05-01T18:26:49.998Z</time></trkpt><trkpt lat="42.551969024042165" lon="14.07362855161086"><ele>124.8</ele><time>2026-05-01T18:26:50.998Z</time></trkpt><trkpt lat="42.55193399590223" lon="14.073524201722586"><ele>126.0</ele><time>2026-05-01T18:26:51.998Z</time></trkpt><trkpt lat="42.55193561781367" lon="14.07342685313788"><ele>126.8</ele><time>2026-05-01T18:26:52.998Z</time></trkpt><trkpt lat="42.55195891492998" lon="14.073248668777508"><ele>127.6</ele><time>2026-05-01T18:26:54.998Z</time></trkpt><trkpt lat="42.55201549997076" lon="14.073166231860375"><ele>128.4</ele><time>2026-05-01T18:26:55.998Z</time></trkpt><trkpt lat="42.55205320127085" lon="14.073066916585852"><ele>129.2</ele><time>2026-05-01T18:26:56.998Z</time></trkpt><trkpt lat="42.552095133531985" lon="14.072956455695772"><ele>130.0</ele><time>2026-05-01T18:26:57.998Z</time></trkpt><trkpt lat="42.552138745269694" lon="14.072839252576083"><ele>130.0</ele><time>2026-05-01T18:26:58.998Z</time></trkpt><trkpt lat="42.55217789199353" lon="14.072739769288205"><ele>130.0</ele><time>2026-05-01T18:26:59.998Z</time></trkpt><trkpt lat="42.552216192212896" lon="14.072668906208534"><ele>130.0</ele><time>2026-05-01T18:27:00.998Z</time></trkpt><trkpt lat="42.55229529397904" lon="14.0725932823108"><ele>130.0</ele><time>2026-05-01T18:27:02.997Z</time></trkpt><trkpt lat="42.55238307237636" lon="14.072601626261205"><ele>130.0</ele><time>2026-05-01T18:27:04.997Z</time></trkpt><trkpt lat="42.55243328885851" lon="14.072509620819629"><ele>130.0</ele><time>2026-05-01T18:27:06.997Z</time></trkpt><trkpt lat="42.55250150052101" lon="14.07245226356532"><ele>130.33333333333334</ele><time>2026-05-01T18:27:08.997Z</time></trkpt><trkpt lat="42.552603537290516" lon="14.072417147311997"><ele>130.66666666666669</ele><time>2026-05-01T18:27:10.997Z</time></trkpt><trkpt lat="42.55267381647188" lon="14.072383033565753"><ele>131.0</ele><time>2026-05-01T18:27:11.997Z</time></trkpt><trkpt lat="42.55275266005776" lon="14.072344762690344"><ele>131.33333333333334</ele><time>2026-05-01T18:27:12.997Z</time></trkpt><trkpt lat="42.55283710318603" lon="14.072303407700815"><ele>131.66666666666666</ele><time>2026-05-01T18:27:14Z</time></trkpt><trkpt lat="42.552914450915644" lon="14.072260721472702"><ele>132.0</ele><time>2026-05-01T18:27:15Z</time></trkpt><trkpt lat="42.55297812163206" lon="14.072217484160102"><ele>135.79999999999998</ele><time>2026-05-01T18:27:16Z</time></trkpt><trkpt lat="42.553067765111784" lon="14.072138456984058"><ele>139.6</ele><time>2026-05-01T18:27:18Z</time></trkpt><trkpt lat="42.55313067426179" lon="14.072052902884394"><ele>143.39999999999998</ele><time>2026-05-01T18:27:20Z</time></trkpt><trkpt lat="42.55318668127198" lon="14.071918257813445"><ele>147.2</ele><time>2026-05-01T18:27:22Z</time></trkpt><trkpt lat="42.55319674909304" lon="14.071827576837872"><ele>151.0</ele><time>2026-05-01T18:27:23Z</time></trkpt><trkpt lat="42.553190713734146" lon="14.071642833438618"><ele>150.0</ele><time>2026-05-01T18:27:25Z</time></trkpt><trkpt lat="42.55318157568682" lon="14.071551034281304"><ele>149.0</ele><time>2026-05-01T18:27:26Z</time></trkpt><trkpt lat="42.55319568901112" lon="14.071383250703036"><ele>148.0</ele><time>2026-05-01T18:27:28Z</time></trkpt><trkpt lat="42.55321064116929" lon="14.071214918628236"><ele>147.0</ele><time>2026-05-01T18:27:30Z</time></trkpt><trkpt lat="42.55322658872858" lon="14.071113077460863"><ele>146.0</ele><time>2026-05-01T18:27:31Z</time></trkpt><trkpt lat="42.55323672467981" lon="14.07101721657817"><ele>146.0</ele><time>2026-05-01T18:27:32Z</time></trkpt><trkpt lat="42.553241684322764" lon="14.070925142744137"><ele>146.0</ele><time>2026-05-01T18:27:33Z</time></trkpt><trkpt lat="42.55323727687118" lon="14.070769977575747"><ele>146.0</ele><time>2026-05-01T18:27:35Z</time></trkpt><trkpt lat="42.55322206625286" lon="14.070645967057224"><ele>146.0</ele><time>2026-05-01T18:27:36.999Z</time></trkpt><trkpt lat="42.55318303570942" lon="14.070533333521093"><ele>146.0</ele><time>2026-05-01T18:27:38.999Z</time></trkpt><trkpt lat="42.553151057837916" lon="14.070363258462095"><ele>147.0</ele><time>2026-05-01T18:27:40.999Z</time></trkpt><trkpt lat="42.553117835734255" lon="14.07021050436451"><ele>148.0</ele><time>2026-05-01T18:27:42.999Z</time></trkpt><trkpt lat="42.55311275368114" lon="14.070057632029025"><ele>149.0</ele><time>2026-05-01T18:27:44.999Z</time></trkpt><trkpt lat="42.55314754826555" lon="14.06989611782419"><ele>150.0</ele><time>2026-05-01T18:27:46.999Z</time></trkpt><trkpt lat="42.553177592624934" lon="14.069807299766525"><ele>151.0</ele><time>2026-05-01T18:27:47.999Z</time></trkpt><trkpt lat="42.55323991969634" lon="14.069670704424412"><ele>151.0</ele><time>2026-05-01T18:27:49.999Z</time></trkpt><trkpt lat="42.553323231157776" lon="14.06955161443072"><ele>151.0</ele><time>2026-05-01T18:27:51.999Z</time></trkpt><trkpt lat="42.553421110014945" lon="14.0694823442243"><ele>151.0</ele><time>2026-05-01T18:27:53.999Z</time></trkpt><trkpt lat="42.55353301974269" lon="14.069430891592196"><ele>151.0</ele><time>2026-05-01T18:27:55.999Z</time></trkpt><trkpt lat="42.553617813703426" lon="14.069342247765887"><ele>154.4</ele><time>2026-05-01T18:27:57.999Z</time></trkpt><trkpt lat="42.55370880780587" lon="14.069289394748292"><ele>157.8</ele><time>2026-05-01T18:27:59.999Z</time></trkpt><trkpt lat="42.553777798790584" lon="14.069298055931847"><ele>161.20000000000002</ele><time>2026-05-01T18:28:01.999Z</time></trkpt><trkpt lat="42.55387158685806" lon="14.069331173041505"><ele>164.6</ele><time>2026-05-01T18:28:03.999Z</time></trkpt><trkpt lat="42.55399543927589" lon="14.06936883984267"><ele>168.0</ele><time>2026-05-01T18:28:05.999Z</time></trkpt><trkpt lat="42.55409111477902" lon="14.069469524311172"><ele>168.0</ele><time>2026-05-01T18:28:07.999Z</time></trkpt><trkpt lat="42.55410604770805" lon="14.06960834543236"><ele>168.0</ele><time>2026-05-01T18:28:09.999Z</time></trkpt><trkpt lat="42.554134303498415" lon="14.069767701262322"><ele>168.0</ele><time>2026-05-01T18:28:11.999Z</time></trkpt><trkpt lat="42.55413615733873" lon="14.069883732228385"><ele>168.0</ele><time>2026-05-01T18:28:12.999Z</time></trkpt><trkpt lat="42.55414565472352" lon="14.070018103448744"><ele>168.0</ele><time>2026-05-01T18:28:13.999Z</time></trkpt><trkpt lat="42.554171090986934" lon="14.070176928770502"><ele>169.4</ele><time>2026-05-01T18:28:14.999Z</time></trkpt><trkpt lat="42.55420495421452" lon="14.07031751569658"><ele>170.8</ele><time>2026-05-01T18:28:15.999Z</time></trkpt><trkpt lat="42.5542380346425" lon="14.070412565338634"><ele>172.2</ele><time>2026-05-01T18:28:16.999Z</time></trkpt><trkpt lat="42.554313802034265" lon="14.070496568710558"><ele>173.6</ele><time>2026-05-01T18:28:18.999Z</time></trkpt><trkpt lat="42.55438476312103" lon="14.070477566637809"><ele>175.0</ele><time>2026-05-01T18:28:20.999Z</time></trkpt><trkpt lat="42.554477819270055" lon="14.070412507701592"><ele>180.6</ele><time>2026-05-01T18:28:22.999Z</time></trkpt><trkpt lat="42.55461439780218" lon="14.070344063605948"><ele>186.2</ele><time>2026-05-01T18:28:24.999Z</time></trkpt><trkpt lat="42.55469702095789" lon="14.070294186575724"><ele>191.8</ele><time>2026-05-01T18:28:25.999Z</time></trkpt><trkpt lat="42.55477568837377" lon="14.07025006709705"><ele>197.4</ele><time>2026-05-01T18:28:26.999Z</time></trkpt><trkpt lat="42.554854914866446" lon="14.070204625169188"><ele>203.0</ele><time>2026-05-01T18:28:27.999Z</time></trkpt><trkpt lat="42.55492991090839" lon="14.070148278853976"><ele>203.00000000000003</ele><time>2026-05-01T18:28:28.999Z</time></trkpt><trkpt lat="42.55499311876923" lon="14.070087270271891"><ele>203.0</ele><time>2026-05-01T18:28:29.999Z</time></trkpt><trkpt lat="42.55505391867273" lon="14.070016102297126"><ele>203.0</ele><time>2026-05-01T18:28:30.999Z</time></trkpt><trkpt lat="42.55510877031842" lon="14.06993923461889"><ele>203.0</ele><time>2026-05-01T18:28:31.999Z</time></trkpt><trkpt lat="42.555176510730014" lon="14.069862331937673"><ele>203.00000000000003</ele><time>2026-05-01T18:28:32.999Z</time></trkpt><trkpt lat="42.55526031003834" lon="14.069813911558816"><ele>203.0</ele><time>2026-05-01T18:28:34.999Z</time></trkpt><trkpt lat="42.555323466255516" lon="14.06991961200048"><ele>203.0</ele><time>2026-05-01T18:28:37.998Z</time></trkpt><trkpt lat="42.55532937942475" lon="14.070015475368464"><ele>203.0</ele><time>2026-05-01T18:28:38.998Z</time></trkpt><trkpt lat="42.555349463994716" lon="14.070151238644156"><ele>203.0</ele><time>2026-05-01T18:28:39.998Z</time></trkpt><trkpt lat="42.555372585874" lon="14.070283218240238"><ele>203.0</ele><time>2026-05-01T18:28:40.998Z</time></trkpt><trkpt lat="42.555402749961075" lon="14.070400825603912"><ele>203.0</ele><time>2026-05-01T18:28:41.998Z</time></trkpt><trkpt lat="42.555459129659674" lon="14.070538173777715"><ele>208.75</ele><time>2026-05-01T18:28:42.998Z</time></trkpt><trkpt lat="42.55554544228237" lon="14.070700956701831"><ele>214.5</ele><time>2026-05-01T18:28:43.998Z</time></trkpt><trkpt lat="42.55563483423932" lon="14.070857002730168"><ele>220.25</ele><time>2026-05-01T18:28:44.998Z</time></trkpt><trkpt lat="42.555692545486316" lon="14.070977716853445"><ele>226.0</ele><time>2026-05-01T18:28:45.998Z</time></trkpt><trkpt lat="42.55572513283571" lon="14.071057074156775"><ele>227.20000000000002</ele><time>2026-05-01T18:28:46.998Z</time></trkpt><trkpt lat="42.55580198252772" lon="14.071137045500263"><ele>228.40000000000003</ele><time>2026-05-01T18:28:48.998Z</time></trkpt><trkpt lat="42.55589485285327" lon="14.071095299156761"><ele>229.6</ele><time>2026-05-01T18:28:50.998Z</time></trkpt><trkpt lat="42.555947595556965" lon="14.071015533867136"><ele>230.8</ele><time>2026-05-01T18:28:51.998Z</time></trkpt><trkpt lat="42.556011080399585" lon="14.070906564164506"><ele>232.0</ele><time>2026-05-01T18:28:52.998Z</time></trkpt><trkpt lat="42.556091442583" lon="14.070801376438563"><ele>230.5</ele><time>2026-05-01T18:28:53.998Z</time></trkpt><trkpt lat="42.556175299903124" lon="14.070690920396524"><ele>229.0</ele><time>2026-05-01T18:28:54.998Z</time></trkpt><trkpt lat="42.55624835242922" lon="14.070570708410058"><ele>227.5</ele><time>2026-05-01T18:28:55.998Z</time></trkpt><trkpt lat="42.55630310268414" lon="14.070432910731052"><ele>226.0</ele><time>2026-05-01T18:28:56.998Z</time></trkpt><trkpt lat="42.55636921083881" lon="14.070312799085844"><ele>230.20000000000002</ele><time>2026-05-01T18:28:57.998Z</time></trkpt><trkpt lat="42.55643487282613" lon="14.070193731904054"><ele>234.40000000000003</ele><time>2026-05-01T18:28:58.998Z</time></trkpt><trkpt lat="42.55650102498604" lon="14.070076425958954"><ele>238.6</ele><time>2026-05-01T18:28:59.998Z</time></trkpt><trkpt lat="42.5565824923726" lon="14.069976521496951"><ele>242.8</ele><time>2026-05-01T18:29:00.998Z</time></trkpt><trkpt lat="42.55665700747745" lon="14.069864074661307"><ele>247.0</ele><time>2026-05-01T18:29:01.998Z</time></trkpt><trkpt lat="42.55673442098073" lon="14.06976783378741"><ele>247.0</ele><time>2026-05-01T18:29:02.998Z</time></trkpt><trkpt lat="42.556816750282344" lon="14.069682334073173"><ele>247.0</ele><time>2026-05-01T18:29:03.998Z</time></trkpt><trkpt lat="42.55690616939072" lon="14.069585194368727"><ele>247.0</ele><time>2026-05-01T18:29:04.998Z</time></trkpt><trkpt lat="42.55697035218547" lon="14.069477990510103"><ele>247.0</ele><time>2026-05-01T18:29:05.998Z</time></trkpt><trkpt lat="42.557031112746145" lon="14.069397461120495"><ele>247.0</ele><time>2026-05-01T18:29:06.998Z</time></trkpt><trkpt lat="42.55708613769052" lon="14.069294838868526"><ele>248.16666666666666</ele><time>2026-05-01T18:29:07.998Z</time></trkpt><trkpt lat="42.55712958211657" lon="14.069169955488853"><ele>249.33333333333331</ele><time>2026-05-01T18:29:08.998Z</time></trkpt><trkpt lat="42.557162245161756" lon="14.069043555293753"><ele>250.5</ele><time>2026-05-01T18:29:09.998Z</time></trkpt><trkpt lat="42.55718827978215" lon="14.068956375395622"><ele>251.66666666666669</ele><time>2026-05-01T18:29:10.998Z</time></trkpt><trkpt lat="42.55725527120182" lon="14.068898543813567"><ele>252.83333333333334</ele><time>2026-05-01T18:29:12.998Z</time></trkpt><trkpt lat="42.557341534692476" lon="14.068854074580768"><ele>254.0</ele><time>2026-05-01T18:29:14.998Z</time></trkpt><trkpt lat="42.55737726659681" lon="14.06871577977326"><ele>254.2</ele><time>2026-05-01T18:29:15.998Z</time></trkpt><trkpt lat="42.55743420517883" lon="14.068612472570477"><ele>254.39999999999998</ele><time>2026-05-01T18:29:16.998Z</time></trkpt><trkpt lat="42.557495502356154" lon="14.068491534908025"><ele>254.6</ele><time>2026-05-01T18:29:17.998Z</time></trkpt><trkpt lat="42.55756161644873" lon="14.068359308432926"><ele>254.8</ele><time>2026-05-01T18:29:18.998Z</time></trkpt><trkpt lat="42.5576310685183" lon="14.068227667721509"><ele>255.0</ele><time>2026-05-01T18:29:20Z</time></trkpt><trkpt lat="42.55770394222054" lon="14.068102132070647"><ele>253.5</ele><time>2026-05-01T18:29:21Z</time></trkpt><trkpt lat="42.55777900149524" lon="14.067977024456884"><ele>252.0</ele><time>2026-05-01T18:29:22Z</time></trkpt><trkpt lat="42.55785770103554" lon="14.067854334216827"><ele>250.5</ele><time>2026-05-01T18:29:23Z</time></trkpt><trkpt lat="42.55793239708964" lon="14.067742064981756"><ele>249.0</ele><time>2026-05-01T18:29:24Z</time></trkpt><trkpt lat="42.55799971629926" lon="14.067636285005591"><ele>251.6</ele><time>2026-05-01T18:29:25Z</time></trkpt><trkpt lat="42.558059885664576" lon="14.067558509276576"><ele>254.2</ele><time>2026-05-01T18:29:26Z</time></trkpt><trkpt lat="42.558108469222645" lon="14.067461692978346"><ele>256.79999999999995</ele><time>2026-05-01T18:29:28Z</time></trkpt><trkpt lat="42.55800932484778" lon="14.067281822850838"><ele>259.4</ele><time>2026-05-01T18:29:29Z</time></trkpt><trkpt lat="42.55796673481713" lon="14.067185990964214"><ele>262.0</ele><time>2026-05-01T18:29:30Z</time></trkpt><trkpt lat="42.55794166405882" lon="14.067069063484608"><ele>262.5</ele><time>2026-05-01T18:29:31Z</time></trkpt><trkpt lat="42.55794215336893" lon="14.066921219503664"><ele>263.0</ele><time>2026-05-01T18:29:32Z</time></trkpt><trkpt lat="42.55796039604131" lon="14.0667611269177"><ele>263.5</ele><time>2026-05-01T18:29:33Z</time></trkpt><trkpt lat="42.55798380439766" lon="14.066588389381302"><ele>264.0</ele><time>2026-05-01T18:29:34Z</time></trkpt><trkpt lat="42.55800549939457" lon="14.066418690654187"><ele>264.0</ele><time>2026-05-01T18:29:35Z</time></trkpt><trkpt lat="42.55800304390137" lon="14.066254206219257"><ele>264.0</ele><time>2026-05-01T18:29:36Z</time></trkpt><trkpt lat="42.55801363956012" lon="14.06611060147294"><ele>264.0</ele><time>2026-05-01T18:29:37Z</time></trkpt><trkpt lat="42.55797092916416" lon="14.065970101598232"><ele>264.0</ele><time>2026-05-01T18:29:38Z</time></trkpt><trkpt lat="42.55795295447676" lon="14.065833415155813"><ele>264.0</ele><time>2026-05-01T18:29:39Z</time></trkpt><trkpt lat="42.55788998154877" lon="14.065704782746538"><ele>260.5</ele><time>2026-05-01T18:29:40Z</time></trkpt><trkpt lat="42.55779945645217" lon="14.065610332386926"><ele>257.0</ele><time>2026-05-01T18:29:41Z</time></trkpt><trkpt lat="42.55770757363857" lon="14.06551469432421"><ele>253.5</ele><time>2026-05-01T18:29:42Z</time></trkpt><trkpt lat="42.55762309797119" lon="14.065411090957214"><ele>250.0</ele><time>2026-05-01T18:29:43Z</time></trkpt><trkpt lat="42.55753772751584" lon="14.065315167743702"><ele>250.0</ele><time>2026-05-01T18:29:44Z</time></trkpt><trkpt lat="42.55746165230782" lon="14.06520400351648"><ele>250.0</ele><time>2026-05-01T18:29:45Z</time></trkpt><trkpt lat="42.55739676675539" lon="14.065080484317736"><ele>250.0</ele><time>2026-05-01T18:29:46Z</time></trkpt><trkpt lat="42.55735232540845" lon="14.06494364528392"><ele>250.0</ele><time>2026-05-01T18:29:47Z</time></trkpt><trkpt lat="42.55731087968361" lon="14.064789998013508"><ele>250.25</ele><time>2026-05-01T18:29:48Z</time></trkpt><trkpt lat="42.557276467905524" lon="14.06462415683045"><ele>250.5</ele><time>2026-05-01T18:29:49Z</time></trkpt><trkpt lat="42.557245265050604" lon="14.064447551228977"><ele>250.75</ele><time>2026-05-01T18:29:50Z</time></trkpt><trkpt lat="42.55721695422681" lon="14.064275931843559"><ele>251.0</ele><time>2026-05-01T18:29:51Z</time></trkpt><trkpt lat="42.557186795978296" lon="14.064099685606319"><ele>250.25</ele><time>2026-05-01T18:29:51.999Z</time></trkpt><trkpt lat="42.55715703229973" lon="14.063925745109657"><ele>249.5</ele><time>2026-05-01T18:29:52.999Z</time></trkpt><trkpt lat="42.55712735017737" lon="14.063753963589955"><ele>248.75</ele><time>2026-05-01T18:29:53.999Z</time></trkpt><trkpt lat="42.55709781158873" lon="14.063583181109276"><ele>248.0</ele><time>2026-05-01T18:29:54.999Z</time></trkpt><trkpt lat="42.557067324728635" lon="14.063406915987338"><ele>240.25</ele><time>2026-05-01T18:29:55.999Z</time></trkpt><trkpt lat="42.55703543844734" lon="14.063222559858119"><ele>232.5</ele><time>2026-05-01T18:29:56.999Z</time></trkpt><trkpt lat="42.557006131709095" lon="14.063033918098203"><ele>224.75</ele><time>2026-05-01T18:29:57.999Z</time></trkpt><trkpt lat="42.55697608132339" lon="14.062834801964405"><ele>217.0</ele><time>2026-05-01T18:29:58.999Z</time></trkpt><trkpt lat="42.55692651034441" lon="14.062624985456416"><ele>215.33333333333331</ele><time>2026-05-01T18:29:59.999Z</time></trkpt><trkpt lat="42.556908596697646" lon="14.062412753726395"><ele>213.66666666666669</ele><time>2026-05-01T18:30:00.999Z</time></trkpt><trkpt lat="42.55686191607256" lon="14.062200691892693"><ele>212.0</ele><time>2026-05-01T18:30:01.999Z</time></trkpt><trkpt lat="42.55683458765144" lon="14.061974939594014"><ele>212.0</ele><time>2026-05-01T18:30:02.999Z</time></trkpt><trkpt lat="42.5568071994296" lon="14.061747152360047"><ele>212.0</ele><time>2026-05-01T18:30:03.999Z</time></trkpt><trkpt lat="42.55678684054919" lon="14.061519574348154"><ele>212.0</ele><time>2026-05-01T18:30:04.999Z</time></trkpt><trkpt lat="42.55676210828403" lon="14.061290445672524"><ele>210.33333333333334</ele><time>2026-05-01T18:30:05.999Z</time></trkpt><trkpt lat="42.55672743404471" lon="14.06106032824672"><ele>208.66666666666669</ele><time>2026-05-01T18:30:06.999Z</time></trkpt><trkpt lat="42.556699108314355" lon="14.060828220166881"><ele>207.0</ele><time>2026-05-01T18:30:07.999Z</time></trkpt><trkpt lat="42.55665823937491" lon="14.060593047834487"><ele>206.33333333333331</ele><time>2026-05-01T18:30:08.999Z</time></trkpt><trkpt lat="42.556632656097506" lon="14.060365824757394"><ele>205.66666666666666</ele><time>2026-05-01T18:30:09.999Z</time></trkpt><trkpt lat="42.55658981619904" lon="14.060144411594134"><ele>205.0</ele><time>2026-05-01T18:30:10.999Z</time></trkpt><trkpt lat="42.556535327958436" lon="14.059938394409226"><ele>204.0</ele><time>2026-05-01T18:30:11.999Z</time></trkpt><trkpt lat="42.55650210347462" lon="14.059728661482353"><ele>203.0</ele><time>2026-05-01T18:30:12.999Z</time></trkpt><trkpt lat="42.556476330123665" lon="14.059521870529844"><ele>202.0</ele><time>2026-05-01T18:30:13.999Z</time></trkpt><trkpt lat="42.55645754921179" lon="14.059324983484213"><ele>202.0</ele><time>2026-05-01T18:30:14.999Z</time></trkpt><trkpt lat="42.55644816631438" lon="14.059135280665828"><ele>202.0</ele><time>2026-05-01T18:30:15.999Z</time></trkpt><trkpt lat="42.5564524068116" lon="14.058951614105986"><ele>202.0</ele><time>2026-05-01T18:30:16.999Z</time></trkpt><trkpt lat="42.55647763061995" lon="14.058770388038425"><ele>202.0</ele><time>2026-05-01T18:30:17.999Z</time></trkpt><trkpt lat="42.5565082201266" lon="14.058588430297796"><ele>199.8</ele><time>2026-05-01T18:30:18.999Z</time></trkpt><trkpt lat="42.5565277123901" lon="14.058447546957263"><ele>197.6</ele><time>2026-05-01T18:30:19.999Z</time></trkpt><trkpt lat="42.55654804874394" lon="14.058325454467942"><ele>195.4</ele><time>2026-05-01T18:30:20.999Z</time></trkpt><trkpt lat="42.55653544591661" lon="14.058213775179812"><ele>193.20000000000002</ele><time>2026-05-01T18:30:21.999Z</time></trkpt><trkpt lat="42.55648733267714" lon="14.058100254072043"><ele>191.0</ele><time>2026-05-01T18:30:22.999Z</time></trkpt><trkpt lat="42.55639653510193" lon="14.057990650538883"><ele>189.8</ele><time>2026-05-01T18:30:23.999Z</time></trkpt><trkpt lat="42.556297473403056" lon="14.057889716487509"><ele>188.60000000000002</ele><time>2026-05-01T18:30:24.999Z</time></trkpt><trkpt lat="42.55623682340093" lon="14.057779210589795"><ele>187.4</ele><time>2026-05-01T18:30:25.999Z</time></trkpt><trkpt lat="42.55620055873766" lon="14.057663494974816"><ele>186.2</ele><time>2026-05-01T18:30:26.999Z</time></trkpt><trkpt lat="42.556176157289016" lon="14.057524101210452"><ele>185.0</ele><time>2026-05-01T18:30:27.999Z</time></trkpt><trkpt lat="42.55615433267121" lon="14.057360972129759"><ele>179.0</ele><time>2026-05-01T18:30:28.999Z</time></trkpt><trkpt lat="42.55615028355731" lon="14.057192498823309"><ele>173.0</ele><time>2026-05-01T18:30:29.999Z</time></trkpt><trkpt lat="42.55613440930623" lon="14.057028732358663"><ele>167.0</ele><time>2026-05-01T18:30:30.999Z</time></trkpt><trkpt lat="42.55612135447249" lon="14.056864456686132"><ele>161.0</ele><time>2026-05-01T18:30:31.999Z</time></trkpt><trkpt lat="42.55611312798655" lon="14.056706095993869"><ele>158.20000000000002</ele><time>2026-05-01T18:30:32.999Z</time></trkpt><trkpt lat="42.55612533712958" lon="14.056572399515883"><ele>155.4</ele><time>2026-05-01T18:30:33.999Z</time></trkpt><trkpt lat="42.556160663568114" lon="14.056467125100609"><ele>152.6</ele><time>2026-05-01T18:30:34.999Z</time></trkpt><trkpt lat="42.55619017792943" lon="14.056371695708659"><ele>149.8</ele><time>2026-05-01T18:30:35.999Z</time></trkpt><trkpt lat="42.55619327658157" lon="14.056220146249014"><ele>147.0</ele><time>2026-05-01T18:30:37.999Z</time></trkpt><trkpt lat="42.556129003697485" lon="14.056159376903157"><ele>147.0</ele><time>2026-05-01T18:30:38.999Z</time></trkpt><trkpt lat="42.55603921689674" lon="14.056160690890483"><ele>147.0</ele><time>2026-05-01T18:30:39.999Z</time></trkpt><trkpt lat="42.555956295746824" lon="14.05621242958464"><ele>147.0</ele><time>2026-05-01T18:30:40.998Z</time></trkpt><trkpt lat="42.55587576538125" lon="14.05629261451832"><ele>147.0</ele><time>2026-05-01T18:30:41.998Z</time></trkpt><trkpt lat="42.55579388766586" lon="14.0564079410268"><ele>147.0</ele><time>2026-05-01T18:30:42.998Z</time></trkpt><trkpt lat="42.55570987331927" lon="14.056525987954657"><ele>150.5</ele><time>2026-05-01T18:30:43.998Z</time></trkpt><trkpt lat="42.55562623954482" lon="14.05665989046208"><ele>154.0</ele><time>2026-05-01T18:30:44.998Z</time></trkpt><trkpt lat="42.555546778305164" lon="14.05681241171756"><ele>157.5</ele><time>2026-05-01T18:30:45.998Z</time></trkpt><trkpt lat="42.55545390266866" lon="14.056959883682058"><ele>161.0</ele><time>2026-05-01T18:30:46.998Z</time></trkpt><trkpt lat="42.555377566982195" lon="14.057114155917317"><ele>156.8</ele><time>2026-05-01T18:30:47.998Z</time></trkpt><trkpt lat="42.5553056931759" lon="14.057260506219132"><ele>152.60000000000002</ele><time>2026-05-01T18:30:48.998Z</time></trkpt><trkpt lat="42.5552439591876" lon="14.057386209483257"><ele>148.4</ele><time>2026-05-01T18:30:49.998Z</time></trkpt><trkpt lat="42.555197466135056" lon="14.057515868660019"><ele>144.2</ele><time>2026-05-01T18:30:50.998Z</time></trkpt><trkpt lat="42.555143893388355" lon="14.057613821302951"><ele>140.0</ele><time>2026-05-01T18:30:51.998Z</time></trkpt><trkpt lat="42.55509094089292" lon="14.057690112595399"><ele>140.0</ele><time>2026-05-01T18:30:52.998Z</time></trkpt><trkpt lat="42.555034212843616" lon="14.057740494591883"><ele>140.0</ele><time>2026-05-01T18:30:53.998Z</time></trkpt><trkpt lat="42.55496687002686" lon="14.057757698788656"><ele>140.0</ele><time>2026-05-01T18:30:54.998Z</time></trkpt><trkpt lat="42.55489440285786" lon="14.05773063927606"><ele>140.0</ele><time>2026-05-01T18:30:55.998Z</time></trkpt><trkpt lat="42.554844786047184" lon="14.057644283700226"><ele>140.0</ele><time>2026-05-01T18:30:56.998Z</time></trkpt><trkpt lat="42.55479487050701" lon="14.057539321130529"><ele>140.0</ele><time>2026-05-01T18:30:57.998Z</time></trkpt><trkpt lat="42.554767807687746" lon="14.057421195432052"><ele>139.25</ele><time>2026-05-01T18:30:58.998Z</time></trkpt><trkpt lat="42.55475774562791" lon="14.057296725466598"><ele>138.5</ele><time>2026-05-01T18:30:59.998Z</time></trkpt><trkpt lat="42.55476447017809" lon="14.057143693146152"><ele>137.75</ele><time>2026-05-01T18:31:00.998Z</time></trkpt><trkpt lat="42.55477577700741" lon="14.056959957134067"><ele>137.0</ele><time>2026-05-01T18:31:01.998Z</time></trkpt><trkpt lat="42.55478525274198" lon="14.056773863195732"><ele>136.0</ele><time>2026-05-01T18:31:02.998Z</time></trkpt><trkpt lat="42.5547744559669" lon="14.056595530297361"><ele>135.0</ele><time>2026-05-01T18:31:03.998Z</time></trkpt><trkpt lat="42.55472646835847" lon="14.056428927542411"><ele>134.0</ele><time>2026-05-01T18:31:04.998Z</time></trkpt><trkpt lat="42.5547055784631" lon="14.056268434216811"><ele>133.0</ele><time>2026-05-01T18:31:05.998Z</time></trkpt><trkpt lat="42.554692428428424" lon="14.056115314906586"><ele>133.0</ele><time>2026-05-01T18:31:06.998Z</time></trkpt><trkpt lat="42.554694642745666" lon="14.055941027325195"><ele>133.0</ele><time>2026-05-01T18:31:07.998Z</time></trkpt><trkpt lat="42.5546893027889" lon="14.055719636253432"><ele>133.0</ele><time>2026-05-01T18:31:08.998Z</time></trkpt><trkpt lat="42.55469994215207" lon="14.055484517790841"><ele>130.0</ele><time>2026-05-01T18:31:09.998Z</time></trkpt><trkpt lat="42.554709818751704" lon="14.055269438309589"><ele>127.0</ele><time>2026-05-01T18:31:10.998Z</time></trkpt><trkpt lat="42.55471358784191" lon="14.055056233606194"><ele>124.0</ele><time>2026-05-01T18:31:11.998Z</time></trkpt><trkpt lat="42.554721159890384" lon="14.054846082148433"><ele>120.0</ele><time>2026-05-01T18:31:12.998Z</time></trkpt><trkpt lat="42.55472667762877" lon="14.0546383719243"><ele>116.0</ele><time>2026-05-01T18:31:13.998Z</time></trkpt><trkpt lat="42.554749572896334" lon="14.054447151144952"><ele>112.0</ele><time>2026-05-01T18:31:14.998Z</time></trkpt><trkpt lat="42.55475654051848" lon="14.05428240771596"><ele>108.0</ele><time>2026-05-01T18:31:15.998Z</time></trkpt><trkpt lat="42.55476531714853" lon="14.054150107980709"><ele>105.33333333333333</ele><time>2026-05-01T18:31:16.998Z</time></trkpt><trkpt lat="42.554788997351444" lon="14.054047746100757"><ele>102.66666666666667</ele><time>2026-05-01T18:31:17.998Z</time></trkpt><trkpt lat="42.554830569430514" lon="14.05397143588108"><ele>100.0</ele><time>2026-05-01T18:31:18.998Z</time></trkpt><trkpt lat="42.55489390595166" lon="14.05393001037499"><ele>97.33333333333334</ele><time>2026-05-01T18:31:19.998Z</time></trkpt><trkpt lat="42.55498053218059" lon="14.053921824696957"><ele>94.66666666666667</ele><time>2026-05-01T18:31:20.998Z</time></trkpt><trkpt lat="42.555089578708596" lon="14.053924561384157"><ele>92.0</ele><time>2026-05-01T18:31:21.998Z</time></trkpt><trkpt lat="42.55521498071945" lon="14.053923895874433"><ele>92.0</ele><time>2026-05-01T18:31:22.998Z</time></trkpt><trkpt lat="42.55533006267693" lon="14.053921464152525"><ele>92.0</ele><time>2026-05-01T18:31:23.998Z</time></trkpt><trkpt lat="42.555418996925475" lon="14.053891873734358"><ele>92.0</ele><time>2026-05-01T18:31:24.998Z</time></trkpt><trkpt lat="42.555494789650005" lon="14.05388905319"><ele>92.0</ele><time>2026-05-01T18:31:26Z</time></trkpt><trkpt lat="42.55554922277846" lon="14.053822272512706"><ele>92.0</ele><time>2026-05-01T18:31:27Z</time></trkpt><trkpt lat="42.55560791230237" lon="14.053696799473816"><ele>92.0</ele><time>2026-05-01T18:31:29Z</time></trkpt><trkpt lat="42.555583561933965" lon="14.05361751424578"><ele>92.0</ele><time>2026-05-01T18:31:30Z</time></trkpt><trkpt lat="42.55551874324208" lon="14.053569682096564"><ele>92.0</ele><time>2026-05-01T18:31:31Z</time></trkpt><trkpt lat="42.55544378829224" lon="14.053510836476946"><ele>92.0</ele><time>2026-05-01T18:31:32Z</time></trkpt><trkpt lat="42.555346734752966" lon="14.053427765658368"><ele>92.0</ele><time>2026-05-01T18:31:33Z</time></trkpt><trkpt lat="42.55525052815214" lon="14.053315324757506"><ele>90.25</ele><time>2026-05-01T18:31:34Z</time></trkpt><trkpt lat="42.5551433785337" lon="14.053217322655646"><ele>88.5</ele><time>2026-05-01T18:31:35Z</time></trkpt><trkpt lat="42.555036191502275" lon="14.053133539320758"><ele>86.75</ele><time>2026-05-01T18:31:36Z</time></trkpt><trkpt lat="42.55495182672361" lon="14.053024373828112"><ele>85.0</ele><time>2026-05-01T18:31:37Z</time></trkpt><trkpt lat="42.55488514751402" lon="14.052911842577426"><ele>85.0</ele><time>2026-05-01T18:31:38Z</time></trkpt><trkpt lat="42.554857830763694" lon="14.05278076413096"><ele>85.0</ele><time>2026-05-01T18:31:39Z</time></trkpt><trkpt lat="42.55483612625776" lon="14.052645476335051"><ele>85.0</ele><time>2026-05-01T18:31:40Z</time></trkpt><trkpt lat="42.55484023753067" lon="14.052512610523074"><ele>85.0</ele><time>2026-05-01T18:31:41Z</time></trkpt><trkpt lat="42.55485125383772" lon="14.052345666265877"><ele>85.0</ele><time>2026-05-01T18:31:42Z</time></trkpt><trkpt lat="42.55489966762338" lon="14.052118679062453"><ele>85.33333333333333</ele><time>2026-05-01T18:31:43Z</time></trkpt><trkpt lat="42.55498218004109" lon="14.051864184141365"><ele>85.66666666666667</ele><time>2026-05-01T18:31:44Z</time></trkpt><trkpt lat="42.55505156117776" lon="14.051596576692233"><ele>86.0</ele><time>2026-05-01T18:31:45Z</time></trkpt><trkpt lat="42.55511772171216" lon="14.051352962780994"><ele>85.4</ele><time>2026-05-01T18:31:46Z</time></trkpt><trkpt lat="42.55516798673364" lon="14.051168164926704"><ele>84.8</ele><time>2026-05-01T18:31:47Z</time></trkpt><trkpt lat="42.55520433181173" lon="14.051027010064908"><ele>84.2</ele><time>2026-05-01T18:31:48Z</time></trkpt><trkpt lat="42.55521488801972" lon="14.05091657802803"><ele>83.60000000000001</ele><time>2026-05-01T18:31:49Z</time></trkpt><trkpt lat="42.55524181017395" lon="14.050798455691963"><ele>83.0</ele><time>2026-05-01T18:31:51Z</time></trkpt><trkpt lat="42.555357017418515" lon="14.050791840624377"><ele>87.0</ele><time>2026-05-01T18:31:53Z</time></trkpt><trkpt lat="42.555447809772375" lon="14.050817779021475"><ele>91.0</ele><time>2026-05-01T18:31:54.999Z</time></trkpt><trkpt lat="42.55547900447398" lon="14.050946228076363"><ele>95.0</ele><time>2026-05-01T18:31:56.999Z</time></trkpt><trkpt lat="42.55545096276658" lon="14.051102423250569"><ele>99.0</ele><time>2026-05-01T18:31:58.999Z</time></trkpt><trkpt lat="42.55541920383704" lon="14.051220880768785"><ele>103.0</ele><time>2026-05-01T18:31:59.999Z</time></trkpt><trkpt lat="42.5553940915921" lon="14.051383292711197"><ele>103.0</ele><time>2026-05-01T18:32:00.999Z</time></trkpt><trkpt lat="42.55540078299758" lon="14.05156409450088"><ele>103.0</ele><time>2026-05-01T18:32:01.999Z</time></trkpt><trkpt lat="42.55540672005829" lon="14.051719655850233"><ele>103.0</ele><time>2026-05-01T18:32:02.999Z</time></trkpt><trkpt lat="42.55543562118549" lon="14.051849551685695"><ele>103.0</ele><time>2026-05-01T18:32:03.999Z</time></trkpt><trkpt lat="42.55547693632525" lon="14.05198419490579"><ele>104.4</ele><time>2026-05-01T18:32:04.999Z</time></trkpt><trkpt lat="42.555529871283824" lon="14.05210131358199"><ele>105.80000000000001</ele><time>2026-05-01T18:32:05.999Z</time></trkpt><trkpt lat="42.55559160998232" lon="14.05219534761278"><ele>107.2</ele><time>2026-05-01T18:32:06.999Z</time></trkpt><trkpt lat="42.55566747966379" lon="14.052273927211345"><ele>108.6</ele><time>2026-05-01T18:32:07.999Z</time></trkpt><trkpt lat="42.555755309138526" lon="14.05232468966197"><ele>110.0</ele><time>2026-05-01T18:32:08.999Z</time></trkpt><trkpt lat="42.555853298911416" lon="14.05235099334485"><ele>110.0</ele><time>2026-05-01T18:32:09.999Z</time></trkpt><trkpt lat="42.555968637124415" lon="14.052362936999154"><ele>110.0</ele><time>2026-05-01T18:32:10.999Z</time></trkpt><trkpt lat="42.55605842116003" lon="14.052360487799408"><ele>110.0</ele><time>2026-05-01T18:32:11.999Z</time></trkpt><trkpt lat="42.55615628171795" lon="14.052281792764385"><ele>110.0</ele><time>2026-05-01T18:32:13.999Z</time></trkpt><trkpt lat="42.55617600353174" lon="14.052199535059204"><ele>110.0</ele><time>2026-05-01T18:32:14.999Z</time></trkpt><trkpt lat="42.556173220358545" lon="14.052105305728718"><ele>109.99999999999999</ele><time>2026-05-01T18:32:15.999Z</time></trkpt><trkpt lat="42.55615102688292" lon="14.052020083829111"><ele>110.0</ele><time>2026-05-01T18:32:16.999Z</time></trkpt><trkpt lat="42.55609830567203" lon="14.051884390487487"><ele>110.0</ele><time>2026-05-01T18:32:18.999Z</time></trkpt><trkpt lat="42.55605546309807" lon="14.051788629918027"><ele>110.0</ele><time>2026-05-01T18:32:19.999Z</time></trkpt><trkpt lat="42.55601943589388" lon="14.051687791073174"><ele>109.99999999999999</ele><time>2026-05-01T18:32:20.999Z</time></trkpt><trkpt lat="42.55603623450647" lon="14.05159199955762"><ele>110.0</ele><time>2026-05-01T18:32:21.999Z</time></trkpt><trkpt lat="42.556111477943055" lon="14.051500724822468"><ele>113.6</ele><time>2026-05-01T18:32:23.999Z</time></trkpt><trkpt lat="42.556210453552936" lon="14.051472696883287"><ele>117.2</ele><time>2026-05-01T18:32:25.999Z</time></trkpt><trkpt lat="42.55627288915687" lon="14.051602485517837"><ele>120.80000000000001</ele><time>2026-05-01T18:32:27.999Z</time></trkpt><trkpt lat="42.556338377132455" lon="14.051759732333954"><ele>124.4</ele><time>2026-05-01T18:32:29.999Z</time></trkpt><trkpt lat="42.55639308667804" lon="14.051854413226442"><ele>128.0</ele><time>2026-05-01T18:32:30.999Z</time></trkpt><trkpt lat="42.55646214478347" lon="14.05189972844697"><ele>128.0</ele><time>2026-05-01T18:32:31.999Z</time></trkpt><trkpt lat="42.55652829456548" lon="14.051874604515715"><ele>128.0</ele><time>2026-05-01T18:32:32.999Z</time></trkpt><trkpt lat="42.55660880775351" lon="14.051766106851906"><ele>128.0</ele><time>2026-05-01T18:32:34.999Z</time></trkpt><trkpt lat="42.55659824221611" lon="14.05159860347752"><ele>128.0</ele><time>2026-05-01T18:32:36.999Z</time></trkpt><trkpt lat="42.556602253292745" lon="14.051478192478207"><ele>128.0</ele><time>2026-05-01T18:32:37.999Z</time></trkpt><trkpt lat="42.556589619584855" lon="14.051339123783396"><ele>128.0</ele><time>2026-05-01T18:32:38.999Z</time></trkpt><trkpt lat="42.55659055369572" lon="14.05120708745727"><ele>128.0</ele><time>2026-05-01T18:32:39.999Z</time></trkpt><trkpt lat="42.55660323539109" lon="14.051103366651297"><ele>128.0</ele><time>2026-05-01T18:32:40.999Z</time></trkpt><trkpt lat="42.55665668278172" lon="14.050971505144947"><ele>128.0</ele><time>2026-05-01T18:32:42.998Z</time></trkpt><trkpt lat="42.55675461948281" lon="14.050917145705512"><ele>128.0</ele><time>2026-05-01T18:32:44.998Z</time></trkpt><trkpt lat="42.55681927621191" lon="14.050922625959352"><ele>128.0</ele><time>2026-05-01T18:32:45.998Z</time></trkpt><trkpt lat="42.55689376714368" lon="14.05095503346746"><ele>128.0</ele><time>2026-05-01T18:32:46.998Z</time></trkpt><trkpt lat="42.55698787830233" lon="14.051001527633444"><ele>128.0</ele><time>2026-05-01T18:32:47.998Z</time></trkpt><trkpt lat="42.55709739468492" lon="14.051063868490255"><ele>128.0</ele><time>2026-05-01T18:32:48.998Z</time></trkpt><trkpt lat="42.55721137255986" lon="14.051135300815737"><ele>128.0</ele><time>2026-05-01T18:32:49.998Z</time></trkpt><trkpt lat="42.55728956296535" lon="14.051202162627627"><ele>130.0</ele><time>2026-05-01T18:32:50.998Z</time></trkpt><trkpt lat="42.557335161776685" lon="14.051278433673652"><ele>132.0</ele><time>2026-05-01T18:32:51.998Z</time></trkpt><trkpt lat="42.55739635548707" lon="14.051376620816615"><ele>134.0</ele><time>2026-05-01T18:32:52.998Z</time></trkpt><trkpt lat="42.557480500930005" lon="14.051479807167453"><ele>136.0</ele><time>2026-05-01T18:32:53.998Z</time></trkpt><trkpt lat="42.55755735820986" lon="14.051569994564113"><ele>138.0</ele><time>2026-05-01T18:32:54.998Z</time></trkpt><trkpt lat="42.557635206326516" lon="14.051623454270898"><ele>139.20000000000002</ele><time>2026-05-01T18:32:55.998Z</time></trkpt><trkpt lat="42.557714531172486" lon="14.051656966444051"><ele>140.4</ele><time>2026-05-01T18:32:56.998Z</time></trkpt><trkpt lat="42.5578095657972" lon="14.051687206523388"><ele>141.60000000000002</ele><time>2026-05-01T18:32:57.998Z</time></trkpt><trkpt lat="42.55791339437679" lon="14.051717281417531"><ele>142.8</ele><time>2026-05-01T18:32:58.998Z</time></trkpt><trkpt lat="42.55802829662114" lon="14.05175139707629"><ele>144.0</ele><time>2026-05-01T18:32:59.998Z</time></trkpt><trkpt lat="42.558132954180046" lon="14.051785709817356"><ele>147.0</ele><time>2026-05-01T18:33:00.998Z</time></trkpt><trkpt lat="42.55824029978754" lon="14.051826419479712"><ele>150.0</ele><time>2026-05-01T18:33:01.998Z</time></trkpt><trkpt lat="42.55833986359632" lon="14.051865628139689"><ele>153.0</ele><time>2026-05-01T18:33:02.998Z</time></trkpt><trkpt lat="42.558440168413355" lon="14.051902077954976"><ele>156.0</ele><time>2026-05-01T18:33:03.998Z</time></trkpt><trkpt lat="42.558552454220106" lon="14.051955523690859"><ele>159.0</ele><time>2026-05-01T18:33:04.998Z</time></trkpt><trkpt lat="42.55864877253727" lon="14.051973700078976"><ele>161.5</ele><time>2026-05-01T18:33:05.998Z</time></trkpt><trkpt lat="42.55873219081253" lon="14.051974127951725"><ele>164.0</ele><time>2026-05-01T18:33:06.998Z</time></trkpt><trkpt lat="42.55880561323642" lon="14.051944833952634"><ele>166.5</ele><time>2026-05-01T18:33:07.998Z</time></trkpt><trkpt lat="42.55886779333417" lon="14.051891224258464"><ele>169.0</ele><time>2026-05-01T18:33:08.998Z</time></trkpt><trkpt lat="42.55891678852202" lon="14.051817197382043"><ele>171.5</ele><time>2026-05-01T18:33:09.998Z</time></trkpt><trkpt lat="42.558969724050336" lon="14.051717633769897"><ele>174.0</ele><time>2026-05-01T18:33:10.998Z</time></trkpt><trkpt lat="42.55902731141295" lon="14.051593860483884"><ele>174.0</ele><time>2026-05-01T18:33:11.998Z</time></trkpt><trkpt lat="42.55908659994402" lon="14.051468741179097"><ele>174.0</ele><time>2026-05-01T18:33:12.998Z</time></trkpt><trkpt lat="42.559158978923406" lon="14.051331095498085"><ele>174.0</ele><time>2026-05-01T18:33:13.998Z</time></trkpt><trkpt lat="42.55922234426812" lon="14.051197557407793"><ele>174.0</ele><time>2026-05-01T18:33:14.998Z</time></trkpt><trkpt lat="42.55928705937674" lon="14.051068353388889"><ele>174.0</ele><time>2026-05-01T18:33:15.998Z</time></trkpt><trkpt lat="42.5593549700416" lon="14.050936342700465"><ele>174.0</ele><time>2026-05-01T18:33:16.998Z</time></trkpt><trkpt lat="42.55943189391578" lon="14.0508100018667"><ele>174.0</ele><time>2026-05-01T18:33:17.998Z</time></trkpt><trkpt lat="42.559498512083564" lon="14.050676519590217"><ele>174.0</ele><time>2026-05-01T18:33:18.998Z</time></trkpt><trkpt lat="42.559562996408275" lon="14.050547312985532"><ele>176.6</ele><time>2026-05-01T18:33:19.998Z</time></trkpt><trkpt lat="42.55962411434317" lon="14.050427008508349"><ele>179.2</ele><time>2026-05-01T18:33:20.998Z</time></trkpt><trkpt lat="42.55968099994096" lon="14.050323693057086"><ele>181.79999999999998</ele><time>2026-05-01T18:33:21.998Z</time></trkpt><trkpt lat="42.55975206465256" lon="14.050239898093505"><ele>184.39999999999998</ele><time>2026-05-01T18:33:22.998Z</time></trkpt><trkpt lat="42.559826622259315" lon="14.050169177700175"><ele>187.0</ele><time>2026-05-01T18:33:23.998Z</time></trkpt><trkpt lat="42.559888742289665" lon="14.050136747399932"><ele>187.0</ele><time>2026-05-01T18:33:24.998Z</time></trkpt><trkpt lat="42.55999701338307" lon="14.05018510822264"><ele>187.0</ele><time>2026-05-01T18:33:26.998Z</time></trkpt><trkpt lat="42.560051822393994" lon="14.050247130853691"><ele>187.0</ele><time>2026-05-01T18:33:27.998Z</time></trkpt><trkpt lat="42.56007583049053" lon="14.050379995892246"><ele>187.0</ele><time>2026-05-01T18:33:29.998Z</time></trkpt><trkpt lat="42.56008148614337" lon="14.050581659973737"><ele>187.0</ele><time>2026-05-01T18:33:32Z</time></trkpt><trkpt lat="42.56007131886396" lon="14.050715399451468"><ele>188.2</ele><time>2026-05-01T18:33:33Z</time></trkpt><trkpt lat="42.56006447401897" lon="14.05087112004771"><ele>189.39999999999998</ele><time>2026-05-01T18:33:34Z</time></trkpt><trkpt lat="42.56006331127056" lon="14.051019826948218"><ele>190.60000000000002</ele><time>2026-05-01T18:33:35Z</time></trkpt><trkpt lat="42.56008529678776" lon="14.05113395781266"><ele>191.8</ele><time>2026-05-01T18:33:36Z</time></trkpt><trkpt lat="42.56012437957329" lon="14.051240887512868"><ele>193.0</ele><time>2026-05-01T18:33:37Z</time></trkpt><trkpt lat="42.56018037754016" lon="14.051358954536283"><ele>193.0</ele><time>2026-05-01T18:33:38Z</time></trkpt><trkpt lat="42.5602496747286" lon="14.05147209933764"><ele>193.0</ele><time>2026-05-01T18:33:39Z</time></trkpt><trkpt lat="42.56033359903591" lon="14.051590539402254"><ele>193.0</ele><time>2026-05-01T18:33:40Z</time></trkpt><trkpt lat="42.56042621232724" lon="14.051717091152815"><ele>193.0</ele><time>2026-05-01T18:33:41Z</time></trkpt><trkpt lat="42.56050525131565" lon="14.051821668607872"><ele>195.33333333333331</ele><time>2026-05-01T18:33:42Z</time></trkpt><trkpt lat="42.5605711926044" lon="14.051901025701218"><ele>197.66666666666666</ele><time>2026-05-01T18:33:43Z</time></trkpt><trkpt lat="42.560638781771125" lon="14.051962665756973"><ele>200.0</ele><time>2026-05-01T18:33:44Z</time></trkpt><trkpt lat="42.56072005477393" lon="14.052000621903925"><ele>202.33333333333331</ele><time>2026-05-01T18:33:45Z</time></trkpt><trkpt lat="42.56080673714994" lon="14.052026016195011"><ele>204.66666666666666</ele><time>2026-05-01T18:33:46Z</time></trkpt><trkpt lat="42.56087818148962" lon="14.052012886093989"><ele>207.0</ele><time>2026-05-01T18:33:47Z</time></trkpt><trkpt lat="42.56093489763012" lon="14.051966563714085"><ele>207.0</ele><time>2026-05-01T18:33:48Z</time></trkpt><trkpt lat="42.56097582875762" lon="14.05189673275046"><ele>207.0</ele><time>2026-05-01T18:33:49Z</time></trkpt><trkpt lat="42.56103619225255" lon="14.05182577679552"><ele>207.0</ele><time>2026-05-01T18:33:50Z</time></trkpt><trkpt lat="42.56110430070399" lon="14.051744727613872"><ele>207.0</ele><time>2026-05-01T18:33:51Z</time></trkpt><trkpt lat="42.561177566945474" lon="14.05169190689846"><ele>207.0</ele><time>2026-05-01T18:33:52Z</time></trkpt><trkpt lat="42.56125343139611" lon="14.051676224380515"><ele>207.0</ele><time>2026-05-01T18:33:53Z</time></trkpt><trkpt lat="42.56133105202652" lon="14.051691910967367"><ele>209.39999999999998</ele><time>2026-05-01T18:33:54Z</time></trkpt><trkpt lat="42.5614030856016" lon="14.051734799708207"><ele>211.79999999999998</ele><time>2026-05-01T18:33:55Z</time></trkpt><trkpt lat="42.56148135788127" lon="14.051791384165368"><ele>214.2</ele><time>2026-05-01T18:33:56Z</time></trkpt><trkpt lat="42.561557348087" lon="14.05186955016797"><ele>216.6</ele><time>2026-05-01T18:33:57Z</time></trkpt><trkpt lat="42.56163159237081" lon="14.051971004089161"><ele>219.0</ele><time>2026-05-01T18:33:58Z</time></trkpt><trkpt lat="42.56168274870432" lon="14.052081813451728"><ele>219.0</ele><time>2026-05-01T18:33:59Z</time></trkpt><trkpt lat="42.56172075864057" lon="14.052197785300569"><ele>218.99999999999997</ele><time>2026-05-01T18:34:00Z</time></trkpt><trkpt lat="42.561742033461336" lon="14.052325366432271"><ele>218.99999999999997</ele><time>2026-05-01T18:34:01Z</time></trkpt><trkpt lat="42.561735082672485" lon="14.05245237012221"><ele>219.0</ele><time>2026-05-01T18:34:01.999Z</time></trkpt><trkpt lat="42.56174939424003" lon="14.052589600905225"><ele>219.0</ele><time>2026-05-01T18:34:02.999Z</time></trkpt><trkpt lat="42.56177847678263" lon="14.052725389925598"><ele>220.33333333333334</ele><time>2026-05-01T18:34:03.999Z</time></trkpt><trkpt lat="42.561809470209596" lon="14.05285895925707"><ele>221.66666666666669</ele><time>2026-05-01T18:34:04.999Z</time></trkpt><trkpt lat="42.56184411836122" lon="14.052955756860742"><ele>223.0</ele><time>2026-05-01T18:34:05.999Z</time></trkpt><trkpt lat="42.56192307579127" lon="14.05297187753466"><ele>224.33333333333334</ele><time>2026-05-01T18:34:06.999Z</time></trkpt><trkpt lat="42.56199025822443" lon="14.052991977959882"><ele>225.66666666666669</ele><time>2026-05-01T18:34:07.999Z</time></trkpt><trkpt lat="42.56206671469253" lon="14.052922918335577"><ele>227.0</ele><time>2026-05-01T18:34:08.999Z</time></trkpt><trkpt lat="42.562119080677576" lon="14.052852345729972"><ele>228.0</ele><time>2026-05-01T18:34:09.999Z</time></trkpt><trkpt lat="42.56215868020062" lon="14.052759004584187"><ele>229.0</ele><time>2026-05-01T18:34:10.999Z</time></trkpt><trkpt lat="42.56219456822678" lon="14.052649268969974"><ele>230.0</ele><time>2026-05-01T18:34:11.999Z</time></trkpt><trkpt lat="42.562252087858546" lon="14.052542329367968"><ele>231.0</ele><time>2026-05-01T18:34:12.999Z</time></trkpt><trkpt lat="42.562341560941526" lon="14.052460899634289"><ele>232.0</ele><time>2026-05-01T18:34:13.999Z</time></trkpt><trkpt lat="42.562449487893545" lon="14.052370230162767"><ele>232.0</ele><time>2026-05-01T18:34:14.999Z</time></trkpt><trkpt lat="42.562574216247896" lon="14.052294023467741"><ele>232.0</ele><time>2026-05-01T18:34:15.999Z</time></trkpt><trkpt lat="42.56270876277599" lon="14.052237901733891"><ele>232.0</ele><time>2026-05-01T18:34:16.999Z</time></trkpt><trkpt lat="42.56286181361636" lon="14.052171794381143"><ele>232.0</ele><time>2026-05-01T18:34:17.999Z</time></trkpt><trkpt lat="42.56301967598268" lon="14.052105080656844"><ele>237.66666666666666</ele><time>2026-05-01T18:34:18.999Z</time></trkpt><trkpt lat="42.56316843593247" lon="14.052044811571507"><ele>243.33333333333331</ele><time>2026-05-01T18:34:19.999Z</time></trkpt><trkpt lat="42.56330997092521" lon="14.051989205800192"><ele>249.0</ele><time>2026-05-01T18:34:20.999Z</time></trkpt><trkpt lat="42.56345614679483" lon="14.051937012128636"><ele>249.0</ele><time>2026-05-01T18:34:21.999Z</time></trkpt><trkpt lat="42.56360934009429" lon="14.051857593129771"><ele>249.0</ele><time>2026-05-01T18:34:22.999Z</time></trkpt><trkpt lat="42.563765595690384" lon="14.051794799788691"><ele>249.0</ele><time>2026-05-01T18:34:23.999Z</time></trkpt><trkpt lat="42.563916768688955" lon="14.051721938523023"><ele>247.25</ele><time>2026-05-01T18:34:24.999Z</time></trkpt><trkpt lat="42.56405971616141" lon="14.051634299054834"><ele>245.5</ele><time>2026-05-01T18:34:25.999Z</time></trkpt><trkpt lat="42.564178309827845" lon="14.051547749555885"><ele>243.75</ele><time>2026-05-01T18:34:26.999Z</time></trkpt><trkpt lat="42.56429722606286" lon="14.051450904544511"><ele>242.0</ele><time>2026-05-01T18:34:27.999Z</time></trkpt><trkpt lat="42.564424221165666" lon="14.05133877040883"><ele>248.66666666666669</ele><time>2026-05-01T18:34:28.999Z</time></trkpt><trkpt lat="42.56456514729791" lon="14.051234684263402"><ele>255.33333333333331</ele><time>2026-05-01T18:34:29.999Z</time></trkpt><trkpt lat="42.56469672524435" lon="14.051110737071456"><ele>262.0</ele><time>2026-05-01T18:34:30.999Z</time></trkpt><trkpt lat="42.564814821839114" lon="14.050969326504308"><ele>262.0</ele><time>2026-05-01T18:34:31.999Z</time></trkpt><trkpt lat="42.564937061428594" lon="14.050851944193761"><ele>262.0</ele><time>2026-05-01T18:34:32.999Z</time></trkpt><trkpt lat="42.565058104379524" lon="14.050745806668179"><ele>262.0</ele><time>2026-05-01T18:34:33.999Z</time></trkpt><trkpt lat="42.56517706275104" lon="14.050646749453321"><ele>262.0</ele><time>2026-05-01T18:34:34.999Z</time></trkpt><trkpt lat="42.56529539093064" lon="14.050560701641482"><ele>261.0</ele><time>2026-05-01T18:34:35.999Z</time></trkpt><trkpt lat="42.56541448252462" lon="14.050482407647722"><ele>260.0</ele><time>2026-05-01T18:34:36.999Z</time></trkpt><trkpt lat="42.565536889070096" lon="14.050404625675489"><ele>259.0</ele><time>2026-05-01T18:34:37.999Z</time></trkpt><trkpt lat="42.56565512259276" lon="14.050330733478798"><ele>258.0</ele><time>2026-05-01T18:34:38.999Z</time></trkpt><trkpt lat="42.565781445084355" lon="14.050261552491616"><ele>258.0</ele><time>2026-05-01T18:34:39.999Z</time></trkpt><trkpt lat="42.56591786088446" lon="14.050182357522747"><ele>258.0</ele><time>2026-05-01T18:34:40.999Z</time></trkpt><trkpt lat="42.56606541075688" lon="14.05012013629096"><ele>258.0</ele><time>2026-05-01T18:34:41.999Z</time></trkpt><trkpt lat="42.566179272491716" lon="14.050037440556764"><ele>258.0</ele><time>2026-05-01T18:34:42.999Z</time></trkpt><trkpt lat="42.56627876858596" lon="14.050000549915355"><ele>260.5</ele><time>2026-05-01T18:34:43.999Z</time></trkpt><trkpt lat="42.56637512650907" lon="14.049990642044493"><ele>263.0</ele><time>2026-05-01T18:34:44.999Z</time></trkpt><trkpt lat="42.56647311366948" lon="14.050035403937832"><ele>265.5</ele><time>2026-05-01T18:34:45.999Z</time></trkpt><trkpt lat="42.566589797434055" lon="14.050047319910474"><ele>268.0</ele><time>2026-05-01T18:34:46.999Z</time></trkpt><trkpt lat="42.56672407166869" lon="14.050054006222748"><ele>268.0</ele><time>2026-05-01T18:34:47.999Z</time></trkpt><trkpt lat="42.56685941726124" lon="14.050043023779768"><ele>268.0</ele><time>2026-05-01T18:34:48.999Z</time></trkpt><trkpt lat="42.566986131702315" lon="14.050059524682197"><ele>268.0</ele><time>2026-05-01T18:34:49.999Z</time></trkpt><trkpt lat="42.56710566677993" lon="14.05008455676007"><ele>268.0</ele><time>2026-05-01T18:34:50.999Z</time></trkpt><trkpt lat="42.56719904543494" lon="14.050151198982809"><ele>268.0</ele><time>2026-05-01T18:34:51.998Z</time></trkpt><trkpt lat="42.56728926600063" lon="14.050214626409275"><ele>268.0</ele><time>2026-05-01T18:34:52.998Z</time></trkpt><trkpt lat="42.567373589749906" lon="14.050304028600591"><ele>268.0</ele><time>2026-05-01T18:34:53.998Z</time></trkpt><trkpt lat="42.56744496245704" lon="14.050406695296688"><ele>268.0</ele><time>2026-05-01T18:34:54.998Z</time></trkpt><trkpt lat="42.56749370196343" lon="14.050503880774272"><ele>268.0</ele><time>2026-05-01T18:34:55.998Z</time></trkpt><trkpt lat="42.56750302723928" lon="14.050598080340466"><ele>268.0</ele><time>2026-05-01T18:34:56.998Z</time></trkpt><trkpt lat="42.56749434670943" lon="14.05072791412058"><ele>268.0</ele><time>2026-05-01T18:34:57.998Z</time></trkpt><trkpt lat="42.56748660037944" lon="14.050876068434688"><ele>268.0</ele><time>2026-05-01T18:34:58.998Z</time></trkpt><trkpt lat="42.56747180588025" lon="14.051031985130635"><ele>268.0</ele><time>2026-05-01T18:34:59.998Z</time></trkpt><trkpt lat="42.56744700003276" lon="14.05118448257331"><ele>268.0</ele><time>2026-05-01T18:35:00.998Z</time></trkpt><trkpt lat="42.56740625138253" lon="14.051329532489357"><ele>269.25</ele><time>2026-05-01T18:35:01.998Z</time></trkpt><trkpt lat="42.567353305963174" lon="14.051476680819096"><ele>270.5</ele><time>2026-05-01T18:35:02.998Z</time></trkpt><trkpt lat="42.5672942729163" lon="14.051629051815864"><ele>271.75</ele><time>2026-05-01T18:35:03.998Z</time></trkpt><trkpt lat="42.56724854345033" lon="14.051792598330561"><ele>273.0</ele><time>2026-05-01T18:35:04.998Z</time></trkpt><trkpt lat="42.56718223774196" lon="14.051951867233832"><ele>273.0</ele><time>2026-05-01T18:35:05.998Z</time></trkpt><trkpt lat="42.56711927737953" lon="14.052115870694344"><ele>273.0</ele><time>2026-05-01T18:35:06.998Z</time></trkpt><trkpt lat="42.56705476220699" lon="14.052273280225718"><ele>273.0</ele><time>2026-05-01T18:35:07.998Z</time></trkpt><trkpt lat="42.56698722429826" lon="14.052439132288034"><ele>273.0</ele><time>2026-05-01T18:35:08.998Z</time></trkpt><trkpt lat="42.56691110984039" lon="14.052558977737727"><ele>274.0</ele><time>2026-05-01T18:35:09.998Z</time></trkpt><trkpt lat="42.56684913865333" lon="14.052682453158711"><ele>275.0</ele><time>2026-05-01T18:35:10.998Z</time></trkpt><trkpt lat="42.56677264304571" lon="14.052762306316712"><ele>276.0</ele><time>2026-05-01T18:35:11.998Z</time></trkpt><trkpt lat="42.56669742353154" lon="14.052807735735678"><ele>277.0</ele><time>2026-05-01T18:35:12.998Z</time></trkpt><trkpt lat="42.566595995510525" lon="14.05279136718448"><ele>278.0</ele><time>2026-05-01T18:35:13.998Z</time></trkpt><trkpt lat="42.56646778796319" lon="14.052784239809064"><ele>278.0</ele><time>2026-05-01T18:35:14.998Z</time></trkpt><trkpt lat="42.56633644732726" lon="14.052790238821338"><ele>278.0</ele><time>2026-05-01T18:35:15.998Z</time></trkpt><trkpt lat="42.56623514707643" lon="14.052808054691019"><ele>278.0</ele><time>2026-05-01T18:35:16.998Z</time></trkpt><trkpt lat="42.56614232309757" lon="14.052857439270815"><ele>278.0</ele><time>2026-05-01T18:35:17.998Z</time></trkpt><trkpt lat="42.566073292691904" lon="14.052916911466681"><ele>278.0</ele><time>2026-05-01T18:35:18.998Z</time></trkpt><trkpt lat="42.56604817677244" lon="14.053031890562245"><ele>278.6666666666667</ele><time>2026-05-01T18:35:19.998Z</time></trkpt><trkpt lat="42.56603414959839" lon="14.05313259078513"><ele>279.33333333333337</ele><time>2026-05-01T18:35:20.998Z</time></trkpt><trkpt lat="42.56604137226856" lon="14.053245434786627"><ele>280.0</ele><time>2026-05-01T18:35:21.998Z</time></trkpt><trkpt lat="42.56607478880669" lon="14.053373226937156"><ele>280.6666666666667</ele><time>2026-05-01T18:35:22.998Z</time></trkpt><trkpt lat="42.56612385910641" lon="14.053479340252537"><ele>281.3333333333333</ele><time>2026-05-01T18:35:23.998Z</time></trkpt><trkpt lat="42.56616921704912" lon="14.053585714137975"><ele>282.0</ele><time>2026-05-01T18:35:24.998Z</time></trkpt><trkpt lat="42.56623791464707" lon="14.053672979987782"><ele>279.2</ele><time>2026-05-01T18:35:25.998Z</time></trkpt><trkpt lat="42.56633065411886" lon="14.053730437403793"><ele>276.4</ele><time>2026-05-01T18:35:26.998Z</time></trkpt><trkpt lat="42.56642784443216" lon="14.053797278666107"><ele>273.6</ele><time>2026-05-01T18:35:27.998Z</time></trkpt><trkpt lat="42.5665221639422" lon="14.05386868445672"><ele>270.8</ele><time>2026-05-01T18:35:28.998Z</time></trkpt><trkpt lat="42.56660596072662" lon="14.053971211861324"><ele>268.0</ele><time>2026-05-01T18:35:29.998Z</time></trkpt><trkpt lat="42.56667621222877" lon="14.054072298738213"><ele>266.5</ele><time>2026-05-01T18:35:30.998Z</time></trkpt><trkpt lat="42.566728180411246" lon="14.05416410691392"><ele>265.0</ele><time>2026-05-01T18:35:31.998Z</time></trkpt><trkpt lat="42.56676827177828" lon="14.054265725184063"><ele>263.5</ele><time>2026-05-01T18:35:32.998Z</time></trkpt><trkpt lat="42.56673381154209" lon="14.054405900443038"><ele>262.0</ele><time>2026-05-01T18:35:34.998Z</time></trkpt><trkpt lat="42.56670131261598" lon="14.054487844396458"><ele>260.5</ele><time>2026-05-01T18:35:35.998Z</time></trkpt><trkpt lat="42.56664375258323" lon="14.054556757085551"><ele>259.0</ele><time>2026-05-01T18:35:36.998Z</time></trkpt><trkpt lat="42.56658001930653" lon="14.054628896849099"><ele>259.0</ele><time>2026-05-01T18:35:39Z</time></trkpt><trkpt lat="42.56669097760087" lon="14.054766025176225"><ele>259.0</ele><time>2026-05-01T18:35:41Z</time></trkpt><trkpt lat="42.5667913858282" lon="14.054775563812097"><ele>259.0</ele><time>2026-05-01T18:35:42Z</time></trkpt><trkpt lat="42.56689639070345" lon="14.054776601199798"><ele>259.0</ele><time>2026-05-01T18:35:43Z</time></trkpt><trkpt lat="42.56701308305826" lon="14.054790675718303"><ele>257.0</ele><time>2026-05-01T18:35:44Z</time></trkpt><trkpt lat="42.567137636800084" lon="14.054804716021774"><ele>255.0</ele><time>2026-05-01T18:35:45Z</time></trkpt><trkpt lat="42.56726611150248" lon="14.054819467410361"><ele>253.0</ele><time>2026-05-01T18:35:46Z</time></trkpt><trkpt lat="42.56738168468163" lon="14.054822590922212"><ele>251.0</ele><time>2026-05-01T18:35:47Z</time></trkpt><trkpt lat="42.56748615042351" lon="14.054826802289497"><ele>251.00000000000003</ele><time>2026-05-01T18:35:48Z</time></trkpt><trkpt lat="42.56757581568356" lon="14.05479704949258"><ele>251.0</ele><time>2026-05-01T18:35:49Z</time></trkpt><trkpt lat="42.56764157929344" lon="14.054736867335956"><ele>251.0</ele><time>2026-05-01T18:35:50Z</time></trkpt><trkpt lat="42.56767703172532" lon="14.054641541462349"><ele>251.0</ele><time>2026-05-01T18:35:51Z</time></trkpt><trkpt lat="42.5676961926776" lon="14.0545211961015"><ele>251.00000000000003</ele><time>2026-05-01T18:35:52Z</time></trkpt><trkpt lat="42.56772699750686" lon="14.05438298114087"><ele>251.0</ele><time>2026-05-01T18:35:53Z</time></trkpt><trkpt lat="42.5677508880275" lon="14.054220685484939"><ele>253.0</ele><time>2026-05-01T18:35:54Z</time></trkpt><trkpt lat="42.56777526053559" lon="14.05404052157852"><ele>255.0</ele><time>2026-05-01T18:35:55Z</time></trkpt><trkpt lat="42.56783471106384" lon="14.053872509088789"><ele>257.0</ele><time>2026-05-01T18:35:56Z</time></trkpt><trkpt lat="42.56792473254716" lon="14.053743690984264"><ele>259.0</ele><time>2026-05-01T18:35:57Z</time></trkpt><trkpt lat="42.56802278347239" lon="14.053632167802588"><ele>255.2</ele><time>2026-05-01T18:35:58Z</time></trkpt><trkpt lat="42.56812615435008" lon="14.05352216460341"><ele>251.39999999999998</ele><time>2026-05-01T18:35:59Z</time></trkpt><trkpt lat="42.56820598961242" lon="14.053428775554913"><ele>247.6</ele><time>2026-05-01T18:36:00Z</time></trkpt><trkpt lat="42.56826350556601" lon="14.053378103287583"><ele>243.8</ele><time>2026-05-01T18:36:01Z</time></trkpt><trkpt lat="42.56838664783254" lon="14.053341121498569"><ele>240.0</ele><time>2026-05-01T18:36:03Z</time></trkpt><trkpt lat="42.56845328643592" lon="14.053292841948943"><ele>241.6</ele><time>2026-05-01T18:36:04Z</time></trkpt><trkpt lat="42.56852016264545" lon="14.053178867634022"><ele>243.2</ele><time>2026-05-01T18:36:05Z</time></trkpt><trkpt lat="42.568590934519776" lon="14.053046410579576"><ele>244.8</ele><time>2026-05-01T18:36:06Z</time></trkpt><trkpt lat="42.56866292546826" lon="14.05292799370054"><ele>246.4</ele><time>2026-05-01T18:36:06.999Z</time></trkpt><trkpt lat="42.56872864898343" lon="14.052811739322149"><ele>248.0</ele><time>2026-05-01T18:36:07.999Z</time></trkpt><trkpt lat="42.568776218841165" lon="14.052717573515581"><ele>243.83333333333334</ele><time>2026-05-01T18:36:08.999Z</time></trkpt><trkpt lat="42.568842807783426" lon="14.052680159265044"><ele>239.66666666666669</ele><time>2026-05-01T18:36:09.999Z</time></trkpt><trkpt lat="42.56894598205715" lon="14.052668914317236"><ele>235.5</ele><time>2026-05-01T18:36:11.999Z</time></trkpt><trkpt lat="42.56899194660296" lon="14.052744338758883"><ele>231.33333333333331</ele><time>2026-05-01T18:36:12.999Z</time></trkpt><trkpt lat="42.56898821924204" lon="14.052866049740256"><ele>227.16666666666666</ele><time>2026-05-01T18:36:13.999Z</time></trkpt><trkpt lat="42.568991032524224" lon="14.052990525980858"><ele>223.0</ele><time>2026-05-01T18:36:14.999Z</time></trkpt><trkpt lat="42.56899508654043" lon="14.053139910536714"><ele>221.75</ele><time>2026-05-01T18:36:15.999Z</time></trkpt><trkpt lat="42.56899856707692" lon="14.053299371642472"><ele>220.5</ele><time>2026-05-01T18:36:16.999Z</time></trkpt><trkpt lat="42.568999746561005" lon="14.053482666611869"><ele>219.25</ele><time>2026-05-01T18:36:17.999Z</time></trkpt><trkpt lat="42.568992876204824" lon="14.053677904833334"><ele>218.0</ele><time>2026-05-01T18:36:18.999Z</time></trkpt><trkpt lat="42.568981516524374" lon="14.053874040518126"><ele>218.0</ele><time>2026-05-01T18:36:19.999Z</time></trkpt><trkpt lat="42.56896932760161" lon="14.05406461301068"><ele>218.0</ele><time>2026-05-01T18:36:20.999Z</time></trkpt><trkpt lat="42.56895662485525" lon="14.054251472205031"><ele>218.0</ele><time>2026-05-01T18:36:21.999Z</time></trkpt><trkpt lat="42.568940090242904" lon="14.05443970816098"><ele>218.0</ele><time>2026-05-01T18:36:22.999Z</time></trkpt><trkpt lat="42.56891628381468" lon="14.054634047654158"><ele>216.66666666666669</ele><time>2026-05-01T18:36:23.999Z</time></trkpt><trkpt lat="42.56887715392583" lon="14.054841633051742"><ele>215.33333333333331</ele><time>2026-05-01T18:36:24.999Z</time></trkpt><trkpt lat="42.56882985526037" lon="14.055038302134356"><ele>214.0</ele><time>2026-05-01T18:36:25.999Z</time></trkpt><trkpt lat="42.56877892908552" lon="14.055222019557137"><ele>213.0</ele><time>2026-05-01T18:36:26.999Z</time></trkpt><trkpt lat="42.56873291794488" lon="14.055382469472713"><ele>212.0</ele><time>2026-05-01T18:36:27.999Z</time></trkpt><trkpt lat="42.56868845263428" lon="14.05553662289474"><ele>211.0</ele><time>2026-05-01T18:36:28.999Z</time></trkpt><trkpt lat="42.56864726640055" lon="14.055690273586968"><ele>210.0</ele><time>2026-05-01T18:36:29.999Z</time></trkpt><trkpt lat="42.56861891490139" lon="14.055827291811427"><ele>210.0</ele><time>2026-05-01T18:36:30.999Z</time></trkpt><trkpt lat="42.568609343950484" lon="14.055960803917019"><ele>210.0</ele><time>2026-05-01T18:36:31.999Z</time></trkpt><trkpt lat="42.56862329989677" lon="14.056080808571624"><ele>210.0</ele><time>2026-05-01T18:36:32.999Z</time></trkpt><trkpt lat="42.56865789866978" lon="14.056184142148512"><ele>210.0</ele><time>2026-05-01T18:36:33.999Z</time></trkpt><trkpt lat="42.568725679650086" lon="14.056253070737505"><ele>210.0</ele><time>2026-05-01T18:36:34.999Z</time></trkpt><trkpt lat="42.56880001786936" lon="14.05625288358667"><ele>210.0</ele><time>2026-05-01T18:36:35.999Z</time></trkpt><trkpt lat="42.56886651726251" lon="14.056238860935505"><ele>208.4</ele><time>2026-05-01T18:36:36.999Z</time></trkpt><trkpt lat="42.56893271915929" lon="14.05618565227677"><ele>206.8</ele><time>2026-05-01T18:36:37.999Z</time></trkpt><trkpt lat="42.56900490896208" lon="14.05610065466468"><ele>205.2</ele><time>2026-05-01T18:36:38.999Z</time></trkpt><trkpt lat="42.56909277567779" lon="14.056000070427485"><ele>203.6</ele><time>2026-05-01T18:36:39.999Z</time></trkpt><trkpt lat="42.56918935566851" lon="14.055885496516053"><ele>202.0</ele><time>2026-05-01T18:36:40.999Z</time></trkpt><trkpt lat="42.56928598505069" lon="14.055764048302708"><ele>202.0</ele><time>2026-05-01T18:36:41.999Z</time></trkpt><trkpt lat="42.569378959774646" lon="14.055638038421456"><ele>202.0</ele><time>2026-05-01T18:36:42.999Z</time></trkpt><trkpt lat="42.569466756395045" lon="14.055513916583283"><ele>202.0</ele><time>2026-05-01T18:36:43.999Z</time></trkpt><trkpt lat="42.5695389927499" lon="14.055390644157509"><ele>202.0</ele><time>2026-05-01T18:36:44.999Z</time></trkpt><trkpt lat="42.56960143655897" lon="14.055252933947095"><ele>199.5</ele><time>2026-05-01T18:36:45.999Z</time></trkpt><trkpt lat="42.569682219417444" lon="14.055122328385917"><ele>197.0</ele><time>2026-05-01T18:36:46.999Z</time></trkpt><trkpt lat="42.56975364858487" lon="14.054982589525956"><ele>194.5</ele><time>2026-05-01T18:36:47.999Z</time></trkpt><trkpt lat="42.56983158612055" lon="14.054867715693273"><ele>192.0</ele><time>2026-05-01T18:36:48.999Z</time></trkpt><trkpt lat="42.5699246736354" lon="14.054789029515037"><ele>192.0</ele><time>2026-05-01T18:36:49.999Z</time></trkpt><trkpt lat="42.570026619043006" lon="14.054755646658405"><ele>192.0</ele><time>2026-05-01T18:36:50.999Z</time></trkpt><trkpt lat="42.570133862412355" lon="14.054725911738194"><ele>192.0</ele><time>2026-05-01T18:36:51.999Z</time></trkpt><trkpt lat="42.57022522380931" lon="14.05465440340411"><ele>192.0</ele><time>2026-05-01T18:36:52.999Z</time></trkpt><trkpt lat="42.57029995568664" lon="14.054563727585405"><ele>192.0</ele><time>2026-05-01T18:36:53.999Z</time></trkpt><trkpt lat="42.570369273796835" lon="14.054429382047957"><ele>187.0</ele><time>2026-05-01T18:36:54.999Z</time></trkpt><trkpt lat="42.57046689999864" lon="14.05428231334532"><ele>182.0</ele><time>2026-05-01T18:36:55.998Z</time></trkpt><trkpt lat="42.57054122558512" lon="14.05410604969361"><ele>177.0</ele><time>2026-05-01T18:36:56.998Z</time></trkpt><trkpt lat="42.57061926387633" lon="14.053960609312966"><ele>172.0</ele><time>2026-05-01T18:36:57.998Z</time></trkpt><trkpt lat="42.57069690828304" lon="14.053833654092067"><ele>172.0</ele><time>2026-05-01T18:36:58.998Z</time></trkpt><trkpt lat="42.57071445139861" lon="14.053683058448478"><ele>172.0</ele><time>2026-05-01T18:36:59.998Z</time></trkpt><trkpt lat="42.570755473133616" lon="14.05359620841624"><ele>172.0</ele><time>2026-05-01T18:37:00.998Z</time></trkpt><trkpt lat="42.570821390204394" lon="14.053487882213863"><ele>172.0</ele><time>2026-05-01T18:37:02.998Z</time></trkpt><trkpt lat="42.57093654671186" lon="14.053556722999513"><ele>172.0</ele><time>2026-05-01T18:37:04.998Z</time></trkpt><trkpt lat="42.57095522320595" lon="14.053664336570144"><ele>172.0</ele><time>2026-05-01T18:37:05.998Z</time></trkpt><trkpt lat="42.57097105250637" lon="14.053766511787606"><ele>172.0</ele><time>2026-05-01T18:37:06.998Z</time></trkpt><trkpt lat="42.57098090926639" lon="14.053897769842965"><ele>172.0</ele><time>2026-05-01T18:37:07.998Z</time></trkpt><trkpt lat="42.57098542276878" lon="14.054037096523878"><ele>172.0</ele><time>2026-05-01T18:37:08.998Z</time></trkpt><trkpt lat="42.57099857402169" lon="14.05418333922338"><ele>172.0</ele><time>2026-05-01T18:37:09.998Z</time></trkpt><trkpt lat="42.57099200504552" lon="14.054339462018927"><ele>171.25</ele><time>2026-05-01T18:37:10.998Z</time></trkpt><trkpt lat="42.570988614511435" lon="14.054503374336122"><ele>170.5</ele><time>2026-05-01T18:37:11.998Z</time></trkpt><trkpt lat="42.57098845755661" lon="14.054668456034781"><ele>169.75</ele><time>2026-05-01T18:37:12.998Z</time></trkpt><trkpt lat="42.57098684547016" lon="14.054836645144013"><ele>169.0</ele><time>2026-05-01T18:37:13.998Z</time></trkpt><trkpt lat="42.57100469866184" lon="14.054995904310257"><ele>167.0</ele><time>2026-05-01T18:37:14.998Z</time></trkpt><trkpt lat="42.57103628596981" lon="14.055150088217463"><ele>165.0</ele><time>2026-05-01T18:37:15.998Z</time></trkpt><trkpt lat="42.57104453632267" lon="14.055308064734751"><ele>163.0</ele><time>2026-05-01T18:37:16.998Z</time></trkpt><trkpt lat="42.571041955018046" lon="14.055458365137307"><ele>161.0</ele><time>2026-05-01T18:37:17.998Z</time></trkpt><trkpt lat="42.5710086958398" lon="14.05559602237513"><ele>161.0</ele><time>2026-05-01T18:37:18.998Z</time></trkpt><trkpt lat="42.570973972875855" lon="14.055723627186776"><ele>161.0</ele><time>2026-05-01T18:37:19.998Z</time></trkpt><trkpt lat="42.57093213901339" lon="14.0558540590907"><ele>161.0</ele><time>2026-05-01T18:37:20.998Z</time></trkpt><trkpt lat="42.5708973899237" lon="14.056010486086517"><ele>161.0</ele><time>2026-05-01T18:37:21.998Z</time></trkpt><trkpt lat="42.57084278074049" lon="14.05617347067578"><ele>159.25</ele><time>2026-05-01T18:37:22.998Z</time></trkpt><trkpt lat="42.57078801349018" lon="14.05634310097119"><ele>157.5</ele><time>2026-05-01T18:37:23.998Z</time></trkpt><trkpt lat="42.570732083658086" lon="14.056519753947017"><ele>155.75</ele><time>2026-05-01T18:37:24.998Z</time></trkpt><trkpt lat="42.57067701503208" lon="14.056706340560615"><ele>154.0</ele><time>2026-05-01T18:37:25.998Z</time></trkpt><trkpt lat="42.57062773181095" lon="14.056886452004651"><ele>151.75</ele><time>2026-05-01T18:37:26.998Z</time></trkpt><trkpt lat="42.57057560124918" lon="14.057056796687657"><ele>149.5</ele><time>2026-05-01T18:37:27.998Z</time></trkpt><trkpt lat="42.57053467131197" lon="14.05723610153063"><ele>147.25</ele><time>2026-05-01T18:37:28.998Z</time></trkpt><trkpt lat="42.57048776409782" lon="14.05741736287636"><ele>145.0</ele><time>2026-05-01T18:37:29.998Z</time></trkpt><trkpt lat="42.570439376617195" lon="14.057604768483886"><ele>141.33333333333334</ele><time>2026-05-01T18:37:30.998Z</time></trkpt><trkpt lat="42.570388092138536" lon="14.057800259926681"><ele>137.66666666666666</ele><time>2026-05-01T18:37:31.998Z</time></trkpt><trkpt lat="42.57033516544895" lon="14.057992627898013"><ele>134.0</ele><time>2026-05-01T18:37:32.998Z</time></trkpt><trkpt lat="42.57028356584695" lon="14.058184055850438"><ele>137.5</ele><time>2026-05-01T18:37:33.998Z</time></trkpt><trkpt lat="42.57023936193543" lon="14.058361524550662"><ele>141.0</ele><time>2026-05-01T18:37:34.998Z</time></trkpt><trkpt lat="42.57018649716637" lon="14.058501347098872"><ele>144.5</ele><time>2026-05-01T18:37:35.998Z</time></trkpt><trkpt lat="42.570162640749864" lon="14.058652983865924"><ele>148.0</ele><time>2026-05-01T18:37:36.998Z</time></trkpt><trkpt lat="42.570105528385966" lon="14.058783325327095"><ele>148.0</ele><time>2026-05-01T18:37:37.998Z</time></trkpt><trkpt lat="42.57006369060105" lon="14.05891538524772"><ele>148.0</ele><time>2026-05-01T18:37:38.998Z</time></trkpt><trkpt lat="42.57002300630644" lon="14.059043804231655"><ele>148.0</ele><time>2026-05-01T18:37:39.998Z</time></trkpt><trkpt lat="42.56998289940864" lon="14.059164259968966"><ele>148.0</ele><time>2026-05-01T18:37:40.998Z</time></trkpt><trkpt lat="42.56994537245641" lon="14.05928124492489"><ele>148.0</ele><time>2026-05-01T18:37:41.998Z</time></trkpt><trkpt lat="42.56992423683145" lon="14.059384865000984"><ele>146.0</ele><time>2026-05-01T18:37:42.998Z</time></trkpt><trkpt lat="42.569920446358715" lon="14.059494434962646"><ele>144.0</ele><time>2026-05-01T18:37:44Z</time></trkpt><trkpt lat="42.56995359317516" lon="14.05960763766894"><ele>142.0</ele><time>2026-05-01T18:37:45Z</time></trkpt><trkpt lat="42.570019224297006" lon="14.0596874860846"><ele>140.0</ele><time>2026-05-01T18:37:46Z</time></trkpt><trkpt lat="42.57008229674095" lon="14.059773535287771"><ele>138.0</ele><time>2026-05-01T18:37:47Z</time></trkpt><trkpt lat="42.57015474094049" lon="14.059874954919165"><ele>135.83333333333334</ele><time>2026-05-01T18:37:48Z</time></trkpt><trkpt lat="42.57022218672751" lon="14.059979654942955"><ele>133.66666666666666</ele><time>2026-05-01T18:37:49Z</time></trkpt><trkpt lat="42.57028692800256" lon="14.060080168241315"><ele>131.5</ele><time>2026-05-01T18:37:50Z</time></trkpt><trkpt lat="42.57034523829043" lon="14.06016277162388"><ele>129.33333333333331</ele><time>2026-05-01T18:37:51Z</time></trkpt><trkpt lat="42.57040315643584" lon="14.06022927162442"><ele>127.16666666666666</ele><time>2026-05-01T18:37:52Z</time></trkpt><trkpt lat="42.570458440591885" lon="14.060271202341307"><ele>125.0</ele><time>2026-05-01T18:37:53Z</time></trkpt><trkpt lat="42.57056393973302" lon="14.060288884341277"><ele>124.83333333333333</ele><time>2026-05-01T18:37:55Z</time></trkpt><trkpt lat="42.57060725274475" lon="14.06020226470143"><ele>124.66666666666666</ele><time>2026-05-01T18:37:56Z</time></trkpt><trkpt lat="42.57062638304065" lon="14.060113562102813"><ele>124.5</ele><time>2026-05-01T18:37:57Z</time></trkpt><trkpt lat="42.57064503563581" lon="14.059994271818617"><ele>124.33333333333334</ele><time>2026-05-01T18:37:58Z</time></trkpt><trkpt lat="42.5706395244424" lon="14.05983914806046"><ele>124.16666666666667</ele><time>2026-05-01T18:37:59Z</time></trkpt><trkpt lat="42.57064232341661" lon="14.059732159936878"><ele>124.0</ele><time>2026-05-01T18:38:00Z</time></trkpt><trkpt lat="42.570692302535036" lon="14.059600197222563"><ele>124.0</ele><time>2026-05-01T18:38:02Z</time></trkpt><trkpt lat="42.57079723057343" lon="14.05958229706571"><ele>124.0</ele><time>2026-05-01T18:38:04Z</time></trkpt><trkpt lat="42.570861082648065" lon="14.059648613547681"><ele>124.0</ele><time>2026-05-01T18:38:05Z</time></trkpt><trkpt lat="42.57090114464911" lon="14.059765187839027"><ele>124.0</ele><time>2026-05-01T18:38:06Z</time></trkpt><trkpt lat="42.5709698229777" lon="14.059874279442797"><ele>124.0</ele><time>2026-05-01T18:38:07Z</time></trkpt><trkpt lat="42.57104165016267" lon="14.060031108898649"><ele>122.5</ele><time>2026-05-01T18:38:08Z</time></trkpt><trkpt lat="42.571119253376516" lon="14.060186897042076"><ele>121.0</ele><time>2026-05-01T18:38:09Z</time></trkpt><trkpt lat="42.57117296743888" lon="14.060341092275799"><ele>119.5</ele><time>2026-05-01T18:38:09.999Z</time></trkpt><trkpt lat="42.57123156837198" lon="14.060472940380293"><ele>118.0</ele><time>2026-05-01T18:38:10.999Z</time></trkpt><trkpt lat="42.571270856520975" lon="14.060585468674702"><ele>114.2</ele><time>2026-05-01T18:38:11.999Z</time></trkpt><trkpt lat="42.57131069645643" lon="14.060696542484543"><ele>110.4</ele><time>2026-05-01T18:38:12.999Z</time></trkpt><trkpt lat="42.57128940774223" lon="14.060819432735569"><ele>106.60000000000001</ele><time>2026-05-01T18:38:13.999Z</time></trkpt><trkpt lat="42.57126451982893" lon="14.060958694623068"><ele>102.80000000000001</ele><time>2026-05-01T18:38:14.999Z</time></trkpt><trkpt lat="42.57123396372855" lon="14.061124155975843"><ele>99.0</ele><time>2026-05-01T18:38:15.999Z</time></trkpt><trkpt lat="42.571203649474946" lon="14.061265781961103"><ele>98.2</ele><time>2026-05-01T18:38:16.999Z</time></trkpt><trkpt lat="42.57117990666915" lon="14.061396579358577"><ele>97.4</ele><time>2026-05-01T18:38:17.999Z</time></trkpt><trkpt lat="42.57117384627495" lon="14.061527422720957"><ele>96.6</ele><time>2026-05-01T18:38:18.999Z</time></trkpt><trkpt lat="42.57119098758376" lon="14.061654706704548"><ele>95.8</ele><time>2026-05-01T18:38:19.999Z</time></trkpt><trkpt lat="42.57122010904557" lon="14.061808113357495"><ele>95.0</ele><time>2026-05-01T18:38:20.999Z</time></trkpt><trkpt lat="42.571256861695" lon="14.061986462425754"><ele>95.0</ele><time>2026-05-01T18:38:21.999Z</time></trkpt><trkpt lat="42.5712839491036" lon="14.06215680305453"><ele>95.0</ele><time>2026-05-01T18:38:22.999Z</time></trkpt><trkpt lat="42.571309237573715" lon="14.062320002530404"><ele>95.0</ele><time>2026-05-01T18:38:23.999Z</time></trkpt><trkpt lat="42.5713413046326" lon="14.062456149971593"><ele>95.0</ele><time>2026-05-01T18:38:24.999Z</time></trkpt><trkpt lat="42.571377254645746" lon="14.062554444609747"><ele>95.0</ele><time>2026-05-01T18:38:25.999Z</time></trkpt><trkpt lat="42.57145699083354" lon="14.062624783567639"><ele>94.0</ele><time>2026-05-01T18:38:26.999Z</time></trkpt><trkpt lat="42.571535200887816" lon="14.062687307431963"><ele>93.0</ele><time>2026-05-01T18:38:27.999Z</time></trkpt><trkpt lat="42.57162976999935" lon="14.062739639644306"><ele>92.0</ele><time>2026-05-01T18:38:28.999Z</time></trkpt><trkpt lat="42.57173462456229" lon="14.062797559122536"><ele>91.0</ele><time>2026-05-01T18:38:29.999Z</time></trkpt><trkpt lat="42.57182912055099" lon="14.062891754605008"><ele>90.0</ele><time>2026-05-01T18:38:30.999Z</time></trkpt><trkpt lat="42.57192643112949" lon="14.06296832410857"><ele>89.0</ele><time>2026-05-01T18:38:31.999Z</time></trkpt><trkpt lat="42.572032680573486" lon="14.063034511895388"><ele>88.0</ele><time>2026-05-01T18:38:32.999Z</time></trkpt><trkpt lat="42.57213118341325" lon="14.063124287242092"><ele>87.0</ele><time>2026-05-01T18:38:33.999Z</time></trkpt><trkpt lat="42.57222761648849" lon="14.063211795276697"><ele>86.0</ele><time>2026-05-01T18:38:34.999Z</time></trkpt><trkpt lat="42.572317159410325" lon="14.063298809370725"><ele>85.19999999999999</ele><time>2026-05-01T18:38:35.999Z</time></trkpt><trkpt lat="42.57239473502809" lon="14.063397846496489"><ele>84.39999999999999</ele><time>2026-05-01T18:38:36.999Z</time></trkpt><trkpt lat="42.57245741914892" lon="14.063506175687879"><ele>83.6</ele><time>2026-05-01T18:38:37.999Z</time></trkpt><trkpt lat="42.572497960834475" lon="14.063605261530649"><ele>82.8</ele><time>2026-05-01T18:38:38.999Z</time></trkpt><trkpt lat="42.57252101617615" lon="14.06370860038875"><ele>82.0</ele><time>2026-05-01T18:38:39.999Z</time></trkpt><trkpt lat="42.57251824621979" lon="14.063829518140691"><ele>82.0</ele><time>2026-05-01T18:38:40.999Z</time></trkpt><trkpt lat="42.57251164211717" lon="14.063957790122966"><ele>82.0</ele><time>2026-05-01T18:38:41.999Z</time></trkpt><trkpt lat="42.57249264402716" lon="14.064057834392106"><ele>82.0</ele><time>2026-05-01T18:38:42.999Z</time></trkpt><trkpt lat="42.572480441999744" lon="14.06415657544636"><ele>82.0</ele><time>2026-05-01T18:38:43.999Z</time></trkpt><trkpt lat="42.57248910364112" lon="14.064242214710132"><ele>82.0</ele><time>2026-05-01T18:38:44.999Z</time></trkpt><trkpt lat="42.57255425824335" lon="14.064387152834888"><ele>82.0</ele><time>2026-05-01T18:38:46.999Z</time></trkpt><trkpt lat="42.57265268018181" lon="14.064433971147242"><ele>82.0</ele><time>2026-05-01T18:38:48.999Z</time></trkpt><trkpt lat="42.572714732039266" lon="14.064314964677688"><ele>82.0</ele><time>2026-05-01T18:38:49.999Z</time></trkpt><trkpt lat="42.57276659481729" lon="14.064213148255023"><ele>82.0</ele><time>2026-05-01T18:38:50.999Z</time></trkpt><trkpt lat="42.57281838368746" lon="14.064093929704859"><ele>82.0</ele><time>2026-05-01T18:38:51.999Z</time></trkpt><trkpt lat="42.57288084854024" lon="14.064010171506203"><ele>82.0</ele><time>2026-05-01T18:38:52.999Z</time></trkpt><trkpt lat="42.572928648802844" lon="14.063917165708165"><ele>79.16666666666666</ele><time>2026-05-01T18:38:53.998Z</time></trkpt><trkpt lat="42.572975589299325" lon="14.06385143214949"><ele>76.33333333333333</ele><time>2026-05-01T18:38:54.998Z</time></trkpt><trkpt lat="42.57306467454992" lon="14.063814131296567"><ele>73.5</ele><time>2026-05-01T18:38:56.998Z</time></trkpt><trkpt lat="42.573149143480705" lon="14.06387711177906"><ele>70.66666666666667</ele><time>2026-05-01T18:38:58.998Z</time></trkpt><trkpt lat="42.57316737487539" lon="14.063963042170846"><ele>67.83333333333334</ele><time>2026-05-01T18:38:59.998Z</time></trkpt><trkpt lat="42.57314150506004" lon="14.064056627025003"><ele>65.0</ele><time>2026-05-01T18:39:00.998Z</time></trkpt><trkpt lat="42.573116899294845" lon="14.064167762685223"><ele>63.75</ele><time>2026-05-01T18:39:01.998Z</time></trkpt><trkpt lat="42.57308332073838" lon="14.064307422292075"><ele>62.5</ele><time>2026-05-01T18:39:02.998Z</time></trkpt><trkpt lat="42.573041740741054" lon="14.06447343731194"><ele>61.25</ele><time>2026-05-01T18:39:03.998Z</time></trkpt><trkpt lat="42.573003848916144" lon="14.064633790360473"><ele>60.0</ele><time>2026-05-01T18:39:04.998Z</time></trkpt><trkpt lat="42.57296703467393" lon="14.064790385870703"><ele>59.25</ele><time>2026-05-01T18:39:05.998Z</time></trkpt><trkpt lat="42.572930341770196" lon="14.064949317311985"><ele>58.5</ele><time>2026-05-01T18:39:06.998Z</time></trkpt><trkpt lat="42.57289500213039" lon="14.065106111562748"><ele>57.75</ele><time>2026-05-01T18:39:07.998Z</time></trkpt><trkpt lat="42.57285899031262" lon="14.065276000224182"><ele>57.0</ele><time>2026-05-01T18:39:08.998Z</time></trkpt><trkpt lat="42.57282474666288" lon="14.065461782304789"><ele>57.0</ele><time>2026-05-01T18:39:09.998Z</time></trkpt><trkpt lat="42.57279007566191" lon="14.065655667430253"><ele>57.0</ele><time>2026-05-01T18:39:10.998Z</time></trkpt><trkpt lat="42.5727563288516" lon="14.065840521016199"><ele>57.0</ele><time>2026-05-01T18:39:11.998Z</time></trkpt><trkpt lat="42.57272268442247" lon="14.066018496384745"><ele>57.0</ele><time>2026-05-01T18:39:12.998Z</time></trkpt><trkpt lat="42.572687348366514" lon="14.066183944209435"><ele>54.75</ele><time>2026-05-01T18:39:13.998Z</time></trkpt><trkpt lat="42.572646022214016" lon="14.066343704813299"><ele>52.5</ele><time>2026-05-01T18:39:14.998Z</time></trkpt><trkpt lat="42.57259410828215" lon="14.066508005350121"><ele>50.25</ele><time>2026-05-01T18:39:15.998Z</time></trkpt><trkpt lat="42.572541494938015" lon="14.066675441769554"><ele>48.0</ele><time>2026-05-01T18:39:16.998Z</time></trkpt><trkpt lat="42.57248992463222" lon="14.066839558104668"><ele>46.8</ele><time>2026-05-01T18:39:17.998Z</time></trkpt><trkpt lat="42.57244419533708" lon="14.066992108777852"><ele>45.599999999999994</ele><time>2026-05-01T18:39:18.998Z</time></trkpt><trkpt lat="42.57240476435007" lon="14.067138695173002"><ele>44.400000000000006</ele><time>2026-05-01T18:39:19.998Z</time></trkpt><trkpt lat="42.57237033811398" lon="14.067279361571021"><ele>43.2</ele><time>2026-05-01T18:39:20.998Z</time></trkpt><trkpt lat="42.572341034425044" lon="14.06741493769961"><ele>42.0</ele><time>2026-05-01T18:39:21.998Z</time></trkpt><trkpt lat="42.57231207686875" lon="14.067552555348167"><ele>40.75</ele><time>2026-05-01T18:39:22.998Z</time></trkpt><trkpt lat="42.572280767118414" lon="14.06770135155493"><ele>39.5</ele><time>2026-05-01T18:39:23.998Z</time></trkpt><trkpt lat="42.57224458169906" lon="14.067853831204353"><ele>38.25</ele><time>2026-05-01T18:39:24.998Z</time></trkpt><trkpt lat="42.5722091409834" lon="14.067996743211024"><ele>37.0</ele><time>2026-05-01T18:39:25.998Z</time></trkpt><trkpt lat="42.57217348921156" lon="14.068139265290947"><ele>36.25</ele><time>2026-05-01T18:39:26.998Z</time></trkpt><trkpt lat="42.57213692552018" lon="14.068288690002722"><ele>35.5</ele><time>2026-05-01T18:39:27.998Z</time></trkpt><trkpt lat="42.57209919587076" lon="14.068446475170589"><ele>34.75</ele><time>2026-05-01T18:39:28.998Z</time></trkpt><trkpt lat="42.57206040901172" lon="14.068608682294375"><ele>34.0</ele><time>2026-05-01T18:39:29.998Z</time></trkpt><trkpt lat="42.572023077066596" lon="14.068760628325519"><ele>37.5</ele><time>2026-05-01T18:39:30.998Z</time></trkpt><trkpt lat="42.57198615321624" lon="14.068910467729998"><ele>41.0</ele><time>2026-05-01T18:39:31.998Z</time></trkpt><trkpt lat="42.57194896301361" lon="14.069061388619424"><ele>44.5</ele><time>2026-05-01T18:39:32.998Z</time></trkpt><trkpt lat="42.57191224746344" lon="14.06921038295012"><ele>48.0</ele><time>2026-05-01T18:39:33.998Z</time></trkpt><trkpt lat="42.57187554186766" lon="14.069359336609322"><ele>48.0</ele><time>2026-05-01T18:39:34.998Z</time></trkpt><trkpt lat="42.57184272870088" lon="14.069503208621914"><ele>48.0</ele><time>2026-05-01T18:39:35.998Z</time></trkpt><trkpt lat="42.57181158793702" lon="14.069645689226471"><ele>48.0</ele><time>2026-05-01T18:39:36.998Z</time></trkpt><trkpt lat="42.571779418234286" lon="14.069799800058748"><ele>48.0</ele><time>2026-05-01T18:39:37.998Z</time></trkpt><trkpt lat="42.57174572642774" lon="14.069966780029185"><ele>47.75</ele><time>2026-05-01T18:39:38.998Z</time></trkpt><trkpt lat="42.57170922292432" lon="14.07014769462011"><ele>47.5</ele><time>2026-05-01T18:39:39.998Z</time></trkpt><trkpt lat="42.57166862252999" lon="14.07032504226549"><ele>47.25</ele><time>2026-05-01T18:39:40.998Z</time></trkpt><trkpt lat="42.571633174977485" lon="14.070475147720929"><ele>47.0</ele><time>2026-05-01T18:39:41.998Z</time></trkpt><trkpt lat="42.57160022281477" lon="14.07061256148516"><ele>47.0</ele><time>2026-05-01T18:39:42.998Z</time></trkpt><trkpt lat="42.571567227848895" lon="14.070743540614748"><ele>47.0</ele><time>2026-05-01T18:39:43.997Z</time></trkpt><trkpt lat="42.57153383904052" lon="14.070874742584033"><ele>47.0</ele><time>2026-05-01T18:39:44.997Z</time></trkpt><trkpt lat="42.57150375982896" lon="14.0710026141615"><ele>47.0</ele><time>2026-05-01T18:39:45.997Z</time></trkpt><trkpt lat="42.571476974723765" lon="14.071136183966644"><ele>47.0</ele><time>2026-05-01T18:39:46.997Z</time></trkpt><trkpt lat="42.57146795136394" lon="14.071278689027812"><ele>46.8</ele><time>2026-05-01T18:39:47.997Z</time></trkpt><trkpt lat="42.57145506543101" lon="14.071420815216788"><ele>46.6</ele><time>2026-05-01T18:39:48.997Z</time></trkpt><trkpt lat="42.571426310032805" lon="14.0715542856069"><ele>46.4</ele><time>2026-05-01T18:39:50Z</time></trkpt><trkpt lat="42.5714171068899" lon="14.071682972633871"><ele>46.199999999999996</ele><time>2026-05-01T18:39:51Z</time></trkpt><trkpt lat="42.57141138245831" lon="14.071816324502842"><ele>46.0</ele><time>2026-05-01T18:39:52Z</time></trkpt><trkpt lat="42.57140994612681" lon="14.071959562138202"><ele>45.4</ele><time>2026-05-01T18:39:53Z</time></trkpt><trkpt lat="42.571426486513936" lon="14.072097243736508"><ele>44.8</ele><time>2026-05-01T18:39:54Z</time></trkpt><trkpt lat="42.57140649380592" lon="14.072234075146147"><ele>44.199999999999996</ele><time>2026-05-01T18:39:55Z</time></trkpt><trkpt lat="42.57139829367586" lon="14.072382142498537"><ele>43.599999999999994</ele><time>2026-05-01T18:39:56Z</time></trkpt><trkpt lat="42.5713839596327" lon="14.072544493826964"><ele>43.0</ele><time>2026-05-01T18:39:57Z</time></trkpt><trkpt lat="42.571363500154895" lon="14.072708243783518"><ele>43.0</ele><time>2026-05-01T18:39:58Z</time></trkpt><trkpt lat="42.57133955830146" lon="14.072866324283961"><ele>43.0</ele><time>2026-05-01T18:39:59Z</time></trkpt><trkpt lat="42.57131314877663" lon="14.07302030175066"><ele>43.0</ele><time>2026-05-01T18:40:00Z</time></trkpt><trkpt lat="42.571300088570425" lon="14.073162054687439"><ele>43.0</ele><time>2026-05-01T18:40:01Z</time></trkpt><trkpt lat="42.5712720684122" lon="14.073283327468847"><ele>43.0</ele><time>2026-05-01T18:40:02Z</time></trkpt><trkpt lat="42.57125302069724" lon="14.073390551184326"><ele>43.0</ele><time>2026-05-01T18:40:03Z</time></trkpt><trkpt lat="42.571238821318886" lon="14.073474861632892"><ele>43.0</ele><time>2026-05-01T18:40:04Z</time></trkpt><trkpt lat="42.57123573068872" lon="14.073583936824232"><ele>43.0</ele><time>2026-05-01T18:40:06Z</time></trkpt><trkpt lat="42.57133003937656" lon="14.073448427805058"><ele>43.0</ele><time>2026-05-01T18:40:16Z</time></trkpt><trkpt lat="42.57138269658634" lon="14.073319145605781"><ele>43.0</ele><time>2026-05-01T18:40:18Z</time></trkpt><trkpt lat="42.57143101885766" lon="14.073170123292934"><ele>43.0</ele><time>2026-05-01T18:40:20Z</time></trkpt><trkpt lat="42.57147190932019" lon="14.073099608640632"><ele>43.0</ele><time>2026-05-01T18:40:21Z</time></trkpt><trkpt lat="42.57151420623867" lon="14.073028322579919"><ele>43.0</ele><time>2026-05-01T18:40:22Z</time></trkpt><trkpt lat="42.57155567592994" lon="14.072954356916071"><ele>43.0</ele><time>2026-05-01T18:40:23Z</time></trkpt><trkpt lat="42.571608121216734" lon="14.072861172336808"><ele>43.0</ele><time>2026-05-01T18:40:23.999Z</time></trkpt><trkpt lat="42.57167497077027" lon="14.072743355830115"><ele>43.0</ele><time>2026-05-01T18:40:24.999Z</time></trkpt><trkpt lat="42.571751504270715" lon="14.072608235386094"><ele>43.0</ele><time>2026-05-01T18:40:25.999Z</time></trkpt><trkpt lat="42.57182282121153" lon="14.072487502977832"><ele>43.0</ele><time>2026-05-01T18:40:26.999Z</time></trkpt><trkpt lat="42.57189072394871" lon="14.072377792607272"><ele>43.0</ele><time>2026-05-01T18:40:27.999Z</time></trkpt><trkpt lat="42.57195471359659" lon="14.072278870517128"><ele>43.0</ele><time>2026-05-01T18:40:28.999Z</time></trkpt><trkpt lat="42.572017222015916" lon="14.072182783080164"><ele>43.0</ele><time>2026-05-01T18:40:29.999Z</time></trkpt><trkpt lat="42.57208084164447" lon="14.072101320927285"><ele>40.8</ele><time>2026-05-01T18:40:30.999Z</time></trkpt><trkpt lat="42.57214218096497" lon="14.072039428302752"><ele>38.599999999999994</ele><time>2026-05-01T18:40:31.999Z</time></trkpt><trkpt lat="42.57222718941563" lon="14.071927317502576"><ele>36.400000000000006</ele><time>2026-05-01T18:40:33.999Z</time></trkpt><trkpt lat="42.572280281115596" lon="14.07185061289632"><ele>34.2</ele><time>2026-05-01T18:40:34.999Z</time></trkpt><trkpt lat="42.57228893136815" lon="14.071694491063655"><ele>32.0</ele><time>2026-05-01T18:40:35.999Z</time></trkpt><trkpt lat="42.57233656629462" lon="14.07156597211211"><ele>31.999999999999996</ele><time>2026-05-01T18:40:36.999Z</time></trkpt><trkpt lat="42.572376703848995" lon="14.071459855426102"><ele>32.0</ele><time>2026-05-01T18:40:37.999Z</time></trkpt><trkpt lat="42.57242511779533" lon="14.071373005588827"><ele>32.0</ele><time>2026-05-01T18:40:38.999Z</time></trkpt><trkpt lat="42.57249001483904" lon="14.071285470805192"><ele>32.0</ele><time>2026-05-01T18:40:39.999Z</time></trkpt><trkpt lat="42.572558897601326" lon="14.071206123672642"><ele>31.999999999999996</ele><time>2026-05-01T18:40:40.999Z</time></trkpt><trkpt lat="42.57263038913038" lon="14.071146986393968"><ele>32.0</ele><time>2026-05-01T18:40:41.999Z</time></trkpt><trkpt lat="42.57271214839849" lon="14.071128793397854"><ele>32.0</ele><time>2026-05-01T18:40:42.999Z</time></trkpt><trkpt lat="42.57279634382907" lon="14.071142324650623"><ele>32.0</ele><time>2026-05-01T18:40:43.999Z</time></trkpt><trkpt lat="42.57288780924768" lon="14.07113500492193"><ele>32.0</ele><time>2026-05-01T18:40:44.999Z</time></trkpt><trkpt lat="42.57298241706686" lon="14.07111682431486"><ele>32.0</ele><time>2026-05-01T18:40:45.999Z</time></trkpt><trkpt lat="42.573076687460805" lon="14.071050236428754"><ele>32.0</ele><time>2026-05-01T18:40:46.999Z</time></trkpt><trkpt lat="42.57316736988487" lon="14.070970365355468"><ele>31.75</ele><time>2026-05-01T18:40:47.999Z</time></trkpt><trkpt lat="42.573251924054524" lon="14.07085979204906"><ele>31.5</ele><time>2026-05-01T18:40:48.999Z</time></trkpt><trkpt lat="42.573326494600856" lon="14.07073021945905"><ele>31.25</ele><time>2026-05-01T18:40:49.999Z</time></trkpt><trkpt lat="42.573394854937526" lon="14.070587163476759"><ele>31.0</ele><time>2026-05-01T18:40:50.999Z</time></trkpt><trkpt lat="42.573458860545536" lon="14.070439817492824"><ele>31.0</ele><time>2026-05-01T18:40:51.999Z</time></trkpt><trkpt lat="42.573509015220516" lon="14.070298874315334"><ele>31.0</ele><time>2026-05-01T18:40:52.999Z</time></trkpt><trkpt lat="42.573546150625575" lon="14.070170790406618"><ele>31.0</ele><time>2026-05-01T18:40:53.999Z</time></trkpt><trkpt lat="42.573572778323815" lon="14.070055890400337"><ele>31.0</ele><time>2026-05-01T18:40:54.999Z</time></trkpt><trkpt lat="42.5735979658842" lon="14.069946072886715"><ele>31.0</ele><time>2026-05-01T18:40:55.999Z</time></trkpt><trkpt lat="42.57362335683446" lon="14.06980704990343"><ele>30.5</ele><time>2026-05-01T18:40:56.999Z</time></trkpt><trkpt lat="42.573648071304994" lon="14.069652499498705"><ele>30.0</ele><time>2026-05-01T18:40:57.999Z</time></trkpt><trkpt lat="42.57369633958042" lon="14.069501314418272"><ele>29.5</ele><time>2026-05-01T18:40:58.999Z</time></trkpt><trkpt lat="42.573713018728675" lon="14.06933765731918"><ele>29.0</ele><time>2026-05-01T18:40:59.999Z</time></trkpt><trkpt lat="42.57373825073751" lon="14.069186641765658"><ele>30.25</ele><time>2026-05-01T18:41:00.999Z</time></trkpt><trkpt lat="42.57375244739122" lon="14.069036880380013"><ele>31.5</ele><time>2026-05-01T18:41:01.999Z</time></trkpt><trkpt lat="42.5737783425912" lon="14.06887733777802"><ele>32.75</ele><time>2026-05-01T18:41:02.999Z</time></trkpt><trkpt lat="42.5737920335539" lon="14.0687043527025"><ele>34.0</ele><time>2026-05-01T18:41:03.999Z</time></trkpt><trkpt lat="42.57380393389252" lon="14.068538206715006"><ele>34.0</ele><time>2026-05-01T18:41:04.999Z</time></trkpt><trkpt lat="42.573796276885595" lon="14.068398351104376"><ele>34.0</ele><time>2026-05-01T18:41:05.999Z</time></trkpt><trkpt lat="42.57382462183783" lon="14.068288730525516"><ele>34.0</ele><time>2026-05-01T18:41:06.999Z</time></trkpt><trkpt lat="42.573849674700206" lon="14.068183924116765"><ele>34.0</ele><time>2026-05-01T18:41:07.999Z</time></trkpt><trkpt lat="42.57388706930453" lon="14.068071941464249"><ele>34.0</ele><time>2026-05-01T18:41:08.999Z</time></trkpt><trkpt lat="42.573941938636544" lon="14.06796042399649"><ele>33.8</ele><time>2026-05-01T18:41:09.999Z</time></trkpt><trkpt lat="42.57401138031714" lon="14.067862997645872"><ele>33.599999999999994</ele><time>2026-05-01T18:41:10.999Z</time></trkpt><trkpt lat="42.574090850098834" lon="14.067752680246846"><ele>33.4</ele><time>2026-05-01T18:41:11.999Z</time></trkpt><trkpt lat="42.5741678180226" lon="14.067638984651564"><ele>33.199999999999996</ele><time>2026-05-01T18:41:12.999Z</time></trkpt><trkpt lat="42.57422421182547" lon="14.067517776434713"><ele>33.0</ele><time>2026-05-01T18:41:13.999Z</time></trkpt><trkpt lat="42.574279356648525" lon="14.06740679409632"><ele>33.0</ele><time>2026-05-01T18:41:14.998Z</time></trkpt><trkpt lat="42.574332501969096" lon="14.067271186690059"><ele>33.0</ele><time>2026-05-01T18:41:15.998Z</time></trkpt><trkpt lat="42.57438622733133" lon="14.067109504109517"><ele>33.0</ele><time>2026-05-01T18:41:16.998Z</time></trkpt><trkpt lat="42.5744640870858" lon="14.066955391065624"><ele>33.0</ele><time>2026-05-01T18:41:17.998Z</time></trkpt><trkpt lat="42.57452635319185" lon="14.06680917047699"><ele>34.333333333333336</ele><time>2026-05-01T18:41:18.998Z</time></trkpt><trkpt lat="42.574582307364686" lon="14.066694138320917"><ele>35.666666666666664</ele><time>2026-05-01T18:41:19.998Z</time></trkpt><trkpt lat="42.57463705496744" lon="14.066602936218315"><ele>37.0</ele><time>2026-05-01T18:41:20.998Z</time></trkpt><trkpt lat="42.57470669718125" lon="14.066520313037786"><ele>38.33333333333333</ele><time>2026-05-01T18:41:21.998Z</time></trkpt><trkpt lat="42.57477910584889" lon="14.066461931998157"><ele>39.666666666666664</ele><time>2026-05-01T18:41:22.998Z</time></trkpt><trkpt lat="42.57485016126848" lon="14.066417667536802"><ele>41.0</ele><time>2026-05-01T18:41:23.998Z</time></trkpt><trkpt lat="42.574927697175816" lon="14.066407998172794"><ele>41.0</ele><time>2026-05-01T18:41:24.998Z</time></trkpt><trkpt lat="42.575005424446886" lon="14.066400577783833"><ele>41.0</ele><time>2026-05-01T18:41:25.998Z</time></trkpt><trkpt lat="42.575107397031196" lon="14.066450701378862"><ele>41.0</ele><time>2026-05-01T18:41:27.998Z</time></trkpt><trkpt lat="42.57516617338208" lon="14.066527367306206"><ele>41.0</ele><time>2026-05-01T18:41:29.998Z</time></trkpt><trkpt lat="42.5751206925397" lon="14.06663542602787"><ele>41.0</ele><time>2026-05-01T18:41:31.998Z</time></trkpt><trkpt lat="42.57507249493232" lon="14.066727842562708"><ele>41.0</ele><time>2026-05-01T18:41:32.998Z</time></trkpt><trkpt lat="42.57505210088974" lon="14.066821845575054"><ele>41.199999999999996</ele><time>2026-05-01T18:41:33.998Z</time></trkpt><trkpt lat="42.575110674441284" lon="14.06696765744685"><ele>41.4</ele><time>2026-05-01T18:41:35.998Z</time></trkpt><trkpt lat="42.575170483159496" lon="14.067055455426312"><ele>41.6</ele><time>2026-05-01T18:41:36.998Z</time></trkpt><trkpt lat="42.57523060402839" lon="14.06715166441607"><ele>41.8</ele><time>2026-05-01T18:41:37.998Z</time></trkpt><trkpt lat="42.57528867157378" lon="14.067248362168142"><ele>42.0</ele><time>2026-05-01T18:41:38.998Z</time></trkpt><trkpt lat="42.57533142421158" lon="14.06732260730079"><ele>44.666666666666664</ele><time>2026-05-01T18:41:39.998Z</time></trkpt><trkpt lat="42.57542783007445" lon="14.067416925987978"><ele>47.33333333333333</ele><time>2026-05-01T18:41:41.998Z</time></trkpt><trkpt lat="42.57551369644325" lon="14.067460510929681"><ele>50.0</ele><time>2026-05-01T18:41:43.998Z</time></trkpt><trkpt lat="42.57556830320021" lon="14.067413397983271"><ele>52.666666666666664</ele><time>2026-05-01T18:41:44.998Z</time></trkpt><trkpt lat="42.57561688681666" lon="14.067353542213345"><ele>55.33333333333333</ele><time>2026-05-01T18:41:45.998Z</time></trkpt><trkpt lat="42.57565548154306" lon="14.067238940537905"><ele>58.0</ele><time>2026-05-01T18:41:46.998Z</time></trkpt><trkpt lat="42.57569796401842" lon="14.067123005678827"><ele>57.8</ele><time>2026-05-01T18:41:47.998Z</time></trkpt><trkpt lat="42.57574134487036" lon="14.066990290811326"><ele>57.599999999999994</ele><time>2026-05-01T18:41:48.998Z</time></trkpt><trkpt lat="42.575789288321225" lon="14.066859346396054"><ele>57.400000000000006</ele><time>2026-05-01T18:41:49.998Z</time></trkpt><trkpt lat="42.57584527534793" lon="14.06675792404814"><ele>57.2</ele><time>2026-05-01T18:41:50.998Z</time></trkpt><trkpt lat="42.57590630651484" lon="14.066652884944224"><ele>57.0</ele><time>2026-05-01T18:41:51.998Z</time></trkpt><trkpt lat="42.57595581576049" lon="14.066554173015323"><ele>57.0</ele><time>2026-05-01T18:41:52.998Z</time></trkpt><trkpt lat="42.57599724380216" lon="14.066462941279134"><ele>57.0</ele><time>2026-05-01T18:41:53.998Z</time></trkpt><trkpt lat="42.57602875445683" lon="14.066350399869686"><ele>57.0</ele><time>2026-05-01T18:41:54.998Z</time></trkpt><trkpt lat="42.576045716617024" lon="14.066228556931641"><ele>57.0</ele><time>2026-05-01T18:41:56Z</time></trkpt><trkpt lat="42.576069890738154" lon="14.06611107202808"><ele>57.0</ele><time>2026-05-01T18:41:57Z</time></trkpt><trkpt lat="42.576103806800695" lon="14.066006365056165"><ele>57.0</ele><time>2026-05-01T18:41:58Z</time></trkpt><trkpt lat="42.57614885739491" lon="14.065920608224145"><ele>61.400000000000006</ele><time>2026-05-01T18:41:59Z</time></trkpt><trkpt lat="42.576239436442975" lon="14.065862552103566"><ele>65.80000000000001</ele><time>2026-05-01T18:42:01Z</time></trkpt><trkpt lat="42.57631666157257" lon="14.065924794182747"><ele>70.2</ele><time>2026-05-01T18:42:03Z</time></trkpt><trkpt lat="42.576403301973706" lon="14.066085981965319"><ele>74.60000000000001</ele><time>2026-05-01T18:42:05Z</time></trkpt><trkpt lat="42.576480778713865" lon="14.066182999685577"><ele>79.0</ele><time>2026-05-01T18:42:06Z</time></trkpt><trkpt lat="42.57656156545639" lon="14.066258883395866"><ele>79.0</ele><time>2026-05-01T18:42:07Z</time></trkpt><trkpt lat="42.57660490676069" lon="14.06637099693578"><ele>79.0</ele><time>2026-05-01T18:42:08Z</time></trkpt><trkpt lat="42.57663913286119" lon="14.066466892481497"><ele>79.0</ele><time>2026-05-01T18:42:09Z</time></trkpt><trkpt lat="42.57667034624604" lon="14.066544526359372"><ele>79.0</ele><time>2026-05-01T18:42:10Z</time></trkpt><trkpt lat="42.57670643820682" lon="14.06664696212307"><ele>79.0</ele><time>2026-05-01T18:42:12Z</time></trkpt><trkpt lat="42.57681261006037" lon="14.066628028408262"><ele>79.0</ele><time>2026-05-01T18:42:14Z</time></trkpt><trkpt lat="42.57683585727001" lon="14.066543385753288"><ele>79.0</ele><time>2026-05-01T18:42:15Z</time></trkpt><trkpt lat="42.57686485360854" lon="14.066409599401547"><ele>79.0</ele><time>2026-05-01T18:42:17Z</time></trkpt><trkpt lat="42.57688014097166" lon="14.066317466385431"><ele>79.0</ele><time>2026-05-01T18:42:18Z</time></trkpt><trkpt lat="42.576909504443655" lon="14.06619937737575"><ele>79.0</ele><time>2026-05-01T18:42:20Z</time></trkpt><trkpt lat="42.57697771022171" lon="14.066223656581705"><ele>79.0</ele><time>2026-05-01T18:42:22Z</time></trkpt><trkpt lat="42.57700197910143" lon="14.066343271526543"><ele>79.0</ele><time>2026-05-01T18:42:24Z</time></trkpt><trkpt lat="42.57703838522208" lon="14.06649879155833"><ele>83.16666666666666</ele><time>2026-05-01T18:42:26Z</time></trkpt><trkpt lat="42.577047877923086" lon="14.066599467723753"><ele>87.33333333333333</ele><time>2026-05-01T18:42:26.999Z</time></trkpt><trkpt lat="42.57705076416189" lon="14.06670550399945"><ele>91.5</ele><time>2026-05-01T18:42:27.999Z</time></trkpt><trkpt lat="42.577062627814186" lon="14.066810376906584"><ele>95.66666666666666</ele><time>2026-05-01T18:42:28.999Z</time></trkpt><trkpt lat="42.57708323483215" lon="14.066915276721826"><ele>99.83333333333333</ele><time>2026-05-01T18:42:29.999Z</time></trkpt><trkpt lat="42.577117142392325" lon="14.067035668644225"><ele>104.0</ele><time>2026-05-01T18:42:30.999Z</time></trkpt><trkpt lat="42.57716303200084" lon="14.067143557710995"><ele>103.83333333333333</ele><time>2026-05-01T18:42:31.999Z</time></trkpt><trkpt lat="42.57721248765877" lon="14.067251113480035"><ele>103.66666666666666</ele><time>2026-05-01T18:42:32.999Z</time></trkpt><trkpt lat="42.57726524415712" lon="14.067360249076833"><ele>103.5</ele><time>2026-05-01T18:42:33.999Z</time></trkpt><trkpt lat="42.57730969153201" lon="14.067477340991285"><ele>103.33333333333334</ele><time>2026-05-01T18:42:34.999Z</time></trkpt><trkpt lat="42.577349448124544" lon="14.067574835383112"><ele>103.16666666666667</ele><time>2026-05-01T18:42:35.999Z</time></trkpt><trkpt lat="42.577419405563276" lon="14.0676206748897"><ele>103.0</ele><time>2026-05-01T18:42:37.999Z</time></trkpt><trkpt lat="42.577471716039916" lon="14.067556265378665"><ele>103.66666666666667</ele><time>2026-05-01T18:42:39.999Z</time></trkpt><trkpt lat="42.57747896705834" lon="14.067412737146435"><ele>104.33333333333334</ele><time>2026-05-01T18:42:42.999Z</time></trkpt><trkpt lat="42.57747779026705" lon="14.067316123539142"><ele>105.0</ele><time>2026-05-01T18:42:43.999Z</time></trkpt><trkpt lat="42.57749054006075" lon="14.067225058611362"><ele>105.66666666666666</ele><time>2026-05-01T18:42:44.999Z</time></trkpt><trkpt lat="42.57751347503807" lon="14.067120775800138"><ele>106.33333333333333</ele><time>2026-05-01T18:42:45.999Z</time></trkpt><trkpt lat="42.57755231940639" lon="14.066993795440906"><ele>107.0</ele><time>2026-05-01T18:42:46.999Z</time></trkpt><trkpt lat="42.57760153430643" lon="14.066860849760742"><ele>107.0</ele><time>2026-05-01T18:42:47.999Z</time></trkpt><trkpt lat="42.57763849650853" lon="14.06672876579163"><ele>106.99999999999999</ele><time>2026-05-01T18:42:48.999Z</time></trkpt><trkpt lat="42.5776986160773" lon="14.066612442465388"><ele>106.99999999999999</ele><time>2026-05-01T18:42:49.999Z</time></trkpt><trkpt lat="42.57774456658786" lon="14.066496447760185"><ele>107.0</ele><time>2026-05-01T18:42:50.999Z</time></trkpt><trkpt lat="42.57777934694452" lon="14.066363582405518"><ele>107.0</ele><time>2026-05-01T18:42:51.999Z</time></trkpt><trkpt lat="42.577825173540575" lon="14.06624560042373"><ele>111.0</ele><time>2026-05-01T18:42:52.999Z</time></trkpt><trkpt lat="42.57786799685506" lon="14.06613003284325"><ele>114.99999999999999</ele><time>2026-05-01T18:42:53.999Z</time></trkpt><trkpt lat="42.577925992137416" lon="14.066019937185201"><ele>118.99999999999999</ele><time>2026-05-01T18:42:54.999Z</time></trkpt><trkpt lat="42.57796541585751" lon="14.065894008352068"><ele>123.0</ele><time>2026-05-01T18:42:55.999Z</time></trkpt><trkpt lat="42.57802211926299" lon="14.065785637858236"><ele>127.0</ele><time>2026-05-01T18:42:56.999Z</time></trkpt><trkpt lat="42.57807360175435" lon="14.065663756131103"><ele>127.00000000000001</ele><time>2026-05-01T18:42:57.999Z</time></trkpt><trkpt lat="42.57811962790111" lon="14.065523213976915"><ele>127.0</ele><time>2026-05-01T18:42:58.999Z</time></trkpt><trkpt lat="42.578177063575254" lon="14.06541140525981"><ele>127.0</ele><time>2026-05-01T18:42:59.999Z</time></trkpt><trkpt lat="42.57821461731209" lon="14.065338821746677"><ele>127.0</ele><time>2026-05-01T18:43:00.999Z</time></trkpt><trkpt lat="42.57829668689453" lon="14.065345663532712"><ele>127.00000000000001</ele><time>2026-05-01T18:43:03.999Z</time></trkpt><trkpt lat="42.578300320576524" lon="14.065455709352443"><ele>127.0</ele><time>2026-05-01T18:43:05.999Z</time></trkpt><trkpt lat="42.57829090223497" lon="14.065590812120607"><ele>127.0</ele><time>2026-05-01T18:43:07.999Z</time></trkpt><trkpt lat="42.57829505331644" lon="14.065710865476351"><ele>126.99999999999999</ele><time>2026-05-01T18:43:08.999Z</time></trkpt><trkpt lat="42.5783121889842" lon="14.06584182709326"><ele>126.99999999999999</ele><time>2026-05-01T18:43:09.999Z</time></trkpt><trkpt lat="42.57835569635372" lon="14.06597302631309"><ele>127.0</ele><time>2026-05-01T18:43:10.999Z</time></trkpt><trkpt lat="42.57837198510089" lon="14.066109797795283"><ele>127.0</ele><time>2026-05-01T18:43:11.999Z</time></trkpt><trkpt lat="42.57841866040953" lon="14.066211779312527"><ele>127.00000000000001</ele><time>2026-05-01T18:43:12.999Z</time></trkpt><trkpt lat="42.57843664469094" lon="14.066303500060997"><ele>127.0</ele><time>2026-05-01T18:43:13.999Z</time></trkpt><trkpt lat="42.57853110163287" lon="14.066419181872876"><ele>127.0</ele><time>2026-05-01T18:43:15.999Z</time></trkpt><trkpt lat="42.578605624212734" lon="14.06644097175699"><ele>127.0</ele><time>2026-05-01T18:43:16.999Z</time></trkpt><trkpt lat="42.578667036576825" lon="14.066420774043017"><ele>127.00000000000001</ele><time>2026-05-01T18:43:17.998Z</time></trkpt><trkpt lat="42.57872782073156" lon="14.06632268015314"><ele>127.0</ele><time>2026-05-01T18:43:20.998Z</time></trkpt><trkpt lat="42.57871638464748" lon="14.066192805496305"><ele>127.00000000000001</ele><time>2026-05-01T18:43:22.998Z</time></trkpt><trkpt lat="42.57869241641647" lon="14.066089363424044"><ele>127.0</ele><time>2026-05-01T18:43:23.998Z</time></trkpt><trkpt lat="42.57866971762551" lon="14.065979048061433"><ele>127.0</ele><time>2026-05-01T18:43:24.998Z</time></trkpt><trkpt lat="42.578711201445905" lon="14.06589954765483"><ele>127.0</ele><time>2026-05-01T18:43:25.998Z</time></trkpt><trkpt lat="42.57878348143662" lon="14.065841626336098"><ele>127.00000000000001</ele><time>2026-05-01T18:43:27.998Z</time></trkpt><trkpt lat="42.57889333992235" lon="14.06587706549893"><ele>127.0</ele><time>2026-05-01T18:43:29.998Z</time></trkpt><trkpt lat="42.5789665823013" lon="14.065905948841143"><ele>130.33333333333334</ele><time>2026-05-01T18:43:30.998Z</time></trkpt><trkpt lat="42.5790475120633" lon="14.065931905666748"><ele>133.66666666666669</ele><time>2026-05-01T18:43:31.998Z</time></trkpt><trkpt lat="42.57913307051552" lon="14.065954783774867"><ele>137.0</ele><time>2026-05-01T18:43:32.998Z</time></trkpt><trkpt lat="42.57921190398734" lon="14.066012680557813"><ele>140.33333333333334</ele><time>2026-05-01T18:43:33.998Z</time></trkpt><trkpt lat="42.57928512722136" lon="14.066069352189203"><ele>143.66666666666666</ele><time>2026-05-01T18:43:34.998Z</time></trkpt><trkpt lat="42.57934809035366" lon="14.066147312782492"><ele>147.0</ele><time>2026-05-01T18:43:35.998Z</time></trkpt><trkpt lat="42.57942016571931" lon="14.066240866990011"><ele>147.0</ele><time>2026-05-01T18:43:36.998Z</time></trkpt><trkpt lat="42.579489396708425" lon="14.066293328324791"><ele>147.0</ele><time>2026-05-01T18:43:37.998Z</time></trkpt><trkpt lat="42.57954775757546" lon="14.066329257858563"><ele>147.0</ele><time>2026-05-01T18:43:39.998Z</time></trkpt><trkpt lat="42.57960540695466" lon="14.066248864935657"><ele>147.0</ele><time>2026-05-01T18:43:41.998Z</time></trkpt><trkpt lat="42.57959434443324" lon="14.066130048425984"><ele>147.0</ele><time>2026-05-01T18:43:43.998Z</time></trkpt><trkpt lat="42.579548796961284" lon="14.066065905806214"><ele>147.0</ele><time>2026-05-01T18:43:44.998Z</time></trkpt><trkpt lat="42.57952077833544" lon="14.065979458009629"><ele>147.0</ele><time>2026-05-01T18:43:45.998Z</time></trkpt><trkpt lat="42.57949344587672" lon="14.06586871337791"><ele>147.5</ele><time>2026-05-01T18:43:46.998Z</time></trkpt><trkpt lat="42.57948193701642" lon="14.065753187442677"><ele>148.0</ele><time>2026-05-01T18:43:47.998Z</time></trkpt><trkpt lat="42.57948768419149" lon="14.06564561074159"><ele>148.5</ele><time>2026-05-01T18:43:48.998Z</time></trkpt><trkpt lat="42.57951230367081" lon="14.065560543553635"><ele>149.0</ele><time>2026-05-01T18:43:49.998Z</time></trkpt><trkpt lat="42.579556555179416" lon="14.065463427905353"><ele>149.5</ele><time>2026-05-01T18:43:50.998Z</time></trkpt><trkpt lat="42.57961254011254" lon="14.065371672163373"><ele>150.0</ele><time>2026-05-01T18:43:51.998Z</time></trkpt><trkpt lat="42.57968615882983" lon="14.065282913492267"><ele>153.2</ele><time>2026-05-01T18:43:52.998Z</time></trkpt><trkpt lat="42.579772254795294" lon="14.065180846034725"><ele>156.4</ele><time>2026-05-01T18:43:53.998Z</time></trkpt><trkpt lat="42.57986320527769" lon="14.065072337390584"><ele>159.60000000000002</ele><time>2026-05-01T18:43:54.998Z</time></trkpt><trkpt lat="42.57995006781282" lon="14.064973560798487"><ele>162.8</ele><time>2026-05-01T18:43:55.998Z</time></trkpt><trkpt lat="42.58002567635532" lon="14.064896628092683"><ele>166.0</ele><time>2026-05-01T18:43:56.998Z</time></trkpt><trkpt lat="42.58008654217372" lon="14.064869070260542"><ele>166.33333333333334</ele><time>2026-05-01T18:43:57.998Z</time></trkpt><trkpt lat="42.58014740684166" lon="14.064891679939912"><ele>166.66666666666669</ele><time>2026-05-01T18:43:58.998Z</time></trkpt><trkpt lat="42.58029486332254" lon="14.064918034434267"><ele>167.0</ele><time>2026-05-01T18:44:00.998Z</time></trkpt><trkpt lat="42.58036387647961" lon="14.064904164805114"><ele>167.33333333333334</ele><time>2026-05-01T18:44:02Z</time></trkpt><trkpt lat="42.58041713880302" lon="14.064797964830397"><ele>167.66666666666666</ele><time>2026-05-01T18:44:04Z</time></trkpt><trkpt lat="42.58040589422515" lon="14.064713049726816"><ele>168.0</ele><time>2026-05-01T18:44:05Z</time></trkpt><trkpt lat="42.5803525347349" lon="14.064645923545111"><ele>168.0</ele><time>2026-05-01T18:44:06Z</time></trkpt><trkpt lat="42.5803030337018" lon="14.064565322935133"><ele>168.0</ele><time>2026-05-01T18:44:07Z</time></trkpt><trkpt lat="42.58027726634738" lon="14.064461549891096"><ele>168.0</ele><time>2026-05-01T18:44:08Z</time></trkpt><trkpt lat="42.58027318905509" lon="14.064335549222605"><ele>168.0</ele><time>2026-05-01T18:44:10Z</time></trkpt><trkpt lat="42.58036402714445" lon="14.06428986021822"><ele>168.0</ele><time>2026-05-01T18:44:12Z</time></trkpt><trkpt lat="42.5804684819517" lon="14.064365989680452"><ele>172.4</ele><time>2026-05-01T18:44:14Z</time></trkpt><trkpt lat="42.58055608477965" lon="14.064382083316346"><ele>176.8</ele><time>2026-05-01T18:44:15Z</time></trkpt><trkpt lat="42.58065000876211" lon="14.064426528704884"><ele>181.2</ele><time>2026-05-01T18:44:16Z</time></trkpt><trkpt lat="42.58075707976902" lon="14.06446924368299"><ele>185.6</ele><time>2026-05-01T18:44:17Z</time></trkpt><trkpt lat="42.58083926786833" lon="14.064482151935735"><ele>190.0</ele><time>2026-05-01T18:44:18Z</time></trkpt><trkpt lat="42.580928334179426" lon="14.064456123192386"><ele>190.0</ele><time>2026-05-01T18:44:20Z</time></trkpt><trkpt lat="42.580918828129015" lon="14.064331083782372"><ele>190.0</ele><time>2026-05-01T18:44:22Z</time></trkpt><trkpt lat="42.58084162682029" lon="14.064207360594438"><ele>190.0</ele><time>2026-05-01T18:44:24Z</time></trkpt><trkpt lat="42.5807893662104" lon="14.064113264886311"><ele>190.0</ele><time>2026-05-01T18:44:25Z</time></trkpt><trkpt lat="42.580757467170095" lon="14.06400122561029"><ele>190.0</ele><time>2026-05-01T18:44:26Z</time></trkpt><trkpt lat="42.58071458943535" lon="14.063872584381766"><ele>191.33333333333334</ele><time>2026-05-01T18:44:27Z</time></trkpt><trkpt lat="42.580660721047785" lon="14.063736288770082"><ele>192.66666666666669</ele><time>2026-05-01T18:44:28Z</time></trkpt><trkpt lat="42.58065647046521" lon="14.063613597742524"><ele>194.0</ele><time>2026-05-01T18:44:29Z</time></trkpt><trkpt lat="42.580642465122665" lon="14.063512878312256"><ele>195.33333333333334</ele><time>2026-05-01T18:44:30Z</time></trkpt><trkpt lat="42.58068716244544" lon="14.063434863433615"><ele>196.66666666666666</ele><time>2026-05-01T18:44:31Z</time></trkpt><trkpt lat="42.58071174309639" lon="14.06334093209094"><ele>198.0</ele><time>2026-05-01T18:44:32Z</time></trkpt><trkpt lat="42.58078345875316" lon="14.0632788684873"><ele>198.5</ele><time>2026-05-01T18:44:33Z</time></trkpt><trkpt lat="42.58085139040112" lon="14.063230767335513"><ele>199.0</ele><time>2026-05-01T18:44:34Z</time></trkpt><trkpt lat="42.58091847190328" lon="14.063178619570792"><ele>199.5</ele><time>2026-05-01T18:44:35Z</time></trkpt><trkpt lat="42.58098949074789" lon="14.063133404559073"><ele>200.0</ele><time>2026-05-01T18:44:36Z</time></trkpt><trkpt lat="42.58104869932771" lon="14.063102017492508"><ele>200.5</ele><time>2026-05-01T18:44:37Z</time></trkpt><trkpt lat="42.581157666804124" lon="14.063105217747845"><ele>201.0</ele><time>2026-05-01T18:44:39Z</time></trkpt><trkpt lat="42.58121107443957" lon="14.063181235175122"><ele>202.33333333333334</ele><time>2026-05-01T18:44:39.999Z</time></trkpt><trkpt lat="42.58128293802097" lon="14.063244108767654"><ele>203.66666666666669</ele><time>2026-05-01T18:44:40.999Z</time></trkpt><trkpt lat="42.5813562488994" lon="14.063326135268364"><ele>205.0</ele><time>2026-05-01T18:44:41.999Z</time></trkpt><trkpt lat="42.581434988032214" lon="14.06340320847479"><ele>206.33333333333334</ele><time>2026-05-01T18:44:42.999Z</time></trkpt><trkpt lat="42.58151568400554" lon="14.063449164085997"><ele>207.66666666666669</ele><time>2026-05-01T18:44:43.999Z</time></trkpt><trkpt lat="42.58159470785611" lon="14.063473333524495"><ele>209.0</ele><time>2026-05-01T18:44:44.999Z</time></trkpt><trkpt lat="42.581690143017575" lon="14.063432347193817"><ele>209.0</ele><time>2026-05-01T18:44:45.999Z</time></trkpt><trkpt lat="42.58178206648209" lon="14.063399563227426"><ele>209.0</ele><time>2026-05-01T18:44:46.999Z</time></trkpt><trkpt lat="42.58186681796774" lon="14.063343635486662"><ele>209.0</ele><time>2026-05-01T18:44:47.999Z</time></trkpt><trkpt lat="42.581934227341755" lon="14.063278429212048"><ele>209.0</ele><time>2026-05-01T18:44:48.999Z</time></trkpt><trkpt lat="42.581999028663155" lon="14.06319853608567"><ele>209.0</ele><time>2026-05-01T18:44:49.999Z</time></trkpt><trkpt lat="42.58206578468808" lon="14.063098385941416"><ele>211.79999999999998</ele><time>2026-05-01T18:44:50.999Z</time></trkpt><trkpt lat="42.58213021069011" lon="14.062981441852154"><ele>214.6</ele><time>2026-05-01T18:44:51.999Z</time></trkpt><trkpt lat="42.582196759019055" lon="14.062861374776833"><ele>217.4</ele><time>2026-05-01T18:44:52.999Z</time></trkpt><trkpt lat="42.582271135639054" lon="14.062765325072885"><ele>220.2</ele><time>2026-05-01T18:44:53.999Z</time></trkpt><trkpt lat="42.58235187328089" lon="14.062727931082215"><ele>223.0</ele><time>2026-05-01T18:44:54.999Z</time></trkpt><trkpt lat="42.58243215421224" lon="14.062673348566094"><ele>223.0</ele><time>2026-05-01T18:44:55.999Z</time></trkpt><trkpt lat="42.5825203194616" lon="14.062612726121882"><ele>223.0</ele><time>2026-05-01T18:44:56.999Z</time></trkpt><trkpt lat="42.58261503371103" lon="14.062547600579355"><ele>223.0</ele><time>2026-05-01T18:44:57.999Z</time></trkpt><trkpt lat="42.582707727801974" lon="14.062485197802078"><ele>223.0</ele><time>2026-05-01T18:44:58.999Z</time></trkpt><trkpt lat="42.582785923857095" lon="14.062434376106815"><ele>223.0</ele><time>2026-05-01T18:44:59.999Z</time></trkpt><trkpt lat="42.582843941225335" lon="14.062399494673782"><ele>222.33333333333331</ele><time>2026-05-01T18:45:00.999Z</time></trkpt><trkpt lat="42.58290053020329" lon="14.062355543570181"><ele>221.66666666666666</ele><time>2026-05-01T18:45:02.999Z</time></trkpt><trkpt lat="42.582957640339416" lon="14.062502304076817"><ele>221.0</ele><time>2026-05-01T18:45:05.999Z</time></trkpt><trkpt lat="42.58299003622901" lon="14.062604128365338"><ele>220.33333333333331</ele><time>2026-05-01T18:45:06.999Z</time></trkpt><trkpt lat="42.583019972714524" lon="14.06270575256093"><ele>219.66666666666666</ele><time>2026-05-01T18:45:07.999Z</time></trkpt><trkpt lat="42.58305184066577" lon="14.062818745325917"><ele>219.0</ele><time>2026-05-01T18:45:08.999Z</time></trkpt><trkpt lat="42.583085840367715" lon="14.062945187650755"><ele>219.0</ele><time>2026-05-01T18:45:09.999Z</time></trkpt><trkpt lat="42.58311993712598" lon="14.063078034186859"><ele>218.99999999999997</ele><time>2026-05-01T18:45:10.999Z</time></trkpt><trkpt lat="42.58316748359672" lon="14.063203020985378"><ele>218.99999999999997</ele><time>2026-05-01T18:45:11.999Z</time></trkpt><trkpt lat="42.58318075981442" lon="14.06333318667773"><ele>219.0</ele><time>2026-05-01T18:45:12.999Z</time></trkpt><trkpt lat="42.58320326673893" lon="14.063461775562796"><ele>219.0</ele><time>2026-05-01T18:45:13.999Z</time></trkpt><trkpt lat="42.583213729500194" lon="14.063612292117881"><ele>219.25</ele><time>2026-05-01T18:45:14.999Z</time></trkpt><trkpt lat="42.58322109437082" lon="14.063787661976688"><ele>219.5</ele><time>2026-05-01T18:45:15.999Z</time></trkpt><trkpt lat="42.58322778272294" lon="14.063961718235037"><ele>219.75</ele><time>2026-05-01T18:45:16.999Z</time></trkpt><trkpt lat="42.583244002670085" lon="14.064117675755874"><ele>220.0</ele><time>2026-05-01T18:45:17.999Z</time></trkpt><trkpt lat="42.583254847483744" lon="14.064269899643888"><ele>219.4</ele><time>2026-05-01T18:45:18.999Z</time></trkpt><trkpt lat="42.58326245605098" lon="14.064414591888989"><ele>218.8</ele><time>2026-05-01T18:45:19.999Z</time></trkpt><trkpt lat="42.58325765657726" lon="14.064558675225351"><ele>218.2</ele><time>2026-05-01T18:45:20.999Z</time></trkpt><trkpt lat="42.58327712634335" lon="14.06469433903859"><ele>217.6</ele><time>2026-05-01T18:45:21.999Z</time></trkpt><trkpt lat="42.58330360061756" lon="14.064827307995106"><ele>217.0</ele><time>2026-05-01T18:45:22.999Z</time></trkpt><trkpt lat="42.58333560488582" lon="14.064969290018432"><ele>215.75</ele><time>2026-05-01T18:45:23.999Z</time></trkpt><trkpt lat="42.58337256889795" lon="14.065127088452687"><ele>214.5</ele><time>2026-05-01T18:45:24.999Z</time></trkpt><trkpt lat="42.5834077037573" lon="14.06527905534629"><ele>213.25</ele><time>2026-05-01T18:45:25.999Z</time></trkpt><trkpt lat="42.58343683690796" lon="14.065426465029848"><ele>212.0</ele><time>2026-05-01T18:45:26.999Z</time></trkpt><trkpt lat="42.58345815916756" lon="14.06558433107081"><ele>212.0</ele><time>2026-05-01T18:45:27.999Z</time></trkpt><trkpt lat="42.58349043336392" lon="14.065750344205142"><ele>212.0</ele><time>2026-05-01T18:45:28.999Z</time></trkpt><trkpt lat="42.58348891413733" lon="14.06593008610478"><ele>212.0</ele><time>2026-05-01T18:45:29.999Z</time></trkpt><trkpt lat="42.583497860352516" lon="14.066106480558307"><ele>212.0</ele><time>2026-05-01T18:45:30.998Z</time></trkpt><trkpt lat="42.58350194930244" lon="14.0662712891411"><ele>210.0</ele><time>2026-05-01T18:45:31.998Z</time></trkpt><trkpt lat="42.58350231594312" lon="14.066428035869649"><ele>208.0</ele><time>2026-05-01T18:45:32.998Z</time></trkpt><trkpt lat="42.583515009901525" lon="14.066591668401912"><ele>206.0</ele><time>2026-05-01T18:45:33.998Z</time></trkpt><trkpt lat="42.58349114972462" lon="14.06676186523438"><ele>204.0</ele><time>2026-05-01T18:45:34.998Z</time></trkpt><trkpt lat="42.583473388987294" lon="14.06693357840902"><ele>204.0</ele><time>2026-05-01T18:45:35.998Z</time></trkpt><trkpt lat="42.58344627915161" lon="14.067100441178384"><ele>204.0</ele><time>2026-05-01T18:45:36.998Z</time></trkpt><trkpt lat="42.583412818472496" lon="14.06726628280952"><ele>204.0</ele><time>2026-05-01T18:45:37.998Z</time></trkpt><trkpt lat="42.58336916115439" lon="14.067427680268"><ele>204.0</ele><time>2026-05-01T18:45:38.998Z</time></trkpt><trkpt lat="42.58330821072876" lon="14.067567285036398"><ele>204.0</ele><time>2026-05-01T18:45:39.998Z</time></trkpt><trkpt lat="42.58323208046974" lon="14.067708562686406"><ele>204.0</ele><time>2026-05-01T18:45:40.998Z</time></trkpt><trkpt lat="42.58314526396601" lon="14.067860915213005"><ele>204.0</ele><time>2026-05-01T18:45:41.998Z</time></trkpt><trkpt lat="42.5830584818812" lon="14.068015167889278"><ele>204.0</ele><time>2026-05-01T18:45:42.998Z</time></trkpt><trkpt lat="42.582974392893505" lon="14.068164996424223"><ele>201.25</ele><time>2026-05-01T18:45:43.998Z</time></trkpt><trkpt lat="42.58289279929544" lon="14.068306237424487"><ele>198.5</ele><time>2026-05-01T18:45:44.998Z</time></trkpt><trkpt lat="42.58281368862663" lon="14.06844305968029"><ele>195.75</ele><time>2026-05-01T18:45:45.998Z</time></trkpt><trkpt lat="42.58274117861038" lon="14.068569923082986"><ele>193.0</ele><time>2026-05-01T18:45:46.998Z</time></trkpt><trkpt lat="42.582691874136955" lon="14.068709387150989"><ele>193.0</ele><time>2026-05-01T18:45:47.998Z</time></trkpt><trkpt lat="42.582624774780705" lon="14.06882400224859"><ele>193.0</ele><time>2026-05-01T18:45:48.998Z</time></trkpt><trkpt lat="42.582552206698075" lon="14.068945223864558"><ele>193.0</ele><time>2026-05-01T18:45:49.998Z</time></trkpt><trkpt lat="42.58247799461136" lon="14.069070211678234"><ele>193.0</ele><time>2026-05-01T18:45:50.998Z</time></trkpt><trkpt lat="42.582393470793946" lon="14.069179784155589"><ele>195.5</ele><time>2026-05-01T18:45:51.998Z</time></trkpt><trkpt lat="42.582332375076724" lon="14.069316101351092"><ele>198.0</ele><time>2026-05-01T18:45:52.998Z</time></trkpt><trkpt lat="42.58227793733263" lon="14.069468556890879"><ele>200.5</ele><time>2026-05-01T18:45:53.998Z</time></trkpt><trkpt lat="42.582224964202325" lon="14.069629879884108"><ele>203.0</ele><time>2026-05-01T18:45:54.998Z</time></trkpt><trkpt lat="42.582172075530934" lon="14.06978360388886"><ele>203.0</ele><time>2026-05-01T18:45:55.998Z</time></trkpt><trkpt lat="42.582120377183436" lon="14.069933867917738"><ele>203.0</ele><time>2026-05-01T18:45:56.998Z</time></trkpt><trkpt lat="42.58206926562073" lon="14.070081025719308"><ele>203.0</ele><time>2026-05-01T18:45:57.998Z</time></trkpt><trkpt lat="42.582019627808556" lon="14.07021883452444"><ele>203.0</ele><time>2026-05-01T18:45:58.998Z</time></trkpt><trkpt lat="42.5819821568152" lon="14.07035555832539"><ele>202.4</ele><time>2026-05-01T18:45:59.998Z</time></trkpt><trkpt lat="42.581961675486745" lon="14.070492711206054"><ele>201.8</ele><time>2026-05-01T18:46:00.998Z</time></trkpt><trkpt lat="42.581964912563286" lon="14.070629608293546"><ele>201.2</ele><time>2026-05-01T18:46:01.998Z</time></trkpt><trkpt lat="42.58198264440711" lon="14.070764317775806"><ele>200.6</ele><time>2026-05-01T18:46:02.998Z</time></trkpt><trkpt lat="42.58201043003055" lon="14.070905741360406"><ele>200.0</ele><time>2026-05-01T18:46:03.998Z</time></trkpt><trkpt lat="42.58204285964569" lon="14.071058169013144"><ele>200.0</ele><time>2026-05-01T18:46:04.998Z</time></trkpt><trkpt lat="42.58208243026879" lon="14.071219313009491"><ele>200.0</ele><time>2026-05-01T18:46:05.998Z</time></trkpt><trkpt lat="42.582127506314926" lon="14.071381997412518"><ele>200.0</ele><time>2026-05-01T18:46:06.998Z</time></trkpt><trkpt lat="42.5821728501791" lon="14.071537912767132"><ele>200.0</ele><time>2026-05-01T18:46:08Z</time></trkpt><trkpt lat="42.5822169006849" lon="14.071682008862949"><ele>197.2</ele><time>2026-05-01T18:46:09Z</time></trkpt><trkpt lat="42.582258000581035" lon="14.071816315611889"><ele>194.4</ele><time>2026-05-01T18:46:10Z</time></trkpt><trkpt lat="42.582295145466574" lon="14.071947641564083"><ele>191.60000000000002</ele><time>2026-05-01T18:46:11Z</time></trkpt><trkpt lat="42.582336733053324" lon="14.07207080258584"><ele>188.8</ele><time>2026-05-01T18:46:12Z</time></trkpt><trkpt lat="42.5823208562977" lon="14.072193717078836"><ele>186.0</ele><time>2026-05-01T18:46:13Z</time></trkpt><trkpt lat="42.58229965083795" lon="14.07232170214862"><ele>184.0</ele><time>2026-05-01T18:46:14Z</time></trkpt><trkpt lat="42.5822823010423" lon="14.072455229391428"><ele>182.0</ele><time>2026-05-01T18:46:15Z</time></trkpt><trkpt lat="42.582268968108025" lon="14.07258860156545"><ele>180.0</ele><time>2026-05-01T18:46:16Z</time></trkpt><trkpt lat="42.58226544650584" lon="14.072690256227434"><ele>178.0</ele><time>2026-05-01T18:46:17Z</time></trkpt><trkpt lat="42.58226912745568" lon="14.072794215133698"><ele>176.0</ele><time>2026-05-01T18:46:19Z</time></trkpt><trkpt lat="42.582406705358466" lon="14.07269503271872"><ele>176.0</ele><time>2026-05-01T18:46:25Z</time></trkpt><trkpt lat="42.582411909346376" lon="14.07260301662449"><ele>176.0</ele><time>2026-05-01T18:46:26Z</time></trkpt><trkpt lat="42.58243978291243" lon="14.07251290968167"><ele>176.0</ele><time>2026-05-01T18:46:27Z</time></trkpt><trkpt lat="42.58248076685531" lon="14.072409411990051"><ele>176.0</ele><time>2026-05-01T18:46:28Z</time></trkpt><trkpt lat="42.58253043321873" lon="14.072320311362956"><ele>176.0</ele><time>2026-05-01T18:46:29Z</time></trkpt><trkpt lat="42.582580658020596" lon="14.07226725003122"><ele>176.0</ele><time>2026-05-01T18:46:30Z</time></trkpt><trkpt lat="42.58270235813439" lon="14.072284496652266"><ele>176.0</ele><time>2026-05-01T18:46:32Z</time></trkpt><trkpt lat="42.58278086679095" lon="14.072318795575397"><ele>176.0</ele><time>2026-05-01T18:46:33Z</time></trkpt><trkpt lat="42.58285418129991" lon="14.072349435732987"><ele>176.0</ele><time>2026-05-01T18:46:34Z</time></trkpt><trkpt lat="42.58293535690039" lon="14.072363784642478"><ele>176.0</ele><time>2026-05-01T18:46:35Z</time></trkpt><trkpt lat="42.583011242513635" lon="14.072322537795376"><ele>176.0</ele><time>2026-05-01T18:46:36Z</time></trkpt><trkpt lat="42.583083260362805" lon="14.072275765166438"><ele>176.0</ele><time>2026-05-01T18:46:37Z</time></trkpt><trkpt lat="42.583153062846065" lon="14.072229896015608"><ele>176.0</ele><time>2026-05-01T18:46:38Z</time></trkpt><trkpt lat="42.58321542539482" lon="14.072165817799394"><ele>176.0</ele><time>2026-05-01T18:46:39Z</time></trkpt><trkpt lat="42.58327627386822" lon="14.07210119785722"><ele>176.0</ele><time>2026-05-01T18:46:40Z</time></trkpt><trkpt lat="42.5833386212808" lon="14.072052189498766"><ele>176.0</ele><time>2026-05-01T18:46:41Z</time></trkpt><trkpt lat="42.58340533481393" lon="14.072073094456567"><ele>176.0</ele><time>2026-05-01T18:46:42Z</time></trkpt><trkpt lat="42.58346520875589" lon="14.07211672412278"><ele>176.0</ele><time>2026-05-01T18:46:43Z</time></trkpt><trkpt lat="42.5835148555204" lon="14.072187555872997"><ele>176.0</ele><time>2026-05-01T18:46:44Z</time></trkpt><trkpt lat="42.58357869058749" lon="14.072257713838999"><ele>176.0</ele><time>2026-05-01T18:46:45Z</time></trkpt><trkpt lat="42.583653269925925" lon="14.072329183466568"><ele>176.0</ele><time>2026-05-01T18:46:46Z</time></trkpt><trkpt lat="42.58374996190571" lon="14.072353170016694"><ele>176.0</ele><time>2026-05-01T18:46:47Z</time></trkpt><trkpt lat="42.583838729998035" lon="14.07238082577235"><ele>176.0</ele><time>2026-05-01T18:46:48Z</time></trkpt><trkpt lat="42.58393458958146" lon="14.072383566284252"><ele>176.0</ele><time>2026-05-01T18:46:48.999Z</time></trkpt><trkpt lat="42.58403376182277" lon="14.07238333049856"><ele>173.25</ele><time>2026-05-01T18:46:49.999Z</time></trkpt><trkpt lat="42.58414864019548" lon="14.072391362116548"><ele>170.5</ele><time>2026-05-01T18:46:50.999Z</time></trkpt><trkpt lat="42.5842689345013" lon="14.072391944892864"><ele>167.75</ele><time>2026-05-01T18:46:51.999Z</time></trkpt><trkpt lat="42.58438413890758" lon="14.07239443751654"><ele>165.0</ele><time>2026-05-01T18:46:52.999Z</time></trkpt><trkpt lat="42.584495450549134" lon="14.072421008930775"><ele>162.75</ele><time>2026-05-01T18:46:53.999Z</time></trkpt><trkpt lat="42.584614257578515" lon="14.072406894057355"><ele>160.5</ele><time>2026-05-01T18:46:54.999Z</time></trkpt><trkpt lat="42.58473468484831" lon="14.07241309072185"><ele>158.25</ele><time>2026-05-01T18:46:55.999Z</time></trkpt><trkpt lat="42.58484744311498" lon="14.072427045795246"><ele>156.0</ele><time>2026-05-01T18:46:56.999Z</time></trkpt><trkpt lat="42.58495152500543" lon="14.072415549726946"><ele>156.0</ele><time>2026-05-01T18:46:57.999Z</time></trkpt><trkpt lat="42.58505685008819" lon="14.072392551836705"><ele>156.0</ele><time>2026-05-01T18:46:58.999Z</time></trkpt><trkpt lat="42.585166030387136" lon="14.072386025401698"><ele>156.0</ele><time>2026-05-01T18:46:59.999Z</time></trkpt><trkpt lat="42.58528050830585" lon="14.072381414329747"><ele>156.0</ele><time>2026-05-01T18:47:00.999Z</time></trkpt><trkpt lat="42.585396913821725" lon="14.07239018720421"><ele>156.0</ele><time>2026-05-01T18:47:01.999Z</time></trkpt><trkpt lat="42.585508311095005" lon="14.07245046461582"><ele>153.4</ele><time>2026-05-01T18:47:02.999Z</time></trkpt><trkpt lat="42.58561343000534" lon="14.072489582897738"><ele>150.8</ele><time>2026-05-01T18:47:03.999Z</time></trkpt><trkpt lat="42.58570980541531" lon="14.07252315194781"><ele>148.20000000000002</ele><time>2026-05-01T18:47:04.999Z</time></trkpt><trkpt lat="42.58581313584249" lon="14.072544011468608"><ele>145.6</ele><time>2026-05-01T18:47:05.999Z</time></trkpt><trkpt lat="42.58592606082827" lon="14.072531013850524"><ele>143.0</ele><time>2026-05-01T18:47:06.999Z</time></trkpt><trkpt lat="42.586063822019135" lon="14.07253047049921"><ele>142.25</ele><time>2026-05-01T18:47:07.999Z</time></trkpt><trkpt lat="42.58620381875037" lon="14.07252845151145"><ele>141.5</ele><time>2026-05-01T18:47:08.999Z</time></trkpt><trkpt lat="42.58633241746202" lon="14.072554385084231"><ele>140.75</ele><time>2026-05-01T18:47:09.999Z</time></trkpt><trkpt lat="42.58644555935812" lon="14.072566080184062"><ele>140.0</ele><time>2026-05-01T18:47:10.999Z</time></trkpt><trkpt lat="42.5865419831442" lon="14.072563986650811"><ele>140.0</ele><time>2026-05-01T18:47:11.999Z</time></trkpt><trkpt lat="42.58662829314894" lon="14.072534683900622"><ele>140.0</ele><time>2026-05-01T18:47:12.999Z</time></trkpt><trkpt lat="42.586713785610975" lon="14.072525142340416"><ele>140.0</ele><time>2026-05-01T18:47:13.999Z</time></trkpt><trkpt lat="42.586808559102" lon="14.072507255344554"><ele>140.0</ele><time>2026-05-01T18:47:14.999Z</time></trkpt><trkpt lat="42.586927303078895" lon="14.072481159715705"><ele>140.0</ele><time>2026-05-01T18:47:15.999Z</time></trkpt><trkpt lat="42.587054135638304" lon="14.072456725894368"><ele>139.6</ele><time>2026-05-01T18:47:16.999Z</time></trkpt><trkpt lat="42.587182105434955" lon="14.072459130750316"><ele>139.2</ele><time>2026-05-01T18:47:17.999Z</time></trkpt><trkpt lat="42.58730320561288" lon="14.07244498985932"><ele>138.8</ele><time>2026-05-01T18:47:18.999Z</time></trkpt><trkpt lat="42.58741029470712" lon="14.07243115554801"><ele>138.4</ele><time>2026-05-01T18:47:19.999Z</time></trkpt><trkpt lat="42.587486992676205" lon="14.072416235580992"><ele>138.0</ele><time>2026-05-01T18:47:20.999Z</time></trkpt><trkpt lat="42.58758662022565" lon="14.072391027336485"><ele>138.8</ele><time>2026-05-01T18:47:22.999Z</time></trkpt><trkpt lat="42.58763303190184" lon="14.072262237946463"><ele>139.60000000000002</ele><time>2026-05-01T18:47:24.999Z</time></trkpt><trkpt lat="42.58769935466895" lon="14.072170741969364"><ele>140.39999999999998</ele><time>2026-05-01T18:47:26.999Z</time></trkpt><trkpt lat="42.58775607776566" lon="14.072092005144109"><ele>141.2</ele><time>2026-05-01T18:47:27.999Z</time></trkpt><trkpt lat="42.58783606709783" lon="14.072025398279578"><ele>142.0</ele><time>2026-05-01T18:47:28.999Z</time></trkpt><trkpt lat="42.587892107549" lon="14.071921315043976"><ele>138.83333333333334</ele><time>2026-05-01T18:47:29.999Z</time></trkpt><trkpt lat="42.587958069207446" lon="14.071830530298772"><ele>135.66666666666669</ele><time>2026-05-01T18:47:30.999Z</time></trkpt><trkpt lat="42.58801861725747" lon="14.07173832703808"><ele>132.5</ele><time>2026-05-01T18:47:31.999Z</time></trkpt><trkpt lat="42.58807570881288" lon="14.071644327379897"><ele>129.33333333333334</ele><time>2026-05-01T18:47:32.999Z</time></trkpt><trkpt lat="42.58813095837101" lon="14.0715524911656"><ele>126.16666666666667</ele><time>2026-05-01T18:47:33.999Z</time></trkpt><trkpt lat="42.58818823005869" lon="14.071467850994463"><ele>123.0</ele><time>2026-05-01T18:47:34.999Z</time></trkpt><trkpt lat="42.58825397916382" lon="14.071385109428899"><ele>122.66666666666667</ele><time>2026-05-01T18:47:35.999Z</time></trkpt><trkpt lat="42.588336325237805" lon="14.071319500092429"><ele>122.33333333333334</ele><time>2026-05-01T18:47:36.999Z</time></trkpt><trkpt lat="42.58839640787439" lon="14.071228062240326"><ele>122.0</ele><time>2026-05-01T18:47:37.999Z</time></trkpt><trkpt lat="42.588463790224864" lon="14.071161122046774"><ele>121.66666666666667</ele><time>2026-05-01T18:47:38.999Z</time></trkpt><trkpt lat="42.58852674463489" lon="14.07109756354659"><ele>121.33333333333334</ele><time>2026-05-01T18:47:39.998Z</time></trkpt><trkpt lat="42.588590825366104" lon="14.071037845077258"><ele>121.0</ele><time>2026-05-01T18:47:40.998Z</time></trkpt><trkpt lat="42.588668964056914" lon="14.070983891550593"><ele>117.5</ele><time>2026-05-01T18:47:41.998Z</time></trkpt><trkpt lat="42.58876539312298" lon="14.07093047386664"><ele>114.0</ele><time>2026-05-01T18:47:42.998Z</time></trkpt><trkpt lat="42.58887389390355" lon="14.070884335808207"><ele>110.5</ele><time>2026-05-01T18:47:43.998Z</time></trkpt><trkpt lat="42.58898780759862" lon="14.070845363929939"><ele>107.0</ele><time>2026-05-01T18:47:44.998Z</time></trkpt><trkpt lat="42.589105093361624" lon="14.070806671751749"><ele>104.75</ele><time>2026-05-01T18:47:45.998Z</time></trkpt><trkpt lat="42.58922395787098" lon="14.070762313236363"><ele>102.5</ele><time>2026-05-01T18:47:46.998Z</time></trkpt><trkpt lat="42.58934383587164" lon="14.070705218325436"><ele>100.25</ele><time>2026-05-01T18:47:47.998Z</time></trkpt><trkpt lat="42.58946953904743" lon="14.070653832815704"><ele>98.0</ele><time>2026-05-01T18:47:48.998Z</time></trkpt><trkpt lat="42.58957484105101" lon="14.070543826289441"><ele>97.0</ele><time>2026-05-01T18:47:49.998Z</time></trkpt><trkpt lat="42.58968343293673" lon="14.070464171427151"><ele>96.0</ele><time>2026-05-01T18:47:50.998Z</time></trkpt><trkpt lat="42.58976387848023" lon="14.07041051756089"><ele>95.0</ele><time>2026-05-01T18:47:51.998Z</time></trkpt><trkpt lat="42.58982824177211" lon="14.070386536067257"><ele>94.0</ele><time>2026-05-01T18:47:52.998Z</time></trkpt><trkpt lat="42.58989209465493" lon="14.070383831646616"><ele>93.0</ele><time>2026-05-01T18:47:53.998Z</time></trkpt><trkpt lat="42.590004222194665" lon="14.07048741652736"><ele>93.0</ele><time>2026-05-01T18:47:55.998Z</time></trkpt><trkpt lat="42.59007598787796" lon="14.070554659299143"><ele>93.0</ele><time>2026-05-01T18:47:56.998Z</time></trkpt><trkpt lat="42.59015637808262" lon="14.070640547551553"><ele>93.0</ele><time>2026-05-01T18:47:57.998Z</time></trkpt><trkpt lat="42.5902491747564" lon="14.070698562854979"><ele>93.0</ele><time>2026-05-01T18:47:58.998Z</time></trkpt><trkpt lat="42.59033098452202" lon="14.070747562972578"><ele>93.0</ele><time>2026-05-01T18:47:59.998Z</time></trkpt><trkpt lat="42.590423066483545" lon="14.070764975347714"><ele>90.80000000000001</ele><time>2026-05-01T18:48:00.998Z</time></trkpt><trkpt lat="42.590519223403284" lon="14.070772464763964"><ele>88.6</ele><time>2026-05-01T18:48:01.998Z</time></trkpt><trkpt lat="42.59061871971598" lon="14.070775943262992"><ele>86.4</ele><time>2026-05-01T18:48:02.998Z</time></trkpt><trkpt lat="42.59073372848131" lon="14.07077425993792"><ele>84.19999999999999</ele><time>2026-05-01T18:48:03.998Z</time></trkpt><trkpt lat="42.59085652747559" lon="14.070772532606146"><ele>82.0</ele><time>2026-05-01T18:48:04.998Z</time></trkpt><trkpt lat="42.59098194112207" lon="14.07076737105206"><ele>82.0</ele><time>2026-05-01T18:48:05.998Z</time></trkpt><trkpt lat="42.59110602864747" lon="14.07076079876632"><ele>82.0</ele><time>2026-05-01T18:48:06.998Z</time></trkpt><trkpt lat="42.59122595231644" lon="14.070755615328316"><ele>82.0</ele><time>2026-05-01T18:48:07.998Z</time></trkpt><trkpt lat="42.59133861523325" lon="14.070749370606398"><ele>82.0</ele><time>2026-05-01T18:48:08.998Z</time></trkpt><trkpt lat="42.59144564132634" lon="14.070732940907885"><ele>79.19999999999999</ele><time>2026-05-01T18:48:09.998Z</time></trkpt><trkpt lat="42.59155029793515" lon="14.070704883651318"><ele>76.39999999999999</ele><time>2026-05-01T18:48:10.998Z</time></trkpt><trkpt lat="42.59165391079665" lon="14.070660200132588"><ele>73.6</ele><time>2026-05-01T18:48:11.998Z</time></trkpt><trkpt lat="42.591759923689615" lon="14.070608243302816"><ele>70.8</ele><time>2026-05-01T18:48:12.998Z</time></trkpt><trkpt lat="42.59186848842307" lon="14.070554739848932"><ele>68.0</ele><time>2026-05-01T18:48:14Z</time></trkpt><trkpt lat="42.59197471313919" lon="14.07050420771123"><ele>65.6</ele><time>2026-05-01T18:48:15Z</time></trkpt><trkpt lat="42.592072790339806" lon="14.070461513988143"><ele>63.199999999999996</ele><time>2026-05-01T18:48:16Z</time></trkpt><trkpt lat="42.59216369333669" lon="14.070422556960066"><ele>60.8</ele><time>2026-05-01T18:48:17Z</time></trkpt><trkpt lat="42.59225761963755" lon="14.070384903115292"><ele>58.4</ele><time>2026-05-01T18:48:18Z</time></trkpt><trkpt lat="42.592360101129444" lon="14.070350969949903"><ele>56.0</ele><time>2026-05-01T18:48:19Z</time></trkpt><trkpt lat="42.59247024671774" lon="14.07033243523579"><ele>56.0</ele><time>2026-05-01T18:48:20Z</time></trkpt><trkpt lat="42.5925831044699" lon="14.070325978002025"><ele>56.0</ele><time>2026-05-01T18:48:21Z</time></trkpt><trkpt lat="42.592700925621784" lon="14.070322994361405"><ele>56.0</ele><time>2026-05-01T18:48:22Z</time></trkpt><trkpt lat="42.59282027545823" lon="14.070319097747653"><ele>56.0</ele><time>2026-05-01T18:48:23Z</time></trkpt><trkpt lat="42.592922271635835" lon="14.07031570631327"><ele>52.4</ele><time>2026-05-01T18:48:24Z</time></trkpt><trkpt lat="42.59299391052571" lon="14.070353054674825"><ele>48.8</ele><time>2026-05-01T18:48:25Z</time></trkpt><trkpt lat="42.593110619020756" lon="14.070412269832989"><ele>45.199999999999996</ele><time>2026-05-01T18:48:27Z</time></trkpt><trkpt lat="42.59315289265046" lon="14.07049304653945"><ele>41.599999999999994</ele><time>2026-05-01T18:48:28Z</time></trkpt><trkpt lat="42.593165462781144" lon="14.070618841056012"><ele>38.0</ele><time>2026-05-01T18:48:29Z</time></trkpt><trkpt lat="42.593219607128454" lon="14.070751490139575"><ele>38.25</ele><time>2026-05-01T18:48:30Z</time></trkpt><trkpt lat="42.593281214955596" lon="14.070899719219883"><ele>38.5</ele><time>2026-05-01T18:48:31Z</time></trkpt><trkpt lat="42.59334346194365" lon="14.071050881183353"><ele>38.75</ele><time>2026-05-01T18:48:32Z</time></trkpt><trkpt lat="42.59340459528825" lon="14.071199727814735"><ele>39.0</ele><time>2026-05-01T18:48:33Z</time></trkpt><trkpt lat="42.59346529425065" lon="14.071347516591446"><ele>39.0</ele><time>2026-05-01T18:48:34Z</time></trkpt><trkpt lat="42.59353622530893" lon="14.071483355701387"><ele>39.0</ele><time>2026-05-01T18:48:35Z</time></trkpt><trkpt lat="42.59358002832829" lon="14.071634111985677"><ele>39.0</ele><time>2026-05-01T18:48:36Z</time></trkpt><trkpt lat="42.59363180590926" lon="14.071766221601266"><ele>39.0</ele><time>2026-05-01T18:48:37Z</time></trkpt><trkpt lat="42.593682133554566" lon="14.071903620028065"><ele>34.6</ele><time>2026-05-01T18:48:38Z</time></trkpt><trkpt lat="42.593731750472216" lon="14.072047992988313"><ele>30.2</ele><time>2026-05-01T18:48:39Z</time></trkpt><trkpt lat="42.59378196276566" lon="14.072198197174442"><ele>25.799999999999997</ele><time>2026-05-01T18:48:40Z</time></trkpt><trkpt lat="42.59382933340609" lon="14.072343233868436"><ele>21.4</ele><time>2026-05-01T18:48:41Z</time></trkpt><trkpt lat="42.59386659750761" lon="14.07245824548483"><ele>17.0</ele><time>2026-05-01T18:48:42Z</time></trkpt><trkpt lat="42.59390388891552" lon="14.07254007928192"><ele>17.0</ele><time>2026-05-01T18:48:43Z</time></trkpt><trkpt lat="42.59399934904815" lon="14.072625077836356"><ele>17.0</ele><time>2026-05-01T18:48:45Z</time></trkpt><trkpt lat="42.59408654027788" lon="14.072619189746222"><ele>17.0</ele><time>2026-05-01T18:48:46Z</time></trkpt><trkpt lat="42.5941905073815" lon="14.072659525068957"><ele>17.0</ele><time>2026-05-01T18:48:47Z</time></trkpt><trkpt lat="42.59432624193195" lon="14.072655007330164"><ele>17.0</ele><time>2026-05-01T18:48:48Z</time></trkpt><trkpt lat="42.59446467954401" lon="14.072624099093868"><ele>15.6</ele><time>2026-05-01T18:48:49Z</time></trkpt><trkpt lat="42.59459908477768" lon="14.072611845722376"><ele>14.2</ele><time>2026-05-01T18:48:50Z</time></trkpt><trkpt lat="42.594716457658635" lon="14.072587886776539"><ele>12.8</ele><time>2026-05-01T18:48:51Z</time></trkpt><trkpt lat="42.59481919587705" lon="14.072581740035421"><ele>11.4</ele><time>2026-05-01T18:48:52Z</time></trkpt><trkpt lat="42.59489530403351" lon="14.072542514646768"><ele>10.0</ele><time>2026-05-01T18:48:53Z</time></trkpt><trkpt lat="42.594981779523486" lon="14.072523382979035"><ele>10.0</ele><time>2026-05-01T18:48:55Z</time></trkpt><trkpt lat="42.595085379091806" lon="14.072621928517531"><ele>10.0</ele><time>2026-05-01T18:48:58Z</time></trkpt><trkpt lat="42.59513253191602" lon="14.072735012283378"><ele>10.0</ele><time>2026-05-01T18:48:58.999Z</time></trkpt><trkpt lat="42.59518854033285" lon="14.072881443873076"><ele>10.0</ele><time>2026-05-01T18:48:59.999Z</time></trkpt><trkpt lat="42.59524913242479" lon="14.07303911899443"><ele>10.0</ele><time>2026-05-01T18:49:00.999Z</time></trkpt><trkpt lat="42.59528739924082" lon="14.073225124951149"><ele>10.0</ele><time>2026-05-01T18:49:01.999Z</time></trkpt><trkpt lat="42.595351961593934" lon="14.073394489400142"><ele>10.0</ele><time>2026-05-01T18:49:02.999Z</time></trkpt><trkpt lat="42.59541553006336" lon="14.07356231667531"><ele>10.0</ele><time>2026-05-01T18:49:03.999Z</time></trkpt><trkpt lat="42.59547852471392" lon="14.073730302345353"><ele>8.75</ele><time>2026-05-01T18:49:04.999Z</time></trkpt><trkpt lat="42.59554146270872" lon="14.073895930718024"><ele>7.5</ele><time>2026-05-01T18:49:05.999Z</time></trkpt><trkpt lat="42.59560534599123" lon="14.074058559615455"><ele>6.25</ele><time>2026-05-01T18:49:06.999Z</time></trkpt><trkpt lat="42.59566926257766" lon="14.074221273330684"><ele>5.0</ele><time>2026-05-01T18:49:07.999Z</time></trkpt><trkpt lat="42.595733205928845" lon="14.07438405517699"><ele>4.5</ele><time>2026-05-01T18:49:08.999Z</time></trkpt><trkpt lat="42.5957973233789" lon="14.074547280226763"><ele>4.0</ele><time>2026-05-01T18:49:09.999Z</time></trkpt><trkpt lat="42.595863082504685" lon="14.074716399928535"><ele>3.5</ele><time>2026-05-01T18:49:10.999Z</time></trkpt><trkpt lat="42.59593031276026" lon="14.074889315157908"><ele>3.0</ele><time>2026-05-01T18:49:11.999Z</time></trkpt><trkpt lat="42.59599425924221" lon="14.075053784726705"><ele>3.0</ele><time>2026-05-01T18:49:12.999Z</time></trkpt><trkpt lat="42.59605166379171" lon="14.075201428458836"><ele>3.0</ele><time>2026-05-01T18:49:13.999Z</time></trkpt><trkpt lat="42.59610289916398" lon="14.075333205118541"><ele>3.0</ele><time>2026-05-01T18:49:14.999Z</time></trkpt><trkpt lat="42.596154917222194" lon="14.075458300392105"><ele>3.0</ele><time>2026-05-01T18:49:15.999Z</time></trkpt><trkpt lat="42.59622188294252" lon="14.075551646767565"><ele>3.0</ele><time>2026-05-01T18:49:16.999Z</time></trkpt><trkpt lat="42.596261811843874" lon="14.075644632550743"><ele>2.8</ele><time>2026-05-01T18:49:17.999Z</time></trkpt><trkpt lat="42.59631680036459" lon="14.075773190103826"><ele>2.5999999999999996</ele><time>2026-05-01T18:49:19.999Z</time></trkpt><trkpt lat="42.596347845445855" lon="14.075858052623321"><ele>2.4000000000000004</ele><time>2026-05-01T18:49:22.999Z</time></trkpt><trkpt lat="42.59636330997693" lon="14.076003022881748"><ele>2.2</ele><time>2026-05-01T18:49:24.999Z</time></trkpt><trkpt lat="42.5963396869254" lon="14.076149624264707"><ele>2.0</ele><time>2026-05-01T18:49:26.999Z</time></trkpt><trkpt lat="42.59628220728024" lon="14.076304539230652"><ele>2.0</ele><time>2026-05-01T18:49:28.999Z</time></trkpt><trkpt lat="42.596240756219125" lon="14.076390839348322"><ele>2.0</ele><time>2026-05-01T18:49:29.999Z</time></trkpt><trkpt lat="42.596195767494045" lon="14.076488282939822"><ele>2.0</ele><time>2026-05-01T18:49:30.999Z</time></trkpt><trkpt lat="42.59614233680486" lon="14.076589044781981"><ele>2.0</ele><time>2026-05-01T18:49:31.999Z</time></trkpt><trkpt lat="42.59607763550172" lon="14.076691484173024"><ele>2.0</ele><time>2026-05-01T18:49:32.999Z</time></trkpt><trkpt lat="42.596008017085936" lon="14.07679559743167"><ele>2.2</ele><time>2026-05-01T18:49:33.999Z</time></trkpt><trkpt lat="42.5959326116463" lon="14.076901769985898"><ele>2.4000000000000004</ele><time>2026-05-01T18:49:34.999Z</time></trkpt><trkpt lat="42.595857254085416" lon="14.077002370095578"><ele>2.5999999999999996</ele><time>2026-05-01T18:49:35.999Z</time></trkpt><trkpt lat="42.59578749791893" lon="14.077097587541859"><ele>2.8</ele><time>2026-05-01T18:49:36.999Z</time></trkpt><trkpt lat="42.59571989971503" lon="14.077189513777444"><ele>3.0</ele><time>2026-05-01T18:49:37.999Z</time></trkpt><trkpt lat="42.59565227061708" lon="14.077280094896992"><ele>3.0</ele><time>2026-05-01T18:49:38.999Z</time></trkpt><trkpt lat="42.5955875792179" lon="14.077377733863965"><ele>3.0</ele><time>2026-05-01T18:49:39.999Z</time></trkpt><trkpt lat="42.595503807707324" lon="14.077471046815452"><ele>3.0</ele><time>2026-05-01T18:49:40.999Z</time></trkpt><trkpt lat="42.5954234771586" lon="14.077578818591888"><ele>3.0</ele><time>2026-05-01T18:49:41.999Z</time></trkpt><trkpt lat="42.59533965029286" lon="14.077691280907025"><ele>3.0</ele><time>2026-05-01T18:49:42.999Z</time></trkpt><trkpt lat="42.59529260018538" lon="14.077754403405942"><ele>3.0</ele><time>2026-05-01T18:49:43.999Z</time></trkpt><trkpt lat="42.59522725976374" lon="14.077875673472532"><ele>3.0</ele><time>2026-05-01T18:49:44.999Z</time></trkpt><trkpt lat="42.595148242138954" lon="14.077983370463"><ele>3.0</ele><time>2026-05-01T18:49:45.999Z</time></trkpt><trkpt lat="42.595064552764754" lon="14.078090616303962"><ele>3.0</ele><time>2026-05-01T18:49:46.999Z</time></trkpt><trkpt lat="42.59498084457366" lon="14.078189871631071"><ele>3.0</ele><time>2026-05-01T18:49:47.999Z</time></trkpt><trkpt lat="42.59490280549379" lon="14.078296898695191"><ele>3.0</ele><time>2026-05-01T18:49:48.999Z</time></trkpt><trkpt lat="42.594819877660555" lon="14.078405388670818"><ele>3.0</ele><time>2026-05-01T18:49:49.999Z</time></trkpt><trkpt lat="42.59474568877838" lon="14.078507868344765"><ele>3.0</ele><time>2026-05-01T18:49:50.998Z</time></trkpt><trkpt lat="42.59467063364374" lon="14.078609058488192"><ele>3.0</ele><time>2026-05-01T18:49:51.998Z</time></trkpt><trkpt lat="42.594591062668535" lon="14.078708468247902"><ele>3.0</ele><time>2026-05-01T18:49:52.998Z</time></trkpt><trkpt lat="42.59451198493418" lon="14.078812926961994"><ele>3.0</ele><time>2026-05-01T18:49:53.998Z</time></trkpt><trkpt lat="42.59443902150586" lon="14.078912317483244"><ele>3.0</ele><time>2026-05-01T18:49:54.998Z</time></trkpt><trkpt lat="42.594374510329374" lon="14.078992392623002"><ele>3.0</ele><time>2026-05-01T18:49:55.998Z</time></trkpt><trkpt lat="42.59431588654231" lon="14.079069949420974"><ele>3.0</ele><time>2026-05-01T18:49:56.998Z</time></trkpt><trkpt lat="42.59426214274253" lon="14.079148850055432"><ele>3.0</ele><time>2026-05-01T18:49:57.998Z</time></trkpt><trkpt lat="42.594209118187706" lon="14.07922344998067"><ele>3.0</ele><time>2026-05-01T18:49:58.998Z</time></trkpt><trkpt lat="42.594155047880804" lon="14.079295733826111"><ele>3.2</ele><time>2026-05-01T18:49:59.998Z</time></trkpt><trkpt lat="42.59409746248169" lon="14.079370909192026"><ele>3.4</ele><time>2026-05-01T18:50:00.998Z</time></trkpt><trkpt lat="42.594034711461035" lon="14.079456289475528"><ele>3.6000000000000005</ele><time>2026-05-01T18:50:01.998Z</time></trkpt><trkpt lat="42.593968727149196" lon="14.079545999943358"><ele>3.8000000000000003</ele><time>2026-05-01T18:50:02.998Z</time></trkpt><trkpt lat="42.59389357111125" lon="14.079646033483995"><ele>4.0</ele><time>2026-05-01T18:50:03.998Z</time></trkpt><trkpt lat="42.593815634745965" lon="14.079756381255384"><ele>4.0</ele><time>2026-05-01T18:50:04.998Z</time></trkpt><trkpt lat="42.59372454319849" lon="14.079872775975335"><ele>4.0</ele><time>2026-05-01T18:50:05.998Z</time></trkpt><trkpt lat="42.59363598242513" lon="14.079989998804791"><ele>4.0</ele><time>2026-05-01T18:50:06.998Z</time></trkpt><trkpt lat="42.593544893691366" lon="14.08011300990186"><ele>4.0</ele><time>2026-05-01T18:50:07.998Z</time></trkpt><trkpt lat="42.59345090568393" lon="14.080238686111088"><ele>4.0</ele><time>2026-05-01T18:50:08.998Z</time></trkpt><trkpt lat="42.593356565184614" lon="14.080366496411363"><ele>4.0</ele><time>2026-05-01T18:50:09.998Z</time></trkpt><trkpt lat="42.59326452512487" lon="14.080488578168646"><ele>4.0</ele><time>2026-05-01T18:50:10.998Z</time></trkpt><trkpt lat="42.593170520624625" lon="14.080610513978227"><ele>4.0</ele><time>2026-05-01T18:50:11.998Z</time></trkpt><trkpt lat="42.593076885496544" lon="14.080729369725415"><ele>3.75</ele><time>2026-05-01T18:50:12.998Z</time></trkpt><trkpt lat="42.59298216942783" lon="14.080843164146637"><ele>3.5</ele><time>2026-05-01T18:50:13.998Z</time></trkpt><trkpt lat="42.59288573143667" lon="14.08095247751297"><ele>3.25</ele><time>2026-05-01T18:50:14.998Z</time></trkpt><trkpt lat="42.59278770313023" lon="14.081057970821885"><ele>3.0</ele><time>2026-05-01T18:50:15.998Z</time></trkpt><trkpt lat="42.59268781526629" lon="14.08116322014032"><ele>5.0</ele><time>2026-05-01T18:50:16.998Z</time></trkpt><trkpt lat="42.5925823833886" lon="14.081270570747662"><ele>7.0</ele><time>2026-05-01T18:50:17.998Z</time></trkpt><trkpt lat="42.59247169421785" lon="14.081374376779468"><ele>9.0</ele><time>2026-05-01T18:50:19Z</time></trkpt><trkpt lat="42.5923627139081" lon="14.081482118965244"><ele>11.0</ele><time>2026-05-01T18:50:20Z</time></trkpt><trkpt lat="42.592249803322645" lon="14.08158850376194"><ele>11.0</ele><time>2026-05-01T18:50:21Z</time></trkpt><trkpt lat="42.592137724624656" lon="14.081695771781638"><ele>11.0</ele><time>2026-05-01T18:50:22Z</time></trkpt><trkpt lat="42.59202466837644" lon="14.081806171303132"><ele>11.0</ele><time>2026-05-01T18:50:23Z</time></trkpt><trkpt lat="42.59191082412457" lon="14.081917523566348"><ele>11.0</ele><time>2026-05-01T18:50:24Z</time></trkpt><trkpt lat="42.59179783704348" lon="14.082024899220972"><ele>11.0</ele><time>2026-05-01T18:50:25Z</time></trkpt><trkpt lat="42.59169079019653" lon="14.082127473114282"><ele>11.0</ele><time>2026-05-01T18:50:26Z</time></trkpt><trkpt lat="42.59159257410737" lon="14.082221936852985"><ele>11.0</ele><time>2026-05-01T18:50:27Z</time></trkpt><trkpt lat="42.591499837740024" lon="14.082306668665337"><ele>11.0</ele><time>2026-05-01T18:50:28Z</time></trkpt><trkpt lat="42.59140765241518" lon="14.082394905987167"><ele>11.25</ele><time>2026-05-01T18:50:29Z</time></trkpt><trkpt lat="42.59131294118224" lon="14.082481868187948"><ele>11.5</ele><time>2026-05-01T18:50:30Z</time></trkpt><trkpt lat="42.59121291782728" lon="14.082574220674847"><ele>11.75</ele><time>2026-05-01T18:50:31Z</time></trkpt><trkpt lat="42.591109664279344" lon="14.082665366276915"><ele>12.0</ele><time>2026-05-01T18:50:32Z</time></trkpt><trkpt lat="42.5910067156948" lon="14.082755376542746"><ele>12.0</ele><time>2026-05-01T18:50:33Z</time></trkpt><trkpt lat="42.59090563872246" lon="14.08284600301885"><ele>12.0</ele><time>2026-05-01T18:50:34Z</time></trkpt><trkpt lat="42.590801864059664" lon="14.082934864785578"><ele>12.0</ele><time>2026-05-01T18:50:35Z</time></trkpt><trkpt lat="42.590695278756115" lon="14.083021270376815"><ele>12.0</ele><time>2026-05-01T18:50:36Z</time></trkpt><trkpt lat="42.59058614748525" lon="14.083110798018307"><ele>12.0</ele><time>2026-05-01T18:50:37Z</time></trkpt><trkpt lat="42.59047691628178" lon="14.083193440116572"><ele>12.0</ele><time>2026-05-01T18:50:38Z</time></trkpt><trkpt lat="42.59036801489281" lon="14.08327882577705"><ele>12.0</ele><time>2026-05-01T18:50:39Z</time></trkpt><trkpt lat="42.59025799715328" lon="14.083362825406477"><ele>12.0</ele><time>2026-05-01T18:50:40Z</time></trkpt><trkpt lat="42.5901437369873" lon="14.083444951554467"><ele>11.75</ele><time>2026-05-01T18:50:41Z</time></trkpt><trkpt lat="42.59002954243588" lon="14.083532824764744"><ele>11.5</ele><time>2026-05-01T18:50:42Z</time></trkpt><trkpt lat="42.589916472154464" lon="14.083621015302304"><ele>11.25</ele><time>2026-05-01T18:50:43Z</time></trkpt><trkpt lat="42.58980376931209" lon="14.083714519583081"><ele>11.0</ele><time>2026-05-01T18:50:44Z</time></trkpt><trkpt lat="42.589687532070066" lon="14.083810679868417"><ele>11.0</ele><time>2026-05-01T18:50:45Z</time></trkpt><trkpt lat="42.58958018684679" lon="14.08390748259562"><ele>11.0</ele><time>2026-05-01T18:50:46Z</time></trkpt><trkpt lat="42.58947289211748" lon="14.084004119260872"><ele>11.0</ele><time>2026-05-01T18:50:47Z</time></trkpt><trkpt lat="42.589367863180556" lon="14.08410200614726"><ele>11.0</ele><time>2026-05-01T18:50:48Z</time></trkpt><trkpt lat="42.58925768743579" lon="14.084200580961417"><ele>10.75</ele><time>2026-05-01T18:50:49Z</time></trkpt><trkpt lat="42.58914707642799" lon="14.084303310977608"><ele>10.5</ele><time>2026-05-01T18:50:50Z</time></trkpt><trkpt lat="42.58903244174098" lon="14.084409546762616"><ele>10.25</ele><time>2026-05-01T18:50:51Z</time></trkpt><trkpt lat="42.58891707443576" lon="14.084518062959196"><ele>10.0</ele><time>2026-05-01T18:50:52Z</time></trkpt><trkpt lat="42.58880126793911" lon="14.08462912108205"><ele>10.0</ele><time>2026-05-01T18:50:53Z</time></trkpt><trkpt lat="42.5886880721124" lon="14.084734064308591"><ele>10.0</ele><time>2026-05-01T18:50:54Z</time></trkpt><trkpt lat="42.58857693259938" lon="14.084839257656828"><ele>10.0</ele><time>2026-05-01T18:50:55Z</time></trkpt><trkpt lat="42.58846575177857" lon="14.084945429571116"><ele>10.0</ele><time>2026-05-01T18:50:56Z</time></trkpt><trkpt lat="42.588352033601474" lon="14.085050593585354"><ele>9.75</ele><time>2026-05-01T18:50:57Z</time></trkpt><trkpt lat="42.58823573408791" lon="14.085160393939418"><ele>9.5</ele><time>2026-05-01T18:50:58Z</time></trkpt><trkpt lat="42.5881191212822" lon="14.085271181704158"><ele>9.25</ele><time>2026-05-01T18:50:59Z</time></trkpt><trkpt lat="42.587996389488005" lon="14.085386559394797"><ele>9.0</ele><time>2026-05-01T18:51:00Z</time></trkpt><trkpt lat="42.58787298549569" lon="14.085495786139264"><ele>8.333333333333334</ele><time>2026-05-01T18:51:01Z</time></trkpt><trkpt lat="42.587748301106025" lon="14.085613497495402"><ele>7.666666666666667</ele><time>2026-05-01T18:51:02Z</time></trkpt><trkpt lat="42.58762290364918" lon="14.085731620267687"><ele>7.0</ele><time>2026-05-01T18:51:03Z</time></trkpt><trkpt lat="42.587500097216626" lon="14.085847974455268"><ele>7.0</ele><time>2026-05-01T18:51:04Z</time></trkpt><trkpt lat="42.5873823050375" lon="14.085958596467098"><ele>7.0</ele><time>2026-05-01T18:51:05Z</time></trkpt><trkpt lat="42.58727028293324" lon="14.086063288484446"><ele>7.0</ele><time>2026-05-01T18:51:05.999Z</time></trkpt><trkpt lat="42.58716524331253" lon="14.086161897748644"><ele>7.0</ele><time>2026-05-01T18:51:06.999Z</time></trkpt><trkpt lat="42.58706680213872" lon="14.086255385757534"><ele>6.75</ele><time>2026-05-01T18:51:07.999Z</time></trkpt><trkpt lat="42.586970806669164" lon="14.086348010886606"><ele>6.5</ele><time>2026-05-01T18:51:08.999Z</time></trkpt><trkpt lat="42.58686280015831" lon="14.086426476669434"><ele>6.25</ele><time>2026-05-01T18:51:09.999Z</time></trkpt><trkpt lat="42.58677429977587" lon="14.086539105284253"><ele>6.0</ele><time>2026-05-01T18:51:10.999Z</time></trkpt><trkpt lat="42.58667592841205" lon="14.08664045234805"><ele>6.0</ele><time>2026-05-01T18:51:11.999Z</time></trkpt><trkpt lat="42.586567965924516" lon="14.086726800540292"><ele>6.0</ele><time>2026-05-01T18:51:12.999Z</time></trkpt><trkpt lat="42.58647675504522" lon="14.086849863856747"><ele>6.0</ele><time>2026-05-01T18:51:13.999Z</time></trkpt><trkpt lat="42.586379456460556" lon="14.086960301928016"><ele>6.0</ele><time>2026-05-01T18:51:14.999Z</time></trkpt><trkpt lat="42.586284129149305" lon="14.087070425461212"><ele>6.0</ele><time>2026-05-01T18:51:15.999Z</time></trkpt><trkpt lat="42.586194396516426" lon="14.087175938168063"><ele>6.0</ele><time>2026-05-01T18:51:16.999Z</time></trkpt><trkpt lat="42.586109354182646" lon="14.08728585850374"><ele>6.0</ele><time>2026-05-01T18:51:17.999Z</time></trkpt><trkpt lat="42.58602660196909" lon="14.08739535952334"><ele>6.0</ele><time>2026-05-01T18:51:18.999Z</time></trkpt><trkpt lat="42.585940626750705" lon="14.087510509121167"><ele>6.5</ele><time>2026-05-01T18:51:19.999Z</time></trkpt><trkpt lat="42.5858437535749" lon="14.08761757060591"><ele>7.0</ele><time>2026-05-01T18:51:20.999Z</time></trkpt><trkpt lat="42.58575483903351" lon="14.087744420542748"><ele>7.5</ele><time>2026-05-01T18:51:21.999Z</time></trkpt><trkpt lat="42.58566662470252" lon="14.087870271510004"><ele>8.0</ele><time>2026-05-01T18:51:22.999Z</time></trkpt><trkpt lat="42.585578186976385" lon="14.087996441285155"><ele>8.0</ele><time>2026-05-01T18:51:23.999Z</time></trkpt><trkpt lat="42.585493167376335" lon="14.08811773455098"><ele>8.0</ele><time>2026-05-01T18:51:24.999Z</time></trkpt><trkpt lat="42.585427059338464" lon="14.088244548582411"><ele>8.0</ele><time>2026-05-01T18:51:25.999Z</time></trkpt><trkpt lat="42.585346590183825" lon="14.088326937311647"><ele>8.0</ele><time>2026-05-01T18:51:26.999Z</time></trkpt><trkpt lat="42.58528097496767" lon="14.088420615058165"><ele>8.0</ele><time>2026-05-01T18:51:27.999Z</time></trkpt><trkpt lat="42.58521522815903" lon="14.088514480622388"><ele>9.0</ele><time>2026-05-01T18:51:28.999Z</time></trkpt><trkpt lat="42.58515161880057" lon="14.088605294584958"><ele>10.0</ele><time>2026-05-01T18:51:29.999Z</time></trkpt><trkpt lat="42.58509023484117" lon="14.088692931434931"><ele>11.0</ele><time>2026-05-01T18:51:30.999Z</time></trkpt><trkpt lat="42.58502653693294" lon="14.088783871819132"><ele>12.0</ele><time>2026-05-01T18:51:31.999Z</time></trkpt><trkpt lat="42.58495783799937" lon="14.088881952006327"><ele>13.0</ele><time>2026-05-01T18:51:32.999Z</time></trkpt><trkpt lat="42.58488732124307" lon="14.088982627669571"><ele>13.0</ele><time>2026-05-01T18:51:33.999Z</time></trkpt><trkpt lat="42.58481253298692" lon="14.089088911239312"><ele>13.0</ele><time>2026-05-01T18:51:34.999Z</time></trkpt><trkpt lat="42.58473422636341" lon="14.0891997717639"><ele>13.0</ele><time>2026-05-01T18:51:35.999Z</time></trkpt><trkpt lat="42.58465131167273" lon="14.089317156020678"><ele>13.0</ele><time>2026-05-01T18:51:36.999Z</time></trkpt><trkpt lat="42.58456493264541" lon="14.089439874974904"><ele>12.75</ele><time>2026-05-01T18:51:37.999Z</time></trkpt><trkpt lat="42.584486798531486" lon="14.08958099822906"><ele>12.5</ele><time>2026-05-01T18:51:38.999Z</time></trkpt><trkpt lat="42.58438939470955" lon="14.089704079439128"><ele>12.25</ele><time>2026-05-01T18:51:39.999Z</time></trkpt><trkpt lat="42.58428210437769" lon="14.089825144777127"><ele>12.0</ele><time>2026-05-01T18:51:40.999Z</time></trkpt><trkpt lat="42.58416843020443" lon="14.089934165999276"><ele>11.25</ele><time>2026-05-01T18:51:41.999Z</time></trkpt><trkpt lat="42.584051096698495" lon="14.090029147744891"><ele>10.5</ele><time>2026-05-01T18:51:42.999Z</time></trkpt><trkpt lat="42.58393544033869" lon="14.09011568204601"><ele>9.75</ele><time>2026-05-01T18:51:43.999Z</time></trkpt><trkpt lat="42.58381751802042" lon="14.090197178058546"><ele>9.0</ele><time>2026-05-01T18:51:44.999Z</time></trkpt><trkpt lat="42.58369677358973" lon="14.090281465766381"><ele>9.25</ele><time>2026-05-01T18:51:45.999Z</time></trkpt><trkpt lat="42.58357386561786" lon="14.090364919497711"><ele>9.5</ele><time>2026-05-01T18:51:46.999Z</time></trkpt><trkpt lat="42.583450365666614" lon="14.0904482104921"><ele>9.75</ele><time>2026-05-01T18:51:47.999Z</time></trkpt><trkpt lat="42.58333316327551" lon="14.09053146761375"><ele>10.0</ele><time>2026-05-01T18:51:48.999Z</time></trkpt><trkpt lat="42.5832184085898" lon="14.090612878458163"><ele>10.0</ele><time>2026-05-01T18:51:49.999Z</time></trkpt><trkpt lat="42.58310651670973" lon="14.09069243220485"><ele>10.0</ele><time>2026-05-01T18:51:50.999Z</time></trkpt><trkpt lat="42.58299411322246" lon="14.090772951439112"><ele>10.0</ele><time>2026-05-01T18:51:51.999Z</time></trkpt><trkpt lat="42.58288063814446" lon="14.090854722206663"><ele>10.0</ele><time>2026-05-01T18:51:52.999Z</time></trkpt><trkpt lat="42.58276269464329" lon="14.09093647233965"><ele>8.75</ele><time>2026-05-01T18:51:53.999Z</time></trkpt><trkpt lat="42.58264006007856" lon="14.091023999138626"><ele>7.5</ele><time>2026-05-01T18:51:54.999Z</time></trkpt><trkpt lat="42.58251529093223" lon="14.091111940586318"><ele>6.25</ele><time>2026-05-01T18:51:55.998Z</time></trkpt><trkpt lat="42.582386950336584" lon="14.091202089041106"><ele>5.0</ele><time>2026-05-01T18:51:56.998Z</time></trkpt><trkpt lat="42.5822605103415" lon="14.091292280331093"><ele>5.0</ele><time>2026-05-01T18:51:57.998Z</time></trkpt><trkpt lat="42.58213488036725" lon="14.09138348582603"><ele>5.0</ele><time>2026-05-01T18:51:58.998Z</time></trkpt><trkpt lat="42.58201027294908" lon="14.091470466587015"><ele>5.0</ele><time>2026-05-01T18:51:59.998Z</time></trkpt><trkpt lat="42.581885969402904" lon="14.0915571066896"><ele>5.0</ele><time>2026-05-01T18:52:00.998Z</time></trkpt><trkpt lat="42.58176576862967" lon="14.091645061159717"><ele>4.333333333333334</ele><time>2026-05-01T18:52:01.998Z</time></trkpt><trkpt lat="42.58163522879882" lon="14.09173371550713"><ele>3.666666666666667</ele><time>2026-05-01T18:52:02.998Z</time></trkpt><trkpt lat="42.58149971537597" lon="14.091829886547089"><ele>3.0</ele><time>2026-05-01T18:52:03.998Z</time></trkpt><trkpt lat="42.581366006737824" lon="14.091925670909255"><ele>3.0</ele><time>2026-05-01T18:52:04.998Z</time></trkpt><trkpt lat="42.58123374763109" lon="14.092017952504941"><ele>3.0</ele><time>2026-05-01T18:52:05.998Z</time></trkpt><trkpt lat="42.58110020147241" lon="14.092112798076196"><ele>3.0</ele><time>2026-05-01T18:52:06.998Z</time></trkpt><trkpt lat="42.58096625630354" lon="14.092208930770727"><ele>3.0</ele><time>2026-05-01T18:52:07.998Z</time></trkpt><trkpt lat="42.580840577603375" lon="14.092297296260595"><ele>3.0</ele><time>2026-05-01T18:52:08.998Z</time></trkpt><trkpt lat="42.580716675526915" lon="14.092385578837188"><ele>3.0</ele><time>2026-05-01T18:52:09.998Z</time></trkpt><trkpt lat="42.58059313853431" lon="14.092473220230653"><ele>3.0</ele><time>2026-05-01T18:52:10.998Z</time></trkpt><trkpt lat="42.58047759453003" lon="14.092555095998858"><ele>3.0</ele><time>2026-05-01T18:52:11.998Z</time></trkpt><trkpt lat="42.58036137549772" lon="14.092638137557051"><ele>3.0</ele><time>2026-05-01T18:52:12.998Z</time></trkpt><trkpt lat="42.58024759298039" lon="14.092717396807428"><ele>3.0</ele><time>2026-05-01T18:52:13.998Z</time></trkpt><trkpt lat="42.58013178743641" lon="14.092796460544095"><ele>3.0</ele><time>2026-05-01T18:52:14.998Z</time></trkpt><trkpt lat="42.58001773500937" lon="14.09288011740274"><ele>3.25</ele><time>2026-05-01T18:52:15.998Z</time></trkpt><trkpt lat="42.57989942935688" lon="14.092965740785843"><ele>3.5</ele><time>2026-05-01T18:52:16.998Z</time></trkpt><trkpt lat="42.579780534783914" lon="14.093052638032745"><ele>3.75</ele><time>2026-05-01T18:52:17.998Z</time></trkpt><trkpt lat="42.57965727049869" lon="14.093142077761193"><ele>4.0</ele><time>2026-05-01T18:52:18.998Z</time></trkpt><trkpt lat="42.579533788856054" lon="14.093224333843322"><ele>4.0</ele><time>2026-05-01T18:52:19.998Z</time></trkpt><trkpt lat="42.57941722043417" lon="14.093310369025916"><ele>4.0</ele><time>2026-05-01T18:52:20.998Z</time></trkpt><trkpt lat="42.57930854595853" lon="14.093389310119857"><ele>4.0</ele><time>2026-05-01T18:52:21.998Z</time></trkpt><trkpt lat="42.57920419353094" lon="14.093461859751272"><ele>4.0</ele><time>2026-05-01T18:52:22.998Z</time></trkpt><trkpt lat="42.57910132619413" lon="14.09352907650067"><ele>4.0</ele><time>2026-05-01T18:52:23.998Z</time></trkpt><trkpt lat="42.57899520749903" lon="14.093583708727774"><ele>4.0</ele><time>2026-05-01T18:52:25Z</time></trkpt><trkpt lat="42.57888870797311" lon="14.093633901111522"><ele>4.0</ele><time>2026-05-01T18:52:26Z</time></trkpt><trkpt lat="42.578801987426715" lon="14.093764668666934"><ele>4.0</ele><time>2026-05-01T18:52:27Z</time></trkpt><trkpt lat="42.578693733891065" lon="14.093837744752491"><ele>4.25</ele><time>2026-05-01T18:52:28Z</time></trkpt><trkpt lat="42.578588910485294" lon="14.093914597328794"><ele>4.5</ele><time>2026-05-01T18:52:29Z</time></trkpt><trkpt lat="42.578488047896805" lon="14.093988795896292"><ele>4.75</ele><time>2026-05-01T18:52:30Z</time></trkpt><trkpt lat="42.57838934645133" lon="14.094058696929153"><ele>5.0</ele><time>2026-05-01T18:52:31Z</time></trkpt><trkpt lat="42.578296712239236" lon="14.094128802321517"><ele>5.0</ele><time>2026-05-01T18:52:32Z</time></trkpt><trkpt lat="42.5782015346616" lon="14.094194230930436"><ele>5.0</ele><time>2026-05-01T18:52:33Z</time></trkpt><trkpt lat="42.578102792880976" lon="14.094266351827676"><ele>5.0</ele><time>2026-05-01T18:52:34Z</time></trkpt><trkpt lat="42.57800496604187" lon="14.094338964355142"><ele>5.0</ele><time>2026-05-01T18:52:35Z</time></trkpt><trkpt lat="42.57790387048537" lon="14.094410417014295"><ele>5.0</ele><time>2026-05-01T18:52:36Z</time></trkpt><trkpt lat="42.5778110353193" lon="14.094484578752297"><ele>6.5</ele><time>2026-05-01T18:52:37Z</time></trkpt><trkpt lat="42.57770180395673" lon="14.094559575900194"><ele>8.0</ele><time>2026-05-01T18:52:38Z</time></trkpt><trkpt lat="42.57759444542029" lon="14.094640336909569"><ele>9.5</ele><time>2026-05-01T18:52:39Z</time></trkpt><trkpt lat="42.5774761818806" lon="14.094714490985766"><ele>11.0</ele><time>2026-05-01T18:52:40Z</time></trkpt><trkpt lat="42.577356187388354" lon="14.094800064353834"><ele>11.0</ele><time>2026-05-01T18:52:41Z</time></trkpt><trkpt lat="42.577231232310815" lon="14.094889579471271"><ele>11.0</ele><time>2026-05-01T18:52:42Z</time></trkpt><trkpt lat="42.57710092972345" lon="14.09497839958291"><ele>11.0</ele><time>2026-05-01T18:52:43Z</time></trkpt><trkpt lat="42.5769764802911" lon="14.095064859104351"><ele>11.0</ele><time>2026-05-01T18:52:44Z</time></trkpt><trkpt lat="42.576858008135446" lon="14.095151574898898"><ele>9.75</ele><time>2026-05-01T18:52:45Z</time></trkpt><trkpt lat="42.57674570466789" lon="14.095229469881135"><ele>8.5</ele><time>2026-05-01T18:52:46Z</time></trkpt><trkpt lat="42.576646719922195" lon="14.095299253561974"><ele>7.25</ele><time>2026-05-01T18:52:47Z</time></trkpt><trkpt lat="42.576547258026885" lon="14.095369912150257"><ele>6.0</ele><time>2026-05-01T18:52:48Z</time></trkpt><trkpt lat="42.57643870562131" lon="14.095435552056827"><ele>6.0</ele><time>2026-05-01T18:52:49Z</time></trkpt><trkpt lat="42.5763347711118" lon="14.095517316218917"><ele>6.0</ele><time>2026-05-01T18:52:50Z</time></trkpt><trkpt lat="42.57622578923447" lon="14.095597283538392"><ele>6.0</ele><time>2026-05-01T18:52:51Z</time></trkpt><trkpt lat="42.576120995440824" lon="14.095672976795568"><ele>6.0</ele><time>2026-05-01T18:52:52Z</time></trkpt><trkpt lat="42.57599866885901" lon="14.095753187270349"><ele>5.5</ele><time>2026-05-01T18:52:53Z</time></trkpt><trkpt lat="42.575881875601354" lon="14.0958382853818"><ele>5.0</ele><time>2026-05-01T18:52:54Z</time></trkpt><trkpt lat="42.57576792900174" lon="14.095925674697577"><ele>4.5</ele><time>2026-05-01T18:52:55Z</time></trkpt><trkpt lat="42.57565286192782" lon="14.09600991477876"><ele>4.0</ele><time>2026-05-01T18:52:56Z</time></trkpt><trkpt lat="42.57554698856186" lon="14.096085654067156"><ele>4.0</ele><time>2026-05-01T18:52:57Z</time></trkpt><trkpt lat="42.57544744478635" lon="14.09615176474851"><ele>4.0</ele><time>2026-05-01T18:52:58Z</time></trkpt><trkpt lat="42.575350959439135" lon="14.096224506636185"><ele>4.0</ele><time>2026-05-01T18:52:59Z</time></trkpt><trkpt lat="42.57525280892045" lon="14.096293070286562"><ele>4.0</ele><time>2026-05-01T18:53:00Z</time></trkpt><trkpt lat="42.57516587587434" lon="14.096353615246954"><ele>4.0</ele><time>2026-05-01T18:53:01Z</time></trkpt><trkpt lat="42.575082585988625" lon="14.096409055026541"><ele>4.0</ele><time>2026-05-01T18:53:02Z</time></trkpt><trkpt lat="42.57500265561718" lon="14.096464456095141"><ele>4.0</ele><time>2026-05-01T18:53:03Z</time></trkpt><trkpt lat="42.5749220437088" lon="14.096518671971621"><ele>4.0</ele><time>2026-05-01T18:53:04Z</time></trkpt><trkpt lat="42.57483904046641" lon="14.096577282795408"><ele>4.0</ele><time>2026-05-01T18:53:05Z</time></trkpt><trkpt lat="42.574751082270005" lon="14.096636757193481"><ele>4.0</ele><time>2026-05-01T18:53:06Z</time></trkpt><trkpt lat="42.57465829066219" lon="14.09670608052017"><ele>4.0</ele><time>2026-05-01T18:53:07Z</time></trkpt><trkpt lat="42.574561370987794" lon="14.09677525394848"><ele>4.0</ele><time>2026-05-01T18:53:08Z</time></trkpt><trkpt lat="42.574463084537456" lon="14.096845631697102"><ele>4.0</ele><time>2026-05-01T18:53:09Z</time></trkpt><trkpt lat="42.574374069729714" lon="14.096906550654595"><ele>4.0</ele><time>2026-05-01T18:53:10Z</time></trkpt><trkpt lat="42.57429142282897" lon="14.096961643592273"><ele>4.0</ele><time>2026-05-01T18:53:11Z</time></trkpt><trkpt lat="42.57421872233752" lon="14.097010903013976"><ele>4.800000000000001</ele><time>2026-05-01T18:53:12Z</time></trkpt><trkpt lat="42.574157485150636" lon="14.097047246041202"><ele>5.6000000000000005</ele><time>2026-05-01T18:53:13Z</time></trkpt><trkpt lat="42.574063118195795" lon="14.097107977630856"><ele>6.4</ele><time>2026-05-01T18:53:15Z</time></trkpt><trkpt lat="42.57397977508207" lon="14.097167977335129"><ele>7.2</ele><time>2026-05-01T18:53:17Z</time></trkpt><trkpt lat="42.57386838675803" lon="14.097243719378703"><ele>8.0</ele><time>2026-05-01T18:53:18.999Z</time></trkpt><trkpt lat="42.57379375130431" lon="14.097293776625227"><ele>7.999999999999999</ele><time>2026-05-01T18:53:19.999Z</time></trkpt><trkpt lat="42.57371559363009" lon="14.097345283484737"><ele>8.0</ele><time>2026-05-01T18:53:20.999Z</time></trkpt><trkpt lat="42.57364189200395" lon="14.097394320988663"><ele>8.0</ele><time>2026-05-01T18:53:21.999Z</time></trkpt><trkpt lat="42.57356335682306" lon="14.09744936848764"><ele>8.0</ele><time>2026-05-01T18:53:22.999Z</time></trkpt><trkpt lat="42.57348492572155" lon="14.09750534133496"><ele>7.999999999999999</ele><time>2026-05-01T18:53:23.999Z</time></trkpt><trkpt lat="42.57340269903965" lon="14.097561109487408"><ele>8.0</ele><time>2026-05-01T18:53:24.999Z</time></trkpt><trkpt lat="42.57332167448681" lon="14.097619087243455"><ele>7.800000000000001</ele><time>2026-05-01T18:53:25.999Z</time></trkpt><trkpt lat="42.57323755277128" lon="14.097678209493083"><ele>7.6000000000000005</ele><time>2026-05-01T18:53:26.999Z</time></trkpt><trkpt lat="42.573149672320234" lon="14.097740524952178"><ele>7.3999999999999995</ele><time>2026-05-01T18:53:27.999Z</time></trkpt><trkpt lat="42.57305913263576" lon="14.097803044194812"><ele>7.199999999999999</ele><time>2026-05-01T18:53:28.999Z</time></trkpt><trkpt lat="42.57296807628762" lon="14.097868236351681"><ele>7.0</ele><time>2026-05-01T18:53:29.999Z</time></trkpt><trkpt lat="42.57287781192407" lon="14.097934636943632"><ele>7.5</ele><time>2026-05-01T18:53:30.999Z</time></trkpt><trkpt lat="42.572784305375606" lon="14.09800145464813"><ele>8.0</ele><time>2026-05-01T18:53:31.999Z</time></trkpt><trkpt lat="42.57268975563656" lon="14.098067269396122"><ele>8.5</ele><time>2026-05-01T18:53:32.999Z</time></trkpt><trkpt lat="42.57258712974988" lon="14.09813962612649"><ele>9.0</ele><time>2026-05-01T18:53:33.999Z</time></trkpt><trkpt lat="42.57247301999398" lon="14.098219227471017"><ele>8.25</ele><time>2026-05-01T18:53:34.999Z</time></trkpt><trkpt lat="42.57235448418428" lon="14.098303261495637"><ele>7.5</ele><time>2026-05-01T18:53:35.999Z</time></trkpt><trkpt lat="42.572239418716286" lon="14.09838665762859"><ele>6.75</ele><time>2026-05-01T18:53:36.999Z</time></trkpt><trkpt lat="42.57211856578675" lon="14.098467486283138"><ele>6.0</ele><time>2026-05-01T18:53:37.999Z</time></trkpt><trkpt lat="42.57199759550353" lon="14.09855433701419"><ele>6.0</ele><time>2026-05-01T18:53:38.999Z</time></trkpt><trkpt lat="42.5718783014487" lon="14.098640663636706"><ele>6.0</ele><time>2026-05-01T18:53:39.999Z</time></trkpt><trkpt lat="42.571767247196206" lon="14.098726931968852"><ele>6.0</ele><time>2026-05-01T18:53:40.999Z</time></trkpt><trkpt lat="42.571663591615035" lon="14.098810724421275"><ele>6.0</ele><time>2026-05-01T18:53:41.999Z</time></trkpt><trkpt lat="42.57155500172284" lon="14.098902174878448"><ele>6.0</ele><time>2026-05-01T18:53:42.999Z</time></trkpt><trkpt lat="42.57144059710078" lon="14.098992919216679"><ele>6.0</ele><time>2026-05-01T18:53:43.999Z</time></trkpt><trkpt lat="42.571326514916244" lon="14.099077955419633"><ele>6.0</ele><time>2026-05-01T18:53:44.999Z</time></trkpt><trkpt lat="42.571215946882944" lon="14.099157987769491"><ele>6.0</ele><time>2026-05-01T18:53:45.999Z</time></trkpt><trkpt lat="42.57110547825801" lon="14.0992367638304"><ele>5.5</ele><time>2026-05-01T18:53:46.999Z</time></trkpt><trkpt lat="42.570998363905055" lon="14.099315418069816"><ele>5.0</ele><time>2026-05-01T18:53:47.999Z</time></trkpt><trkpt lat="42.57088907964969" lon="14.099394024783933"><ele>4.5</ele><time>2026-05-01T18:53:48.999Z</time></trkpt><trkpt lat="42.570776596950665" lon="14.099473244277824"><ele>4.0</ele><time>2026-05-01T18:53:49.999Z</time></trkpt><trkpt lat="42.570657337068916" lon="14.099553447598806"><ele>4.0</ele><time>2026-05-01T18:53:50.999Z</time></trkpt><trkpt lat="42.570531868502066" lon="14.099640496055391"><ele>4.0</ele><time>2026-05-01T18:53:51.999Z</time></trkpt><trkpt lat="42.57040424906686" lon="14.099729143548888"><ele>4.0</ele><time>2026-05-01T18:53:52.999Z</time></trkpt><trkpt lat="42.57027791090728" lon="14.0998190822225"><ele>4.0</ele><time>2026-05-01T18:53:53.999Z</time></trkpt><trkpt lat="42.57015487666482" lon="14.099904970946843"><ele>4.25</ele><time>2026-05-01T18:53:54.999Z</time></trkpt><trkpt lat="42.570034828373274" lon="14.099991057319945"><ele>4.5</ele><time>2026-05-01T18:53:55.999Z</time></trkpt><trkpt lat="42.569914431457136" lon="14.100075584370837"><ele>4.75</ele><time>2026-05-01T18:53:56.999Z</time></trkpt><trkpt lat="42.5697935889608" lon="14.100160470062404"><ele>5.0</ele><time>2026-05-01T18:53:57.999Z</time></trkpt><trkpt lat="42.569666964474656" lon="14.1002508204817"><ele>5.0</ele><time>2026-05-01T18:53:58.999Z</time></trkpt><trkpt lat="42.56953536515659" lon="14.100341264542708"><ele>5.0</ele><time>2026-05-01T18:53:59.999Z</time></trkpt><trkpt lat="42.56941136361541" lon="14.100428009636866"><ele>5.0</ele><time>2026-05-01T18:54:00.999Z</time></trkpt><trkpt lat="42.56928603477787" lon="14.100517472621265"><ele>5.0</ele><time>2026-05-01T18:54:01.999Z</time></trkpt><trkpt lat="42.56916199931526" lon="14.100604501030869"><ele>5.0</ele><time>2026-05-01T18:54:02.999Z</time></trkpt><trkpt lat="42.56903584445836" lon="14.100694137281186"><ele>5.0</ele><time>2026-05-01T18:54:03.999Z</time></trkpt><trkpt lat="42.5689106854856" lon="14.100784460905604"><ele>5.0</ele><time>2026-05-01T18:54:04.999Z</time></trkpt><trkpt lat="42.568781484839946" lon="14.100878610458688"><ele>5.0</ele><time>2026-05-01T18:54:05.999Z</time></trkpt><trkpt lat="42.56865312155104" lon="14.100972505814836"><ele>5.25</ele><time>2026-05-01T18:54:06.999Z</time></trkpt><trkpt lat="42.56852851825247" lon="14.101065232950004"><ele>5.5</ele><time>2026-05-01T18:54:07.999Z</time></trkpt><trkpt lat="42.56840965966525" lon="14.101152211336807"><ele>5.75</ele><time>2026-05-01T18:54:08.998Z</time></trkpt><trkpt lat="42.568287441333204" lon="14.101240573053836"><ele>6.0</ele><time>2026-05-01T18:54:09.998Z</time></trkpt><trkpt lat="42.5681591213417" lon="14.101334059007945"><ele>6.0</ele><time>2026-05-01T18:54:10.998Z</time></trkpt><trkpt lat="42.568031660083896" lon="14.101422963610673"><ele>6.0</ele><time>2026-05-01T18:54:11.998Z</time></trkpt><trkpt lat="42.567907163375196" lon="14.10150959124343"><ele>6.0</ele><time>2026-05-01T18:54:12.998Z</time></trkpt><trkpt lat="42.56778715605327" lon="14.101593406314963"><ele>6.0</ele><time>2026-05-01T18:54:13.998Z</time></trkpt><trkpt lat="42.56766687885968" lon="14.101683956472375"><ele>6.0</ele><time>2026-05-01T18:54:14.998Z</time></trkpt><trkpt lat="42.56753582005456" lon="14.101775338535848"><ele>6.0</ele><time>2026-05-01T18:54:15.998Z</time></trkpt><trkpt lat="42.56740156465103" lon="14.101872184715482"><ele>6.0</ele><time>2026-05-01T18:54:16.998Z</time></trkpt><trkpt lat="42.567257520039824" lon="14.101952501614367"><ele>6.0</ele><time>2026-05-01T18:54:17.998Z</time></trkpt><trkpt lat="42.56712376551524" lon="14.102047318187783"><ele>6.0</ele><time>2026-05-01T18:54:18.998Z</time></trkpt><trkpt lat="42.566999201169004" lon="14.102158424291916"><ele>6.0</ele><time>2026-05-01T18:54:19.998Z</time></trkpt><trkpt lat="42.56686915559458" lon="14.102251930472663"><ele>6.0</ele><time>2026-05-01T18:54:20.998Z</time></trkpt><trkpt lat="42.56674181795542" lon="14.102338298718914"><ele>6.25</ele><time>2026-05-01T18:54:21.998Z</time></trkpt><trkpt lat="42.56661671750866" lon="14.102426008243457"><ele>6.5</ele><time>2026-05-01T18:54:22.998Z</time></trkpt><trkpt lat="42.56648777617052" lon="14.102515821211874"><ele>6.75</ele><time>2026-05-01T18:54:23.998Z</time></trkpt><trkpt lat="42.56636363557002" lon="14.102602391711942"><ele>7.0</ele><time>2026-05-01T18:54:24.998Z</time></trkpt><trkpt lat="42.56624250539298" lon="14.102690501595763"><ele>7.75</ele><time>2026-05-01T18:54:25.998Z</time></trkpt><trkpt lat="42.56612984225555" lon="14.102767624265992"><ele>8.5</ele><time>2026-05-01T18:54:26.998Z</time></trkpt><trkpt lat="42.56602501418422" lon="14.102845162339515"><ele>9.25</ele><time>2026-05-01T18:54:27.998Z</time></trkpt><trkpt lat="42.56591752853989" lon="14.10291245824088"><ele>10.0</ele><time>2026-05-01T18:54:28.998Z</time></trkpt><trkpt lat="42.56580162246697" lon="14.102995403721557"><ele>10.0</ele><time>2026-05-01T18:54:29.998Z</time></trkpt><trkpt lat="42.56568902499986" lon="14.103079627521447"><ele>10.0</ele><time>2026-05-01T18:54:31Z</time></trkpt><trkpt lat="42.56557584884791" lon="14.103163113546518"><ele>10.0</ele><time>2026-05-01T18:54:32Z</time></trkpt><trkpt lat="42.5654547482408" lon="14.103249100032187"><ele>10.0</ele><time>2026-05-01T18:54:33Z</time></trkpt><trkpt lat="42.56533827217777" lon="14.10332964145405"><ele>9.75</ele><time>2026-05-01T18:54:34Z</time></trkpt><trkpt lat="42.56522320716219" lon="14.103410228911574"><ele>9.5</ele><time>2026-05-01T18:54:35Z</time></trkpt><trkpt lat="42.56510605802596" lon="14.103491588979674"><ele>9.25</ele><time>2026-05-01T18:54:36Z</time></trkpt><trkpt lat="42.5649879929183" lon="14.10357436151226"><ele>9.0</ele><time>2026-05-01T18:54:37Z</time></trkpt><trkpt lat="42.56486513412702" lon="14.103661888448865"><ele>9.0</ele><time>2026-05-01T18:54:38Z</time></trkpt><trkpt lat="42.56473829196491" lon="14.103752578281647"><ele>9.0</ele><time>2026-05-01T18:54:39Z</time></trkpt><trkpt lat="42.564611142908056" lon="14.103845172431013"><ele>9.0</ele><time>2026-05-01T18:54:40Z</time></trkpt><trkpt lat="42.56449026699873" lon="14.103942079985755"><ele>9.0</ele><time>2026-05-01T18:54:41Z</time></trkpt><trkpt lat="42.56437384713033" lon="14.104051091690529"><ele>8.5</ele><time>2026-05-01T18:54:42Z</time></trkpt><trkpt lat="42.56425384014163" lon="14.104139713019508"><ele>8.0</ele><time>2026-05-01T18:54:43Z</time></trkpt><trkpt lat="42.56414750121855" lon="14.104241513831134"><ele>7.5</ele><time>2026-05-01T18:54:44Z</time></trkpt><trkpt lat="42.564052036368366" lon="14.10434375197027"><ele>7.0</ele><time>2026-05-01T18:54:45Z</time></trkpt><trkpt lat="42.563964757332954" lon="14.104433889107401"><ele>7.0</ele><time>2026-05-01T18:54:46Z</time></trkpt><trkpt lat="42.563886275182625" lon="14.104514189846773"><ele>6.999999999999999</ele><time>2026-05-01T18:54:47Z</time></trkpt><trkpt lat="42.56381484623138" lon="14.104589556767523"><ele>6.999999999999999</ele><time>2026-05-01T18:54:48Z</time></trkpt><trkpt lat="42.56374592330972" lon="14.104662637186138"><ele>7.0</ele><time>2026-05-01T18:54:49Z</time></trkpt><trkpt lat="42.563677640205015" lon="14.104736509007358"><ele>7.0</ele><time>2026-05-01T18:54:50Z</time></trkpt><trkpt lat="42.56360924790695" lon="14.10481246511468"><ele>7.6</ele><time>2026-05-01T18:54:51Z</time></trkpt><trkpt lat="42.56353538414884" lon="14.10489133253876"><ele>8.2</ele><time>2026-05-01T18:54:52Z</time></trkpt><trkpt lat="42.563456227205805" lon="14.104975473182646"><ele>8.8</ele><time>2026-05-01T18:54:53Z</time></trkpt><trkpt lat="42.563374242823905" lon="14.10506322700115"><ele>9.4</ele><time>2026-05-01T18:54:54Z</time></trkpt><trkpt lat="42.56329614466206" lon="14.105147407749454"><ele>10.0</ele><time>2026-05-01T18:54:55Z</time></trkpt><trkpt lat="42.56322310961977" lon="14.105226131099105"><ele>10.0</ele><time>2026-05-01T18:54:56Z</time></trkpt><trkpt lat="42.56315442286306" lon="14.10530016659847"><ele>10.0</ele><time>2026-05-01T18:54:57Z</time></trkpt><trkpt lat="42.56308840700424" lon="14.105371435123814"><ele>10.0</ele><time>2026-05-01T18:54:58Z</time></trkpt><trkpt lat="42.56303092854257" lon="14.105433463459029"><ele>10.0</ele><time>2026-05-01T18:54:59Z</time></trkpt><trkpt lat="42.56297574581985" lon="14.105493014381153"><ele>10.0</ele><time>2026-05-01T18:55:00Z</time></trkpt><trkpt lat="42.56292626185777" lon="14.105546415515851"><ele>10.0</ele><time>2026-05-01T18:55:01Z</time></trkpt><trkpt lat="42.56283957034366" lon="14.105639969377373"><ele>9.666666666666668</ele><time>2026-05-01T18:55:03Z</time></trkpt><trkpt lat="42.56277728451006" lon="14.105707111751807"><ele>9.333333333333334</ele><time>2026-05-01T18:55:05Z</time></trkpt><trkpt lat="42.562714429510386" lon="14.105774563131005"><ele>9.0</ele><time>2026-05-01T18:55:08Z</time></trkpt><trkpt lat="42.56264020459529" lon="14.105854215767138"><ele>8.666666666666666</ele><time>2026-05-01T18:55:10Z</time></trkpt><trkpt lat="42.562589603259795" lon="14.105908208560686"><ele>8.333333333333332</ele><time>2026-05-01T18:55:11Z</time></trkpt><trkpt lat="42.56253765080047" lon="14.105963558915047"><ele>8.0</ele><time>2026-05-01T18:55:12Z</time></trkpt><trkpt lat="42.56248612986494" lon="14.106018449470618"><ele>7.999999999999999</ele><time>2026-05-01T18:55:13Z</time></trkpt><trkpt lat="42.56243595456709" lon="14.106071906359642"><ele>8.0</ele><time>2026-05-01T18:55:14Z</time></trkpt><trkpt lat="42.56238628473213" lon="14.106124824741638"><ele>8.0</ele><time>2026-05-01T18:55:15Z</time></trkpt><trkpt lat="42.56230965082662" lon="14.106206470692527"><ele>8.0</ele><time>2026-05-01T18:55:17Z</time></trkpt><trkpt lat="42.562244480777366" lon="14.106275903168365"><ele>7.999999999999999</ele><time>2026-05-01T18:55:19Z</time></trkpt><trkpt lat="42.5621522314758" lon="14.106374185768997"><ele>8.0</ele><time>2026-05-01T18:55:21Z</time></trkpt><trkpt lat="42.56206107925808" lon="14.106471921066738"><ele>7.857142857142857</ele><time>2026-05-01T18:55:23Z</time></trkpt><trkpt lat="42.56200816537564" lon="14.106528240841065"><ele>7.7142857142857135</ele><time>2026-05-01T18:55:23.999Z</time></trkpt><trkpt lat="42.561957386931944" lon="14.106582559319612"><ele>7.571428571428571</ele><time>2026-05-01T18:55:24.999Z</time></trkpt><trkpt lat="42.56189778956788" lon="14.106646311777086"><ele>7.428571428571429</ele><time>2026-05-01T18:55:25.999Z</time></trkpt><trkpt lat="42.56183441074341" lon="14.106714109164196"><ele>7.285714285714286</ele><time>2026-05-01T18:55:26.999Z</time></trkpt><trkpt lat="42.5617799921962" lon="14.106772321581508"><ele>7.142857142857142</ele><time>2026-05-01T18:55:27.999Z</time></trkpt><trkpt lat="42.56172896250829" lon="14.10682690908449"><ele>7.0</ele><time>2026-05-01T18:55:28.999Z</time></trkpt><trkpt lat="42.56167158690553" lon="14.106888284878448"><ele>7.000000000000001</ele><time>2026-05-01T18:55:29.999Z</time></trkpt><trkpt lat="42.56160317211526" lon="14.10696146937747"><ele>7.0</ele><time>2026-05-01T18:55:30.999Z</time></trkpt><trkpt lat="42.56153202595038" lon="14.107037575726329"><ele>7.0</ele><time>2026-05-01T18:55:31.999Z</time></trkpt><trkpt lat="42.56146379463438" lon="14.107111117474703"><ele>7.0</ele><time>2026-05-01T18:55:32.999Z</time></trkpt><trkpt lat="42.5613980347777" lon="14.107182119608286"><ele>7.000000000000001</ele><time>2026-05-01T18:55:33.999Z</time></trkpt><trkpt lat="42.56133356529047" lon="14.107251728550342"><ele>7.0</ele><time>2026-05-01T18:55:34.999Z</time></trkpt><trkpt lat="42.561267356400556" lon="14.107323215546007"><ele>7.0</ele><time>2026-05-01T18:55:35.999Z</time></trkpt><trkpt lat="42.561199860869145" lon="14.107394244686677"><ele>6.999999999999999</ele><time>2026-05-01T18:55:36.999Z</time></trkpt><trkpt lat="42.561138489831144" lon="14.107459063567607"><ele>6.999999999999999</ele><time>2026-05-01T18:55:37.999Z</time></trkpt><trkpt lat="42.56107618953585" lon="14.107524872331595"><ele>7.0</ele><time>2026-05-01T18:55:38.999Z</time></trkpt><trkpt lat="42.56100231014813" lon="14.107602912141472"><ele>7.0</ele><time>2026-05-01T18:55:39.999Z</time></trkpt><trkpt lat="42.56091002346069" lon="14.107700941401996"><ele>7.75</ele><time>2026-05-01T18:55:40.999Z</time></trkpt><trkpt lat="42.56080686945517" lon="14.107812132557276"><ele>8.5</ele><time>2026-05-01T18:55:41.999Z</time></trkpt><trkpt lat="42.560702710623794" lon="14.107925049894817"><ele>9.25</ele><time>2026-05-01T18:55:42.999Z</time></trkpt><trkpt lat="42.56059165337521" lon="14.108045787907221"><ele>10.0</ele><time>2026-05-01T18:55:43.999Z</time></trkpt><trkpt lat="42.560482439183716" lon="14.108164522138935"><ele>10.0</ele><time>2026-05-01T18:55:44.999Z</time></trkpt><trkpt lat="42.5603757222511" lon="14.108280542915498"><ele>10.0</ele><time>2026-05-01T18:55:45.999Z</time></trkpt><trkpt lat="42.560268145328365" lon="14.108397496656316"><ele>10.0</ele><time>2026-05-01T18:55:46.999Z</time></trkpt><trkpt lat="42.56015695214452" lon="14.108518775511204"><ele>10.0</ele><time>2026-05-01T18:55:47.999Z</time></trkpt><trkpt lat="42.560053812360536" lon="14.108658203510812"><ele>10.0</ele><time>2026-05-01T18:55:48.999Z</time></trkpt><trkpt lat="42.5599411876255" lon="14.108778026093864"><ele>10.0</ele><time>2026-05-01T18:55:49.999Z</time></trkpt><trkpt lat="42.559831314235204" lon="14.108898351585179"><ele>10.0</ele><time>2026-05-01T18:55:50.999Z</time></trkpt><trkpt lat="42.559720594183375" lon="14.109019389284846"><ele>10.0</ele><time>2026-05-01T18:55:51.999Z</time></trkpt><trkpt lat="42.559605351430356" lon="14.109143035597592"><ele>11.5</ele><time>2026-05-01T18:55:52.999Z</time></trkpt><trkpt lat="42.559476348138446" lon="14.109254052392423"><ele>13.0</ele><time>2026-05-01T18:55:53.999Z</time></trkpt><trkpt lat="42.55936067321129" lon="14.109378653138949"><ele>14.5</ele><time>2026-05-01T18:55:54.999Z</time></trkpt><trkpt lat="42.55924845024325" lon="14.109499646760492"><ele>16.0</ele><time>2026-05-01T18:55:55.999Z</time></trkpt><trkpt lat="42.55913988855885" lon="14.109616693053802"><ele>16.0</ele><time>2026-05-01T18:55:56.999Z</time></trkpt><trkpt lat="42.55903459034475" lon="14.1097302207606"><ele>16.0</ele><time>2026-05-01T18:55:57.999Z</time></trkpt><trkpt lat="42.55892970436441" lon="14.109843303982526"><ele>16.0</ele><time>2026-05-01T18:55:58.999Z</time></trkpt><trkpt lat="42.55882763994512" lon="14.109953855268435"><ele>16.0</ele><time>2026-05-01T18:55:59.999Z</time></trkpt><trkpt lat="42.55873984290241" lon="14.110085244847882"><ele>15.25</ele><time>2026-05-01T18:56:00.999Z</time></trkpt><trkpt lat="42.55863968349686" lon="14.11019323767501"><ele>14.5</ele><time>2026-05-01T18:56:01.999Z</time></trkpt><trkpt lat="42.55853605235271" lon="14.110301929537101"><ele>13.75</ele><time>2026-05-01T18:56:02.999Z</time></trkpt><trkpt lat="42.55843393254445" lon="14.110409280070222"><ele>13.0</ele><time>2026-05-01T18:56:03.999Z</time></trkpt><trkpt lat="42.55833393032389" lon="14.110516498018237"><ele>13.0</ele><time>2026-05-01T18:56:04.999Z</time></trkpt><trkpt lat="42.55823549308617" lon="14.110622884496141"><ele>13.0</ele><time>2026-05-01T18:56:05.999Z</time></trkpt><trkpt lat="42.55813881972087" lon="14.11072931738096"><ele>13.0</ele><time>2026-05-01T18:56:06.999Z</time></trkpt><trkpt lat="42.558043295854226" lon="14.11083299976149"><ele>13.0</ele><time>2026-05-01T18:56:07.999Z</time></trkpt><trkpt lat="42.55793898706771" lon="14.110921026263489"><ele>13.5</ele><time>2026-05-01T18:56:08.999Z</time></trkpt><trkpt lat="42.55784333215147" lon="14.111025201058593"><ele>14.0</ele><time>2026-05-01T18:56:09.999Z</time></trkpt><trkpt lat="42.557747171451986" lon="14.111129926674922"><ele>14.5</ele><time>2026-05-01T18:56:10.999Z</time></trkpt><trkpt lat="42.55765102551417" lon="14.111233861385937"><ele>15.0</ele><time>2026-05-01T18:56:11.999Z</time></trkpt><trkpt lat="42.55755279680337" lon="14.11133920865991"><ele>15.0</ele><time>2026-05-01T18:56:12.999Z</time></trkpt><trkpt lat="42.55746394797064" lon="14.111461673536352"><ele>15.0</ele><time>2026-05-01T18:56:13.999Z</time></trkpt><trkpt lat="42.55736625880599" lon="14.111561617279618"><ele>15.0</ele><time>2026-05-01T18:56:14.998Z</time></trkpt><trkpt lat="42.5572691891334" lon="14.111655099314284"><ele>15.0</ele><time>2026-05-01T18:56:15.998Z</time></trkpt><trkpt lat="42.55717499463393" lon="14.11174338075615"><ele>14.4</ele><time>2026-05-01T18:56:16.998Z</time></trkpt><trkpt lat="42.55708862790788" lon="14.111832610765116"><ele>13.8</ele><time>2026-05-01T18:56:17.998Z</time></trkpt><trkpt lat="42.557005820650126" lon="14.111922080420271"><ele>13.2</ele><time>2026-05-01T18:56:18.998Z</time></trkpt><trkpt lat="42.556901176610964" lon="14.111933514178123"><ele>12.6</ele><time>2026-05-01T18:56:19.998Z</time></trkpt><trkpt lat="42.556818305065086" lon="14.111997250783489"><ele>12.0</ele><time>2026-05-01T18:56:20.998Z</time></trkpt><trkpt lat="42.556729409124905" lon="14.11206562058719"><ele>12.0</ele><time>2026-05-01T18:56:21.998Z</time></trkpt><trkpt lat="42.55664457448369" lon="14.112130866807275"><ele>12.0</ele><time>2026-05-01T18:56:22.998Z</time></trkpt><trkpt lat="42.5565671987131" lon="14.112190376397423"><ele>12.0</ele><time>2026-05-01T18:56:23.998Z</time></trkpt><trkpt lat="42.55649162281603" lon="14.112248501814568"><ele>12.0</ele><time>2026-05-01T18:56:24.998Z</time></trkpt><trkpt lat="42.55642814246886" lon="14.112297453592188"><ele>12.0</ele><time>2026-05-01T18:56:25.998Z</time></trkpt><trkpt lat="42.55636615311402" lon="14.11234538936164"><ele>12.0</ele><time>2026-05-01T18:56:26.998Z</time></trkpt><trkpt lat="42.55629990616747" lon="14.112396617468624"><ele>11.166666666666666</ele><time>2026-05-01T18:56:27.998Z</time></trkpt><trkpt lat="42.55622920161051" lon="14.112451738208472"><ele>10.333333333333334</ele><time>2026-05-01T18:56:28.998Z</time></trkpt><trkpt lat="42.55615901590601" lon="14.1125067228347"><ele>9.5</ele><time>2026-05-01T18:56:29.998Z</time></trkpt><trkpt lat="42.5560877555177" lon="14.112562549450772"><ele>8.666666666666668</ele><time>2026-05-01T18:56:30.998Z</time></trkpt><trkpt lat="42.55602458687802" lon="14.112612036770669"><ele>7.833333333333334</ele><time>2026-05-01T18:56:31.998Z</time></trkpt><trkpt lat="42.555962677104034" lon="14.112660537983482"><ele>7.0</ele><time>2026-05-01T18:56:32.998Z</time></trkpt><trkpt lat="42.55589007686109" lon="14.112717415915665"><ele>7.000000000000001</ele><time>2026-05-01T18:56:33.998Z</time></trkpt><trkpt lat="42.555816721738644" lon="14.112774210590342"><ele>7.0</ele><time>2026-05-01T18:56:34.998Z</time></trkpt><trkpt lat="42.555744095922236" lon="14.11283069362548"><ele>7.0</ele><time>2026-05-01T18:56:36Z</time></trkpt><trkpt lat="42.55567394806174" lon="14.112885248089762"><ele>7.0</ele><time>2026-05-01T18:56:37Z</time></trkpt><trkpt lat="42.55560667177774" lon="14.112937721331212"><ele>7.000000000000001</ele><time>2026-05-01T18:56:38Z</time></trkpt><trkpt lat="42.555541771824174" lon="14.112988835788887"><ele>7.0</ele><time>2026-05-01T18:56:39Z</time></trkpt><trkpt lat="42.555481875372536" lon="14.11303600957777"><ele>7.0</ele><time>2026-05-01T18:56:40Z</time></trkpt><trkpt lat="42.555407944979095" lon="14.113094236256558"><ele>7.0</ele><time>2026-05-01T18:56:41Z</time></trkpt><trkpt lat="42.55528426657519" lon="14.113189178223228"><ele>7.0</ele><time>2026-05-01T18:56:42Z</time></trkpt><trkpt lat="42.55519322033206" lon="14.11332585071359"><ele>7.0</ele><time>2026-05-01T18:56:43Z</time></trkpt><trkpt lat="42.55506865837036" lon="14.113416357661425"><ele>6.75</ele><time>2026-05-01T18:56:44Z</time></trkpt><trkpt lat="42.5549440731995" lon="14.113511085038692"><ele>6.5</ele><time>2026-05-01T18:56:45Z</time></trkpt><trkpt lat="42.55481631207682" lon="14.11360821198575"><ele>6.25</ele><time>2026-05-01T18:56:46Z</time></trkpt><trkpt lat="42.55468222863776" lon="14.113711600106983"><ele>6.0</ele><time>2026-05-01T18:56:47Z</time></trkpt><trkpt lat="42.55454209053004" lon="14.11381717546939"><ele>6.0</ele><time>2026-05-01T18:56:48Z</time></trkpt><trkpt lat="42.554380512541115" lon="14.11386537447413"><ele>6.0</ele><time>2026-05-01T18:56:49Z</time></trkpt><trkpt lat="42.55424750713107" lon="14.113965097370352"><ele>6.0</ele><time>2026-05-01T18:56:50Z</time></trkpt><trkpt lat="42.554126757190716" lon="14.114055849128963"><ele>5.75</ele><time>2026-05-01T18:56:51Z</time></trkpt><trkpt lat="42.55400972503383" lon="14.114145354341028"><ele>5.5</ele><time>2026-05-01T18:56:52Z</time></trkpt><trkpt lat="42.553889150906116" lon="14.114239414165338"><ele>5.25</ele><time>2026-05-01T18:56:53Z</time></trkpt><trkpt lat="42.55376324471073" lon="14.114335643590117"><ele>5.0</ele><time>2026-05-01T18:56:54Z</time></trkpt><trkpt lat="42.55362982246353" lon="14.114438094608142"><ele>5.666666666666667</ele><time>2026-05-01T18:56:55Z</time></trkpt><trkpt lat="42.553484862872516" lon="14.114550001306913"><ele>6.333333333333334</ele><time>2026-05-01T18:56:56Z</time></trkpt><trkpt lat="42.55333718323204" lon="14.114665292000142"><ele>7.0</ele><time>2026-05-01T18:56:57Z</time></trkpt><trkpt lat="42.55318573665905" lon="14.114783522479682"><ele>7.0</ele><time>2026-05-01T18:56:58Z</time></trkpt><trkpt lat="42.553029486058826" lon="14.114903660808197"><ele>7.0</ele><time>2026-05-01T18:56:59Z</time></trkpt><trkpt lat="42.55287729053629" lon="14.11502150863495"><ele>7.0</ele><time>2026-05-01T18:57:00Z</time></trkpt><trkpt lat="42.552721456489245" lon="14.11514132481932"><ele>7.0</ele><time>2026-05-01T18:57:01Z</time></trkpt><trkpt lat="42.55256316727102" lon="14.115264265962548"><ele>7.0</ele><time>2026-05-01T18:57:02Z</time></trkpt><trkpt lat="42.55241073395631" lon="14.115382658934292"><ele>7.0</ele><time>2026-05-01T18:57:03Z</time></trkpt><trkpt lat="42.55225974619246" lon="14.115499932073197"><ele>7.0</ele><time>2026-05-01T18:57:04Z</time></trkpt><trkpt lat="42.55211375890879" lon="14.11561420275088"><ele>7.0</ele><time>2026-05-01T18:57:05Z</time></trkpt><trkpt lat="42.551967728531395" lon="14.115730215555121"><ele>7.0</ele><time>2026-05-01T18:57:06Z</time></trkpt><trkpt lat="42.55182874662721" lon="14.115842034131896"><ele>6.666666666666667</ele><time>2026-05-01T18:57:07Z</time></trkpt><trkpt lat="42.551687734264554" lon="14.115954070777688"><ele>6.333333333333334</ele><time>2026-05-01T18:57:08Z</time></trkpt><trkpt lat="42.551552458894946" lon="14.116085797870591"><ele>6.0</ele><time>2026-05-01T18:57:09Z</time></trkpt><trkpt lat="42.551404670141714" lon="14.116202137449177"><ele>6.0</ele><time>2026-05-01T18:57:10Z</time></trkpt><trkpt lat="42.551256556646926" lon="14.11631496731212"><ele>6.0</ele><time>2026-05-01T18:57:11Z</time></trkpt><trkpt lat="42.55110761859221" lon="14.11642771156715"><ele>6.0</ele><time>2026-05-01T18:57:12Z</time></trkpt><trkpt lat="42.55097170757984" lon="14.116535072479191"><ele>5.5</ele><time>2026-05-01T18:57:13Z</time></trkpt><trkpt lat="42.550842410370116" lon="14.116639122551048"><ele>5.0</ele><time>2026-05-01T18:57:14Z</time></trkpt><trkpt lat="42.550719405182846" lon="14.116734292686864"><ele>4.5</ele><time>2026-05-01T18:57:15Z</time></trkpt><trkpt lat="42.5505988343656" lon="14.116826043791749"><ele>4.0</ele><time>2026-05-01T18:57:16Z</time></trkpt><trkpt lat="42.55048191420963" lon="14.116918465432967"><ele>4.0</ele><time>2026-05-01T18:57:17Z</time></trkpt><trkpt lat="42.550375382274034" lon="14.117002134747562"><ele>4.0</ele><time>2026-05-01T18:57:18Z</time></trkpt><trkpt lat="42.55027661757549" lon="14.117076911116186"><ele>4.0</ele><time>2026-05-01T18:57:19Z</time></trkpt><trkpt lat="42.5501887666821" lon="14.117147355651126"><ele>4.0</ele><time>2026-05-01T18:57:20Z</time></trkpt><trkpt lat="42.550102893008415" lon="14.117213980471794"><ele>4.0</ele><time>2026-05-01T18:57:21Z</time></trkpt><trkpt lat="42.55001793196576" lon="14.117280120004931"><ele>4.2</ele><time>2026-05-01T18:57:22Z</time></trkpt><trkpt lat="42.54993037218734" lon="14.117347417202616"><ele>4.4</ele><time>2026-05-01T18:57:23Z</time></trkpt><trkpt lat="42.549841190126585" lon="14.117415188790583"><ele>4.6</ele><time>2026-05-01T18:57:24Z</time></trkpt><trkpt lat="42.54975084130579" lon="14.117484217485057"><ele>4.8</ele><time>2026-05-01T18:57:25Z</time></trkpt><trkpt lat="42.549668675842604" lon="14.117547347914867"><ele>5.0</ele><time>2026-05-01T18:57:26Z</time></trkpt><trkpt lat="42.54958979111794" lon="14.117615755453041"><ele>4.8</ele><time>2026-05-01T18:57:27Z</time></trkpt><trkpt lat="42.54950402880611" lon="14.117667242163684"><ele>4.6</ele><time>2026-05-01T18:57:28Z</time></trkpt><trkpt lat="42.54941799408917" lon="14.117740871653691"><ele>4.4</ele><time>2026-05-01T18:57:29Z</time></trkpt><trkpt lat="42.549339209058274" lon="14.117805537960418"><ele>4.2</ele><time>2026-05-01T18:57:30Z</time></trkpt><trkpt lat="42.54926204677638" lon="14.117865139263179"><ele>4.0</ele><time>2026-05-01T18:57:31Z</time></trkpt><trkpt lat="42.54917887473017" lon="14.117906773716584"><ele>3.9999999999999996</ele><time>2026-05-01T18:57:32Z</time></trkpt><trkpt lat="42.54909879140661" lon="14.117968527584887"><ele>4.0</ele><time>2026-05-01T18:57:33Z</time></trkpt><trkpt lat="42.54901640244281" lon="14.118032531761239"><ele>4.0</ele><time>2026-05-01T18:57:34Z</time></trkpt><trkpt lat="42.54893447951806" lon="14.118096243778734"><ele>4.0</ele><time>2026-05-01T18:57:35Z</time></trkpt><trkpt lat="42.54886198180517" lon="14.11815262567149"><ele>3.9999999999999996</ele><time>2026-05-01T18:57:35.999Z</time></trkpt><trkpt lat="42.54880633675208" lon="14.118221045092486"><ele>4.0</ele><time>2026-05-01T18:57:36.999Z</time></trkpt><trkpt lat="42.548736828096885" lon="14.118249958560945"><ele>3.833333333333333</ele><time>2026-05-01T18:57:37.999Z</time></trkpt><trkpt lat="42.5486708383253" lon="14.118301279211332"><ele>3.6666666666666665</ele><time>2026-05-01T18:57:38.999Z</time></trkpt><trkpt lat="42.54860065427642" lon="14.118355846913671"><ele>3.5</ele><time>2026-05-01T18:57:39.999Z</time></trkpt><trkpt lat="42.54852369736178" lon="14.118415639662055"><ele>3.333333333333333</ele><time>2026-05-01T18:57:40.999Z</time></trkpt><trkpt lat="42.54844098210111" lon="14.118479905952645"><ele>3.1666666666666665</ele><time>2026-05-01T18:57:41.999Z</time></trkpt><trkpt lat="42.54835111378269" lon="14.118549856949421"><ele>3.0</ele><time>2026-05-01T18:57:42.999Z</time></trkpt><trkpt lat="42.54825824883305" lon="14.118622107785704"><ele>3.0</ele><time>2026-05-01T18:57:43.999Z</time></trkpt><trkpt lat="42.54818419949076" lon="14.118713247583479"><ele>3.0</ele><time>2026-05-01T18:57:44.999Z</time></trkpt><trkpt lat="42.548103380529646" lon="14.118778411890132"><ele>3.0</ele><time>2026-05-01T18:57:45.999Z</time></trkpt><trkpt lat="42.54802609503219" lon="14.11883387292307"><ele>3.0</ele><time>2026-05-01T18:57:46.999Z</time></trkpt><trkpt lat="42.54794777262652" lon="14.118895019205377"><ele>3.0</ele><time>2026-05-01T18:57:47.999Z</time></trkpt><trkpt lat="42.547865237829924" lon="14.118956632587462"><ele>3.0</ele><time>2026-05-01T18:57:48.999Z</time></trkpt><trkpt lat="42.54777055341048" lon="14.11900347073841"><ele>3.0</ele><time>2026-05-01T18:57:49.999Z</time></trkpt><trkpt lat="42.5476957144348" lon="14.119085382560584"><ele>3.0</ele><time>2026-05-01T18:57:50.999Z</time></trkpt><trkpt lat="42.54761260586385" lon="14.11914519817026"><ele>3.0</ele><time>2026-05-01T18:57:51.999Z</time></trkpt><trkpt lat="42.54753046290867" lon="14.119206892407334"><ele>3.0</ele><time>2026-05-01T18:57:52.999Z</time></trkpt><trkpt lat="42.54744923371262" lon="14.119272301326582"><ele>3.3333333333333335</ele><time>2026-05-01T18:57:53.999Z</time></trkpt><trkpt lat="42.54736757413883" lon="14.119340723901413"><ele>3.666666666666667</ele><time>2026-05-01T18:57:54.999Z</time></trkpt><trkpt lat="42.54728676653713" lon="14.11940313173269"><ele>4.0</ele><time>2026-05-01T18:57:55.999Z</time></trkpt><trkpt lat="42.547208711466226" lon="14.11946232923485"><ele>4.333333333333334</ele><time>2026-05-01T18:57:56.999Z</time></trkpt><trkpt lat="42.547126505598136" lon="14.119498906665017"><ele>4.666666666666667</ele><time>2026-05-01T18:57:57.999Z</time></trkpt><trkpt lat="42.54706561560389" lon="14.119570769953826"><ele>5.0</ele><time>2026-05-01T18:57:58.999Z</time></trkpt><trkpt lat="42.546988236648666" lon="14.119605840674623"><ele>5.0</ele><time>2026-05-01T18:57:59.999Z</time></trkpt><trkpt lat="42.54692031469995" lon="14.11965925399108"><ele>5.0</ele><time>2026-05-01T18:58:00.999Z</time></trkpt><trkpt lat="42.54685435342113" lon="14.119710871499015"><ele>5.0</ele><time>2026-05-01T18:58:01.999Z</time></trkpt><trkpt lat="42.54678705272239" lon="14.119763538704987"><ele>5.0</ele><time>2026-05-01T18:58:02.999Z</time></trkpt><trkpt lat="42.54672099941821" lon="14.119815034275623"><ele>5.0</ele><time>2026-05-01T18:58:03.999Z</time></trkpt><trkpt lat="42.546652382278644" lon="14.119868743840481"><ele>5.0</ele><time>2026-05-01T18:58:04.999Z</time></trkpt><trkpt lat="42.54658430196775" lon="14.119922056999346"><ele>5.0</ele><time>2026-05-01T18:58:05.999Z</time></trkpt><trkpt lat="42.54651494338003" lon="14.119976334063432"><ele>5.0</ele><time>2026-05-01T18:58:06.999Z</time></trkpt><trkpt lat="42.546445533612335" lon="14.120030662739591"><ele>5.0</ele><time>2026-05-01T18:58:07.999Z</time></trkpt><trkpt lat="42.54637867534453" lon="14.120083561472207"><ele>5.0</ele><time>2026-05-01T18:58:08.999Z</time></trkpt><trkpt lat="42.546283364516064" lon="14.120158734922667"><ele>5.0</ele><time>2026-05-01T18:58:10.999Z</time></trkpt><trkpt lat="42.546203307030325" lon="14.12022187765617"><ele>5.0</ele><time>2026-05-01T18:58:12.999Z</time></trkpt><trkpt lat="42.5461154286034" lon="14.120291345522936"><ele>4.833333333333334</ele><time>2026-05-01T18:58:14.999Z</time></trkpt><trkpt lat="42.54601438370629" lon="14.12037128074873"><ele>4.666666666666667</ele><time>2026-05-01T18:58:16.999Z</time></trkpt><trkpt lat="42.54595334582331" lon="14.120419566791893"><ele>4.5</ele><time>2026-05-01T18:58:17.999Z</time></trkpt><trkpt lat="42.54588709766621" lon="14.120472130045842"><ele>4.333333333333333</ele><time>2026-05-01T18:58:18.999Z</time></trkpt><trkpt lat="42.54581624772065" lon="14.120528318606379"><ele>4.166666666666666</ele><time>2026-05-01T18:58:19.999Z</time></trkpt><trkpt lat="42.54575414867434" lon="14.120577567142616"><ele>4.0</ele><time>2026-05-01T18:58:20.999Z</time></trkpt><trkpt lat="42.5456950836787" lon="14.120624409449228"><ele>4.0</ele><time>2026-05-01T18:58:21.999Z</time></trkpt><trkpt lat="42.54563521561072" lon="14.120671888694355"><ele>3.9999999999999996</ele><time>2026-05-01T18:58:22.999Z</time></trkpt><trkpt lat="42.54557207451065" lon="14.120721962987659"><ele>4.0</ele><time>2026-05-01T18:58:23.999Z</time></trkpt><trkpt lat="42.54550578082755" lon="14.120773630899864"><ele>4.0</ele><time>2026-05-01T18:58:24.999Z</time></trkpt><trkpt lat="42.54544706097994" lon="14.120819705551918"><ele>3.9999999999999996</ele><time>2026-05-01T18:58:25.999Z</time></trkpt><trkpt lat="42.545385355226955" lon="14.12086790554776"><ele>4.0</ele><time>2026-05-01T18:58:26.998Z</time></trkpt><trkpt lat="42.54532297983076" lon="14.120916167608803"><ele>4.0</ele><time>2026-05-01T18:58:27.998Z</time></trkpt><trkpt lat="42.545258498360006" lon="14.12096605870774"><ele>4.0</ele><time>2026-05-01T18:58:28.998Z</time></trkpt><trkpt lat="42.54519447285953" lon="14.121016879413196"><ele>3.9999999999999996</ele><time>2026-05-01T18:58:29.998Z</time></trkpt><trkpt lat="42.54513396142213" lon="14.121064489666074"><ele>4.0</ele><time>2026-05-01T18:58:30.998Z</time></trkpt><trkpt lat="42.54507521732192" lon="14.121110661201257"><ele>4.0</ele><time>2026-05-01T18:58:31.998Z</time></trkpt><trkpt lat="42.54501558829249" lon="14.121157353404014"><ele>3.9999999999999996</ele><time>2026-05-01T18:58:32.998Z</time></trkpt><trkpt lat="42.544956229244825" lon="14.12120373047495"><ele>4.0</ele><time>2026-05-01T18:58:33.998Z</time></trkpt><trkpt lat="42.544896533074365" lon="14.121250195644349"><ele>4.0</ele><time>2026-05-01T18:58:34.998Z</time></trkpt><trkpt lat="42.54483759418119" lon="14.121296071382098"><ele>3.9999999999999996</ele><time>2026-05-01T18:58:35.998Z</time></trkpt><trkpt lat="42.54474049708598" lon="14.12137164798398"><ele>4.0</ele><time>2026-05-01T18:58:37.998Z</time></trkpt><trkpt lat="42.5446475135094" lon="14.121444022772051"><ele>4.0</ele><time>2026-05-01T18:58:39.998Z</time></trkpt><trkpt lat="42.544590543047875" lon="14.121488365694514"><ele>4.0</ele><time>2026-05-01T18:58:40.998Z</time></trkpt><trkpt lat="42.5445306626901" lon="14.121534891684721"><ele>3.9999999999999996</ele><time>2026-05-01T18:58:42Z</time></trkpt><trkpt lat="42.54447519096489" lon="14.121578024679021"><ele>4.0</ele><time>2026-05-01T18:58:43Z</time></trkpt><trkpt lat="42.54442524558416" lon="14.121655611439751"><ele>4.0</ele><time>2026-05-01T18:58:44Z</time></trkpt><trkpt lat="42.54436403784274" lon="14.121704355200427"><ele>3.9999999999999996</ele><time>2026-05-01T18:58:45Z</time></trkpt><trkpt lat="42.54430399245203" lon="14.121750419906126"><ele>4.0</ele><time>2026-05-01T18:58:46Z</time></trkpt><trkpt lat="42.54424405243289" lon="14.12179795813196"><ele>4.0</ele><time>2026-05-01T18:58:47Z</time></trkpt><trkpt lat="42.54417993131831" lon="14.121847758430377"><ele>3.9999999999999996</ele><time>2026-05-01T18:58:48Z</time></trkpt><trkpt lat="42.54411863122511" lon="14.121897135947698"><ele>4.0</ele><time>2026-05-01T18:58:49Z</time></trkpt><trkpt lat="42.54404751517732" lon="14.121958839735496"><ele>4.0</ele><time>2026-05-01T18:58:50Z</time></trkpt><trkpt lat="42.54394950432681" lon="14.122046912866928"><ele>4.0</ele><time>2026-05-01T18:58:51Z</time></trkpt><trkpt lat="42.54382558657244" lon="14.12208224948349"><ele>4.0</ele><time>2026-05-01T18:58:52Z</time></trkpt><trkpt lat="42.54372443114727" lon="14.122160773428819"><ele>4.0</ele><time>2026-05-01T18:58:53Z</time></trkpt><trkpt lat="42.543627186103066" lon="14.12223626183027"><ele>4.0</ele><time>2026-05-01T18:58:54Z</time></trkpt><trkpt lat="42.543538405909274" lon="14.122305179193171"><ele>3.6666666666666665</ele><time>2026-05-01T18:58:55Z</time></trkpt><trkpt lat="42.5434577508016" lon="14.122367789323796"><ele>3.333333333333333</ele><time>2026-05-01T18:58:56Z</time></trkpt><trkpt lat="42.54338514063683" lon="14.122424154404746"><ele>3.0</ele><time>2026-05-01T18:58:57Z</time></trkpt><trkpt lat="42.5433267665032" lon="14.12246946849201"><ele>2.6666666666666665</ele><time>2026-05-01T18:58:58Z</time></trkpt><trkpt lat="42.54324449395142" lon="14.122533334191047"><ele>2.333333333333333</ele><time>2026-05-01T18:59:00Z</time></trkpt><trkpt lat="42.54317195606292" lon="14.122589643178394"><ele>2.0</ele><time>2026-05-01T18:59:02Z</time></trkpt><trkpt lat="42.543111817097916" lon="14.122636327231108"><ele>2.0</ele><time>2026-05-01T18:59:04Z</time></trkpt><trkpt lat="42.543037937557955" lon="14.122693677705218"><ele>2.0</ele><time>2026-05-01T18:59:09Z</time></trkpt><trkpt lat="42.54297226465832" lon="14.122746926207931"><ele>2.0</ele><time>2026-05-01T18:59:11Z</time></trkpt><trkpt lat="42.54287439987839" lon="14.122823852214227"><ele>2.0</ele><time>2026-05-01T18:59:13Z</time></trkpt><trkpt lat="42.54278396979189" lon="14.122893592808415"><ele>2.0</ele><time>2026-05-01T18:59:14Z</time></trkpt><trkpt lat="42.54267783456488" lon="14.12297641209917"><ele>2.0</ele><time>2026-05-01T18:59:15Z</time></trkpt><trkpt lat="42.54255781780823" lon="14.123070376599017"><ele>2.0</ele><time>2026-05-01T18:59:16Z</time></trkpt><trkpt lat="42.5424350835023" lon="14.123166468602966"><ele>2.0</ele><time>2026-05-01T18:59:17Z</time></trkpt><trkpt lat="42.54232020189531" lon="14.12325613398092"><ele>2.0</ele><time>2026-05-01T18:59:18Z</time></trkpt><trkpt lat="42.54220839337595" lon="14.123343399416258"><ele>2.2</ele><time>2026-05-01T18:59:19Z</time></trkpt><trkpt lat="42.54210286090118" lon="14.123425913073929"><ele>2.4000000000000004</ele><time>2026-05-01T18:59:20Z</time></trkpt><trkpt lat="42.54200773866563" lon="14.12352530428816"><ele>2.5999999999999996</ele><time>2026-05-01T18:59:21Z</time></trkpt><trkpt lat="42.54190868507609" lon="14.123573572458376"><ele>2.8</ele><time>2026-05-01T18:59:22Z</time></trkpt><trkpt lat="42.54182146512302" lon="14.123594570811196"><ele>3.0</ele><time>2026-05-01T18:59:23Z</time></trkpt><trkpt lat="42.54174512360233" lon="14.123557238344567"><ele>3.0</ele><time>2026-05-01T18:59:24Z</time></trkpt><trkpt lat="42.541648804828974" lon="14.123498984149473"><ele>3.0</ele><time>2026-05-01T18:59:25Z</time></trkpt><trkpt lat="42.54155705289891" lon="14.12347610280739"><ele>3.0</ele><time>2026-05-01T18:59:26Z</time></trkpt><trkpt lat="42.541473409915206" lon="14.123502487873136"><ele>3.0</ele><time>2026-05-01T18:59:27Z</time></trkpt><trkpt lat="42.54139690262794" lon="14.123553566379085"><ele>3.0</ele><time>2026-05-01T18:59:28Z</time></trkpt><trkpt lat="42.541337458326524" lon="14.123690899357744"><ele>3.0</ele><time>2026-05-01T18:59:30Z</time></trkpt><trkpt lat="42.541323013797964" lon="14.123845984093462"><ele>3.0</ele><time>2026-05-01T18:59:31Z</time></trkpt><trkpt lat="42.54130285117845" lon="14.123996502524847"><ele>3.0</ele><time>2026-05-01T18:59:32Z</time></trkpt><trkpt lat="42.5412492589601" lon="14.124126100364904"><ele>3.0</ele><time>2026-05-01T18:59:33Z</time></trkpt><trkpt lat="42.5411420384622" lon="14.124176199543157"><ele>2.6666666666666665</ele><time>2026-05-01T18:59:34Z</time></trkpt><trkpt lat="42.541030972324606" lon="14.124252977162616"><ele>2.333333333333333</ele><time>2026-05-01T18:59:35Z</time></trkpt><trkpt lat="42.54089211443157" lon="14.124355445219168"><ele>2.0</ele><time>2026-05-01T18:59:36Z</time></trkpt><trkpt lat="42.54074530931697" lon="14.124467361713146"><ele>2.0</ele><time>2026-05-01T18:59:37Z</time></trkpt><trkpt lat="42.54058136248728" lon="14.124592539652397"><ele>2.0</ele><time>2026-05-01T18:59:38Z</time></trkpt><trkpt lat="42.540411449488104" lon="14.124723551625964"><ele>2.0</ele><time>2026-05-01T18:59:39Z</time></trkpt><trkpt lat="42.54024817622389" lon="14.12484977344434"><ele>2.6666666666666665</ele><time>2026-05-01T18:59:40Z</time></trkpt><trkpt lat="42.54007529573232" lon="14.124983450504619"><ele>3.333333333333333</ele><time>2026-05-01T18:59:41Z</time></trkpt><trkpt lat="42.53990284315301" lon="14.12511942093869"><ele>4.0</ele><time>2026-05-01T18:59:42Z</time></trkpt><trkpt lat="42.53972689335496" lon="14.125258212181409"><ele>4.0</ele><time>2026-05-01T18:59:43Z</time></trkpt><trkpt lat="42.53955750183604" lon="14.12541757770026"><ele>4.0</ele><time>2026-05-01T18:59:43.999Z</time></trkpt><trkpt lat="42.53937805997008" lon="14.125556610711962"><ele>4.0</ele><time>2026-05-01T18:59:44.999Z</time></trkpt><trkpt lat="42.53919723872393" lon="14.125693229838834"><ele>4.0</ele><time>2026-05-01T18:59:45.999Z</time></trkpt><trkpt lat="42.539022535399134" lon="14.1258330232389"><ele>4.0</ele><time>2026-05-01T18:59:46.999Z</time></trkpt><trkpt lat="42.53884867488847" lon="14.12596615000281"><ele>4.0</ele><time>2026-05-01T18:59:47.999Z</time></trkpt><trkpt lat="42.53867432996406" lon="14.126100377124965"><ele>4.0</ele><time>2026-05-01T18:59:48.999Z</time></trkpt><trkpt lat="42.53849700747018" lon="14.126238370482824"><ele>4.0</ele><time>2026-05-01T18:59:49.999Z</time></trkpt><trkpt lat="42.538326403382804" lon="14.12637934038154"><ele>4.0</ele><time>2026-05-01T18:59:50.999Z</time></trkpt><trkpt lat="42.53814175912413" lon="14.126490166144656"><ele>4.0</ele><time>2026-05-01T18:59:51.999Z</time></trkpt><trkpt lat="42.537970126610865" lon="14.126653395657756"><ele>4.0</ele><time>2026-05-01T18:59:52.999Z</time></trkpt><trkpt lat="42.53779020507651" lon="14.126790100027053"><ele>4.0</ele><time>2026-05-01T18:59:53.999Z</time></trkpt><trkpt lat="42.537618572971866" lon="14.126920585732195"><ele>4.333333333333333</ele><time>2026-05-01T18:59:54.999Z</time></trkpt><trkpt lat="42.537450902919105" lon="14.127048507303964"><ele>4.666666666666667</ele><time>2026-05-01T18:59:55.999Z</time></trkpt><trkpt lat="42.537285554450364" lon="14.12717778295061"><ele>5.0</ele><time>2026-05-01T18:59:56.999Z</time></trkpt><trkpt lat="42.5371233955991" lon="14.127306013398938"><ele>4.666666666666667</ele><time>2026-05-01T18:59:57.999Z</time></trkpt><trkpt lat="42.53696873107424" lon="14.12742748890209"><ele>4.333333333333333</ele><time>2026-05-01T18:59:58.999Z</time></trkpt><trkpt lat="42.53681860821646" lon="14.127543031988976"><ele>4.0</ele><time>2026-05-01T18:59:59.999Z</time></trkpt><trkpt lat="42.5366700130579" lon="14.127631430783413"><ele>4.0</ele><time>2026-05-01T19:00:00.999Z</time></trkpt><trkpt lat="42.53654441612919" lon="14.127729201645264"><ele>4.0</ele><time>2026-05-01T19:00:01.999Z</time></trkpt><trkpt lat="42.53643159924993" lon="14.127851032028511"><ele>4.0</ele><time>2026-05-01T19:00:02.999Z</time></trkpt><trkpt lat="42.536310570847164" lon="14.127947198303964"><ele>4.0</ele><time>2026-05-01T19:00:03.999Z</time></trkpt><trkpt lat="42.53617734540908" lon="14.128052925106957"><ele>3.6666666666666665</ele><time>2026-05-01T19:00:04.999Z</time></trkpt><trkpt lat="42.53603985432221" lon="14.128189084826845"><ele>3.333333333333333</ele><time>2026-05-01T19:00:05.999Z</time></trkpt><trkpt lat="42.53585461212751" lon="14.12827041400156"><ele>3.0</ele><time>2026-05-01T19:00:06.999Z</time></trkpt><trkpt lat="42.5357004857814" lon="14.128392394638903"><ele>3.0</ele><time>2026-05-01T19:00:07.999Z</time></trkpt><trkpt lat="42.53555530206913" lon="14.128506018959804"><ele>3.0</ele><time>2026-05-01T19:00:08.999Z</time></trkpt><trkpt lat="42.53542476891381" lon="14.128611663225096"><ele>3.0</ele><time>2026-05-01T19:00:09.999Z</time></trkpt><trkpt lat="42.535299102030706" lon="14.128712128518226"><ele>2.75</ele><time>2026-05-01T19:00:10.999Z</time></trkpt><trkpt lat="42.53518420828303" lon="14.128800650104216"><ele>2.5</ele><time>2026-05-01T19:00:11.999Z</time></trkpt><trkpt lat="42.535069396073105" lon="14.128889722349744"><ele>2.25</ele><time>2026-05-01T19:00:12.999Z</time></trkpt><trkpt lat="42.53497306735998" lon="14.128996331702936"><ele>2.0</ele><time>2026-05-01T19:00:13.999Z</time></trkpt><trkpt lat="42.53486663607442" lon="14.129077133674588"><ele>2.25</ele><time>2026-05-01T19:00:14.999Z</time></trkpt><trkpt lat="42.534762297663605" lon="14.129160789825661"><ele>2.5</ele><time>2026-05-01T19:00:15.999Z</time></trkpt><trkpt lat="42.53465737651501" lon="14.129242196909189"><ele>2.75</ele><time>2026-05-01T19:00:16.999Z</time></trkpt><trkpt lat="42.534552004496256" lon="14.12931994198257"><ele>3.0</ele><time>2026-05-01T19:00:17.999Z</time></trkpt><trkpt lat="42.534452476042304" lon="14.1294058303227"><ele>3.0</ele><time>2026-05-01T19:00:18.999Z</time></trkpt><trkpt lat="42.534345682166766" lon="14.129477644182673"><ele>3.0</ele><time>2026-05-01T19:00:19.999Z</time></trkpt><trkpt lat="42.534241877377355" lon="14.129556624037452"><ele>3.0</ele><time>2026-05-01T19:00:20.999Z</time></trkpt><trkpt lat="42.5341361539653" lon="14.129636379666744"><ele>3.0</ele><time>2026-05-01T19:00:21.999Z</time></trkpt><trkpt lat="42.534027375294016" lon="14.129721100475994"><ele>3.0</ele><time>2026-05-01T19:00:22.999Z</time></trkpt><trkpt lat="42.53392263938265" lon="14.129798142254488"><ele>3.0</ele><time>2026-05-01T19:00:23.999Z</time></trkpt><trkpt lat="42.5338257020348" lon="14.129876269900823"><ele>3.0</ele><time>2026-05-01T19:00:24.999Z</time></trkpt><trkpt lat="42.533731892483665" lon="14.12994471381053"><ele>3.0</ele><time>2026-05-01T19:00:25.999Z</time></trkpt><trkpt lat="42.53364871724507" lon="14.130008920629429"><ele>3.0</ele><time>2026-05-01T19:00:26.999Z</time></trkpt><trkpt lat="42.53357084004807" lon="14.130066401526804"><ele>3.0</ele><time>2026-05-01T19:00:27.999Z</time></trkpt><trkpt lat="42.53349357854233" lon="14.130134633269845"><ele>3.0</ele><time>2026-05-01T19:00:28.999Z</time></trkpt><trkpt lat="42.5334083162348" lon="14.1301993500714"><ele>3.0</ele><time>2026-05-01T19:00:29.999Z</time></trkpt><trkpt lat="42.53332942550668" lon="14.130253246515608"><ele>3.0</ele><time>2026-05-01T19:00:30.999Z</time></trkpt><trkpt lat="42.533256336116644" lon="14.13031252727857"><ele>3.0</ele><time>2026-05-01T19:00:31.999Z</time></trkpt><trkpt lat="42.53318299261317" lon="14.130372303691205"><ele>3.0</ele><time>2026-05-01T19:00:32.999Z</time></trkpt><trkpt lat="42.53310262455071" lon="14.130436048461888"><ele>3.0</ele><time>2026-05-01T19:00:33.999Z</time></trkpt><trkpt lat="42.53302040808245" lon="14.130498650005304"><ele>3.0</ele><time>2026-05-01T19:00:34.998Z</time></trkpt><trkpt lat="42.532938822682006" lon="14.130565661924301"><ele>3.0</ele><time>2026-05-01T19:00:35.998Z</time></trkpt><trkpt lat="42.53284955232596" lon="14.130636049035864"><ele>3.0</ele><time>2026-05-01T19:00:36.998Z</time></trkpt><trkpt lat="42.53276609602275" lon="14.130704845646848"><ele>3.0</ele><time>2026-05-01T19:00:37.998Z</time></trkpt><trkpt lat="42.53269330225629" lon="14.130759349058593"><ele>3.0</ele><time>2026-05-01T19:00:38.998Z</time></trkpt><trkpt lat="42.53262689198935" lon="14.130809767945035"><ele>3.0</ele><time>2026-05-01T19:00:39.998Z</time></trkpt><trkpt lat="42.5325647869791" lon="14.130857306387503"><ele>3.0</ele><time>2026-05-01T19:00:40.998Z</time></trkpt><trkpt lat="42.53250292389641" lon="14.13090078500157"><ele>3.0</ele><time>2026-05-01T19:00:41.998Z</time></trkpt><trkpt lat="42.53239151198465" lon="14.130965556971296"><ele>3.0</ele><time>2026-05-01T19:00:43.998Z</time></trkpt><trkpt lat="42.53228263681963" lon="14.131003459223262"><ele>2.9999999999999996</ele><time>2026-05-01T19:00:45.998Z</time></trkpt><trkpt lat="42.532219470311006" lon="14.131002270612777"><ele>3.0</ele><time>2026-05-01T19:00:47.001Z</time></trkpt><trkpt lat="42.53215584566891" lon="14.130993602522576"><ele>3.0</ele><time>2026-05-01T19:00:48.001Z</time></trkpt><trkpt lat="42.53209149025319" lon="14.130996702618374"><ele>3.0</ele><time>2026-05-01T19:00:49Z</time></trkpt><trkpt lat="42.53202076999605" lon="14.131006809209886"><ele>3.0</ele><time>2026-05-01T19:00:50Z</time></trkpt><trkpt lat="42.53193120617876" lon="14.131020977095686"><ele>2.9999999999999996</ele><time>2026-05-01T19:00:51Z</time></trkpt><trkpt lat="42.531860728774994" lon="14.131068699631928"><ele>3.0</ele><time>2026-05-01T19:00:52Z</time></trkpt><trkpt lat="42.531757477417976" lon="14.130975325672283"><ele>3.0</ele><time>2026-05-01T19:00:53Z</time></trkpt><trkpt lat="42.53167848433529" lon="14.130940962182725"><ele>3.0</ele><time>2026-05-01T19:00:54Z</time></trkpt><trkpt lat="42.53161103277799" lon="14.13090984837822"><ele>3.0</ele><time>2026-05-01T19:00:55Z</time></trkpt><trkpt lat="42.531520283082585" lon="14.13084427545989"><ele>3.0</ele><time>2026-05-01T19:00:57Z</time></trkpt><trkpt lat="42.531485077996116" lon="14.13094820461981"><ele>3.0</ele><time>2026-05-01T19:01:01Z</time></trkpt></trkseg></trk></gpx>